[[{"header":{"parameterUnit":"m.s-1","parameterCategory":1,"la1":31.0,"la2":29.5877,"lo1":-88.7671,"lo2":-86.6584,"dy":0.0162,"dx":0.0185,"nx":115,"ny":88,"refTime":"2024-08-28T06:00:00:Z","depth":0,"parameterNumber":2,"parameterNumberName":"U-component_of_WINDS"},"data":[0.0,0.0,0.0,0.0,0.0,0.0,0.0,0.0,0.0,0.0,0.0,0.0,0.0,0.0,0.0,0.0,0.0,0.0,0.0,0.0,0.0,0.0,0.0,0.0,0.0,0.0,0.0,0.0,0.0,0.0,0.0,0.0,0.0,0.0,0.0,0.0,0.0,0.0,0.0,0.0,0.0,0.0,0.0,0.0,0.0,0.0,0.0,0.0,0.0,0.0,0.0,0.0,0.0,0.0,0.0,0.0,0.0,0.0,0.0,0.0,0.0,0.0,0.0,0.0,0.0,0.0,0.0,0.0,0.0,0.0,0.0,0.0,0.0,0.0,0.0,0.0,0.0,0.0,0.0,0.0,0.0,0.0,0.0,0.0,0.0,0.0,0.0,0.0,0.0,0.0,0.0,0.0,0.0,0.0,0.0,0.0,0.0,0.0,0.0,0.0,0.0,0.0,0.0,0.0,0.0,0.0,0.0,0.0,0.0,0.0,0.0,0.0,0.0,0.0,0.0,0.0,0.0,0.0,0.0,0.0,0.0,0.0,0.0,0.0,0.0,0.0,0.0,0.0,0.0,0.0,0.0,0.0,0.0,0.0,0.0,0.0,0.0,0.0,0.0,0.0,0.0,0.0,0.0,0.0,0.0,0.0,0.0,0.0,0.0,0.0,0.0,0.0,0.0,0.0,0.0,0.0,0.0,0.0,0.0,0.0,0.0,0.0,0.0,0.0,0.0,0.0,0.0,0.0,0.0,0.0,0.0,0.0,0.0,0.0,0.0,0.0,0.0,0.0,0.0,0.0,0.0,0.0,0.0,0.0,0.0,0.0,0.0,0.0,0.0,0.0,0.0,0.0,0.0,0.0,0.0,0.0,0.0,0.0,0.0,0.0,0.0,0.0,0.0,0.0,0.0,0.0,0.0,0.0,0.0,0.0,0.0,0.0,0.0,0.0,0.0,0.0,0.0,0.0,0.0,0.0,0.0,0.0,0.0,0.0,0.0,0.0,0.0,0.0,0.0,0.0,0.0,0.0,0.0,0.0,0.0,0.0,0.0,0.0,0.0,0.0,0.0,0.0,0.0,0.0,0.0,0.0,0.0,0.0,0.0,0.0,0.0,0.0,0.0,0.0,0.0,0.0,0.0,0.0,0.0,0.0,0.0,0.0,0.0,0.0,0.0,0.0,0.0,0.0,0.0,0.0,0.0,0.0,0.0,0.0,0.0,0.0,0.0,0.0,0.0,0.0,0.0,0.0,0.0,0.0,0.0,0.0,0.0,0.0,0.0,0.0,0.0,0.0,0.0,0.0,0.0,0.0,0.0,0.0,0.0,0.0,0.0,0.0,0.0,0.0,0.0,0.0,0.0,0.0,0.0,0.0,0.0,0.0,0.0,0.0,0.0,0.0,0.0,0.0,0.0,0.0,0.0,0.0,0.0,0.0,0.0,0.0,0.0,0.0,0.0,0.0,0.0,0.0,0.0,0.0,0.0,0.0,0.0,0.0,0.0,0.0,0.0,0.0,0.0,0.0,0.0,0.0,0.0,0.0,0.0,0.0,0.0,0.0,0.0,0.0,0.0,0.0,0.0,0.0,0.0,0.0,0.0,0.0,0.0,0.0,0.0,0.0,0.0,0.0,0.0,0.0,0.0,0.0,0.0,0.0,0.0,0.0,0.0,0.0,0.0,0.0,0.0,0.0,0.0,0.0,0.0,0.0,0.0,0.0,0.0,0.0,0.0,0.0,0.0,0.0,0.0,0.0,0.0,0.0,0.0,0.0,0.0,0.0,0.0,0.0,0.0,0.0,0.0,0.0,0.0,0.0,0.0,0.0,0.0,0.0,0.0,0.0,0.0,0.0,0.0,0.0,0.0,0.0,0.0,0.0,0.0,0.0,0.0,0.0,0.0,0.0,0.0,0.0,0.0,0.0,0.0,0.0,0.0,0.0,0.0,0.0,0.0,0.0,0.0,0.0,0.0,0.0,0.0,0.0,0.0,0.0,0.0,0.0,0.0,0.0,0.0,0.0,0.0,0.0,0.0,0.0,0.0,0.0,0.0,0.0,0.0,0.0,0.0,0.0,0.0,0.0,0.0,0.0,0.0,0.0,0.0,0.0,0.0,0.0,0.0,0.0,0.0,0.0,0.0,0.0,0.0,0.0,0.0,0.0,0.0,0.0,0.0,0.0,0.0,0.0,0.0,0.0,0.0,0.0,0.0,0.0,0.0,0.0,0.0,0.0,0.0,0.0,0.0,0.0,0.0,0.0,0.0,0.0,0.0,0.0,0.0,0.0,0.0,0.0,0.0,0.0,0.0,0.0,0.0,0.0,0.0,0.0,0.0,0.0,0.0,0.0,0.0,0.0,0.0,0.0,0.0,0.0,0.0,0.0,0.0,0.0,0.0,0.0,0.0,0.0,0.0,0.0,0.0,0.0,0.0,0.0,0.0,0.0,0.0,0.0,0.0,0.0,0.0,0.0,0.0,0.0,0.0,0.0,0.0,0.0,0.0,0.0,0.0,0.0,0.0,0.0,0.0,0.0,0.0,0.0,0.0,0.0,0.0,0.0,0.0,0.0,0.0,0.0,0.0,0.0,0.0,0.0,0.0,0.0,0.0,0.0,0.0,0.0,0.0,0.0,0.0,0.0,0.0,0.0,0.0,0.0,0.0,0.0,0.0,0.0,0.0,0.0,0.0,0.0,0.0,0.0,0.0,0.0,0.0,0.0,0.0,0.0,0.0,0.0,0.0,0.0,0.0,0.0,0.0,0.0,0.0,0.0,0.0,0.0,0.0,0.0,0.0,0.0,0.0,0.0,0.0,0.0,0.0,0.0,0.0,0.0,0.0,0.0,0.0,0.0,0.0,0.0,0.0,0.0,0.0,0.0,0.0,0.0,0.0,0.0,0.0,0.0,0.0,0.0,0.0,0.0,0.0,0.0,0.0,0.0,0.0,0.0,0.0,0.0,0.0,0.0,0.0,0.0,0.0,0.0,0.0,0.0,0.0,0.0,0.0,0.0,0.0,0.0,0.0,0.0,0.0,0.0,0.0,0.0,0.0,0.0,0.0,0.0,0.0,0.0,0.0,0.0,0.0,0.0,0.0,0.0,0.0,0.0,0.0,0.0,0.0,0.0,0.0,0.0,0.0,0.0,0.0,0.0,0.0,0.0,0.0,0.0,0.0,0.0,0.0,0.0,0.0,0.0,0.0,0.0,0.0,0.0,0.0,0.0,0.0,0.0,0.0,0.0,0.0,0.0,0.0,0.0,0.0,0.0,0.0,0.0,0.0,0.0,0.0,0.0,0.0,0.0,0.0,0.0,0.0,0.0,0.0,0.0,0.0,0.0,0.0,0.0,0.0,0.0,0.0,0.0,0.0,0.0,0.0,0.0,0.0,0.0,0.0,0.0,0.0,0.0,0.0,0.0,0.0,0.0,0.0,0.0,0.0,0.0,0.0,0.0,0.0,0.0,0.0,0.0,0.0,0.0,0.0,0.0,0.0,0.0,0.0,0.0,0.0,0.0,0.0,0.0,0.0,0.0,0.0,0.0,0.0,0.0,0.0,0.0,0.0,0.0,0.0,0.0,0.0,0.0,0.0,0.0,0.0,0.0,0.0,0.0,0.0,0.0,0.0,0.0,0.0,0.0,0.0,0.0,0.0,0.0,0.0,0.0,0.0,0.0,0.0,0.0,0.0,0.0,0.0,0.0,0.0,0.0,0.0,0.0,0.0,0.0,0.0,0.0,0.0,0.0,0.0,0.0,0.0,0.0,0.0,0.0,0.0,0.0,0.0,0.0,0.0,0.0,0.0,0.0,0.0,0.0,0.0,0.0,0.0,0.0,0.0,0.0,0.0,0.0,0.0,0.0,0.0,0.0,0.0,0.0,0.0,0.0,0.0,0.0,0.0,0.0,0.0,0.0,0.0,0.0,0.0,0.0,0.0,0.0,0.0,0.0,0.0,0.0,0.0,0.0,0.0,0.0,0.0,0.0,0.0,0.0,0.0,0.0,0.0,0.0,0.0,0.0,0.0,0.0,0.0,0.0,0.0,0.0,0.0,0.0,0.0,0.0,0.0,0.0,0.0,0.0,0.0,0.0,0.0,0.0,0.0,0.0,0.0,0.0,0.0,0.0,0.0,0.0,0.0,0.0,0.0,0.0,0.0,0.0,0.0,0.0,0.0,0.0,0.0,0.0,0.0,0.0,0.0,0.0,0.0,0.0,0.0,0.0,0.0,0.0,0.0,0.0,0.0,0.0,0.0,0.0,0.0,0.0,0.0,0.0,0.6928,0.0,0.0,0.0,0.0,0.0,0.0,0.0,0.0,0.0,0.0,0.0,0.0,0.0,0.0,0.0,0.0,0.0,0.0,0.0,0.0,0.0,0.0,0.0,0.0,0.0,0.0,0.0,0.0,0.0,0.0,0.0,0.0,0.0,0.0,0.0,0.0,0.0,0.0,0.0,0.0,0.0,0.0,0.0,0.0,0.0,0.0,0.0,0.0,0.0,0.0,0.0,0.0,0.0,0.0,0.0,0.0,0.0,0.0,0.0,0.0,0.0,0.0,0.0,0.0,0.0,0.0,0.0,0.0,0.0,0.0,0.0,0.0,0.0,0.0,0.0,0.0,0.0,0.0,0.0,0.0,0.0,0.0,0.0,0.0,0.0,0.0,0.0,0.0,0.0,0.0,0.0,0.0,0.0,0.0,0.0,0.0,0.0,0.0,0.0,0.0,0.0,0.0,0.0,0.0,0.0,0.0,0.0,0.0,0.0,0.0,0.7906,0.7989,0.7562,0.7223,0.7042,0.0,0.0,0.0,0.0,0.0,0.0,0.0,0.0,0.0,0.0,0.0,0.0,0.0,0.0,0.0,0.0,0.0,0.0,0.0,0.0,0.0,0.0,0.0,0.0,0.0,0.0,0.0,0.0,0.0,0.0,0.0,0.0,0.0,0.0,0.0,0.0,0.0,0.0,0.0,0.0,0.0,0.0,0.0,0.0,0.0,0.0,0.0,0.0,0.0,0.0,0.0,0.0,0.0,0.0,0.0,0.0,0.0,0.0,0.0,0.0,0.0,0.0,0.0,0.0,0.0,0.0,0.0,0.0,0.0,0.0,0.0,0.0,0.0,0.0,0.0,0.0,0.0,0.0,0.0,0.0,0.0,0.0,0.0,0.0,0.0,0.0,0.0,0.0,0.0,0.0,0.0,0.0,0.0,0.0,0.0,0.0,0.0,0.0,0.0,0.0,0.0,0.0,0.0,0.0,0.0,0.0,0.0,0.0,0.0,0.0,0.0,0.0,0.7207,0.6956,0.6566,0.0,0.0,0.0,0.0,0.0,0.0,0.0,0.0,0.0,0.0,0.0,0.0,0.0,0.0,0.0,0.0,0.0,0.0,0.0,0.0,0.0,0.0,0.0,0.0,0.0,0.0,0.0,0.0,0.0,0.0,0.0,0.0,0.0,0.0,0.0,0.0,0.0,0.0,0.0,0.0,0.0,0.0,0.0,0.0,0.0,0.0,0.0,0.0,0.0,0.0,0.0,0.0,0.0,0.0,0.0,0.0,0.0,0.0,0.0,0.0,0.0,0.0,0.0,0.0,0.0,0.0,0.0,0.0,0.0,0.0,0.0,0.0,0.0,0.0,0.0,0.0,0.0,0.0,0.0,0.0,0.0,0.0,0.0,0.0,0.0,0.0,0.0,0.0,0.0,0.0,0.0,0.0,0.0,0.0,0.0,0.0,0.0,0.0,0.0,0.0,0.0,0.0,0.0,0.0,0.0,0.0,0.0,0.0,0.0,0.0,0.6846,0.6512,0.6363,0.0,0.507,0.0,0.0,0.0,0.0,0.0,0.0,0.0,0.0,0.0,0.0,0.0,0.0,0.0,0.0,0.0,0.0,0.0,0.0,0.0,0.0,0.0,0.0,0.0,0.0,0.0,0.0,0.0,0.0,0.0,0.0,0.0,0.0,0.0,0.0,0.0,0.0,0.0,0.0,0.0,0.0,0.0,0.0,0.0,0.0,0.0,0.0,0.0,0.0,0.0,0.0,0.0,0.0,0.0,0.0,0.0,0.0,0.0,0.0,0.0,0.0,0.0,0.0,0.0,0.0,0.0,0.0,0.0,0.0,0.0,0.0,0.0,0.0,0.0,0.0,0.0,0.0,0.0,0.0,0.0,0.0,0.0,0.0,0.0,0.0,0.0,0.0,0.0,0.0,0.0,0.0,0.0,0.0,0.0,0.0,0.0,0.0,0.0,0.0,0.0,0.0,0.0,0.0,0.0,0.0,0.0,0.0,0.0,0.0,0.0,0.0,0.0,0.563,0.5351,0.4989,0.0,0.0,0.0,0.0,0.0,0.0,0.0,0.0,0.0,0.0,0.0,0.0,0.0,0.0,0.0,0.0,0.0,0.0,0.0,0.0,0.0,0.0,0.0,0.0,0.0,0.0,0.0,0.0,0.0,0.0,0.0,0.0,0.0,0.0,0.0,0.0,0.0,0.0,0.0,0.0,0.0,0.0,0.0,0.0,0.0,0.0,0.0,0.0,0.0,0.0,0.0,0.0,0.0,0.0,0.0,0.0,0.0,0.0,0.0,0.0,0.0,0.0,0.0,0.0,0.0,0.0,0.0,0.0,0.0,0.0,0.0,0.0,0.0,0.0,0.0,0.0,0.0,0.0,0.0,0.0,0.0,0.0,0.0,0.0,0.0,0.0,0.0,0.0,0.0,0.0,0.0,0.0,0.0,0.0,0.0,0.0,0.0,0.0,0.0,0.0,0.0,0.0,0.0,0.0,0.0,0.0,0.0,0.0,0.0,0.0,0.5201,0.0,0.4613,0.4294,0.4052,0.3958,0.0,0.0,0.0,0.0,0.0,0.0,0.0,0.0,0.0,0.0,0.0,0.0,0.0,0.0,0.0,0.0,0.0,0.0,0.0,0.0,0.0,0.0,0.0,0.0,0.0,0.0,0.0,0.0,0.0,0.0,0.0,0.0,0.0,0.0,0.0,0.0,0.0,0.0,0.0,0.0,0.0,0.0,0.0,0.0,0.0,0.0,0.0,0.0,0.0,0.0,0.0,0.0,0.0,0.0,0.0,0.0,0.0,0.0,0.0,0.0,0.0,0.0,0.0,0.0,0.0,0.0,0.0,0.0,0.0,0.0,0.0,0.0,0.0,0.0,0.0,0.0,0.0,0.0,0.0,0.0,0.0,0.0,0.0,0.0,0.0,0.0,0.0,0.0,0.0,0.0,0.0,0.0,0.0,0.0,0.0,0.0,0.0,0.0,0.0,0.0,0.0,0.0,0.0,0.0,0.0,0.0,0.0,0.0,0.0,0.4206,0.3848,0.3411,0.3229,0.307,0.0,0.0,0.0,0.0,0.0,0.0,0.0,0.0,0.0,0.0,0.0,0.0,0.0,0.0,0.0,0.0,0.0,0.0,0.0,0.0,0.0,0.0,0.0,0.0,0.0,0.0,0.0,0.0,0.0,0.0,0.0,0.0,0.0,0.0,0.0,0.0,0.0,0.0,0.0,0.0,0.0,0.0,0.0,0.0,0.0,0.0,0.0,0.0,0.0,0.0,0.0,0.0,0.0,0.0,0.0,0.0,0.0,0.0,0.0,0.0,0.0,0.0,0.0,0.0,0.0,0.0,0.0,0.0,0.0,0.0,0.0,0.0,0.0,0.0,0.0,0.0,0.0,0.0,0.0,0.0,0.0,0.0,0.0,0.0,0.0,0.0,0.0,0.0,0.0,0.0,0.0,0.0,0.0,0.0,0.0,0.0,0.0,0.0,0.0,0.0,0.0,0.0,0.0,0.0,0.0,0.0,0.0,0.0,0.0,0.3491,0.3068,0.2699,0.0,0.2224,0.2088,0.0,0.0,0.0,0.0,0.0,0.0,0.0,0.0,0.0,0.0,0.0,0.0,0.0,0.0,0.0,0.0,0.0,0.0,0.0,0.0,0.0,0.0,0.0,0.0,0.0,0.0,0.0,0.0,0.0,0.0,0.0,0.0,0.0,0.0,0.0,0.0,0.0,0.0,0.0,0.0,0.0,0.0,0.0,0.0,0.0,0.0,0.0,0.0,0.0,0.0,0.0,0.0,0.0,0.0,0.0,0.0,0.0,0.0,0.0,0.0,0.0,0.0,0.0,0.0,0.0,0.0,0.0,0.0,0.0,0.0,0.0,0.0,0.0,0.0,0.0,0.0,0.0,0.0,0.0,0.0,0.0,0.0,0.0,0.0,0.0,0.0,0.0,0.0,0.0,0.0,0.0,0.0,0.0,0.0,0.0,0.0,0.0,0.0,0.0,0.0,0.0,0.0,0.0,0.0,0.0,0.0,0.0,0.0,0.0,0.2451,0.0,0.1648,0.0,0.1296,0.1177,0.0,0.0,0.0,0.0,0.0,0.0,0.0,0.0,0.0,0.0,0.0,0.0,0.0,0.0,0.0,0.0,0.0,0.0,0.0,0.0,0.0,0.0,0.0,0.0,0.0,0.0,0.0,0.0,0.0,0.0,0.0,0.0,0.0,0.0,0.0,0.0,0.0,0.0,0.0,0.0,0.0,0.0,0.0,0.0,0.0,0.0,0.0,0.0,0.0,0.0,0.0,0.0,0.0,0.0,0.0,0.0,0.0,0.0,0.0,0.0,0.0,0.0,0.0,0.0,0.0,0.0,0.0,0.0,0.0,0.0,0.0,0.0,0.0,0.0,0.0,0.0,0.0,0.0,0.0,0.0,0.0,0.0,0.0,0.0,0.0,0.0,0.0,0.0,0.0,0.0,0.0,0.0,0.0,0.0,0.0,0.0,0.0,0.0,0.0,0.0,0.0,0.0,0.0,0.0,0.0,0.0,0.0,0.0,0.1879,0.1304,0.0906,0.067,0.0591,0.0466,0.0364,0.0,0.0,0.0,0.0,0.0,0.0,0.0,0.0,0.0,0.0,0.0,0.0,0.0,0.0,0.0,0.0,0.0,0.0,0.0,0.0,0.0,0.0,0.0,0.0,0.0,0.0,0.0,0.0,0.0,0.0,0.0,0.0,0.0,0.0,0.0,0.0,0.0,0.0,0.0,0.0,0.0,0.0,0.0,0.0,0.0,0.0,0.0,0.0,0.0,0.0,0.0,0.0,0.0,0.0,0.0,0.0,0.0,0.0,0.0,0.0,0.0,0.0,0.0,0.0,0.0,0.0,0.0,0.0,0.0,0.0,0.0,0.0,0.0,0.0,0.0,0.0,0.0,0.0,0.0,0.0,0.0,0.0,0.0,0.0,0.0,0.0,0.0,0.0,0.0,0.0,0.0,0.0,0.0,0.0,0.0,0.0,0.0,0.0,0.0,0.0,0.0,0.0,0.0,0.0,0.0,0.0,0.0,0.0,0.0,0.0464,0.0124,-0.0128,-0.0299,-0.0379,-0.0432,0.0,0.0,0.0,0.0,0.0,0.0,0.0,0.0,0.0,0.0,0.0,0.0,0.0,0.0,0.0,0.0,0.0,0.0,0.0,0.0,0.0,0.0,0.0,0.0,0.0,0.0,0.0,0.0,0.0,0.0,0.0,0.0,0.0,0.0,0.0,0.0,0.0,0.0,0.0,0.0,0.0,0.0,0.0,0.0,0.0,0.0,0.0,0.0,0.0,0.0,0.0,0.0,0.0,0.0,0.0,0.0,0.0,0.0,0.0,0.0,0.0,0.0,0.0,0.0,0.0,0.0,0.0,0.0,0.0,0.0,0.0,0.0,0.0,0.0,0.0,0.0,0.0,0.0,0.0,0.0,0.0,0.0,0.0,0.0,0.0,0.0,0.0,0.0,0.0,0.0,0.0,0.0,0.0,0.0,0.0,0.0,0.0,0.0,0.0,0.0,0.0,0.0,0.0,0.0,0.0,0.0,0.0,0.0,0.0,-0.065,-0.0779,-0.0905,-0.1065,-0.117,-0.1183,-0.1074,0.0,0.0,0.0,0.0,0.0,0.0,0.0,0.0,0.0,0.0,0.0,0.0,0.0,0.0,0.0,0.0,0.0,0.0,0.0,0.0,0.0,0.0,0.0,0.0,0.0,0.0,0.0,0.0,0.0,0.0,0.0,0.0,0.0,0.0,0.0,0.0,0.0,0.0,0.0,0.0,0.0,0.0,0.0,0.0,0.0,0.0,0.0,0.0,0.0,0.0,0.0,0.0,0.0,0.0,0.0,0.0,0.0,0.0,0.0,0.0,0.0,0.0,0.0,0.0,0.0,0.0,0.0,0.0,0.0,0.0,0.0,0.0,0.0,0.0,0.0,0.0,0.0,0.0,0.0,0.0,0.0,0.0,0.0,0.0,0.0,0.0,0.0,0.0,0.0,0.0,0.0,0.0,0.0,0.0,0.0,0.0,0.0,0.0,0.0,0.0,0.0,0.0,0.0,0.0,0.0,0.0,0.0,0.0,-0.1953,-0.179,-0.172,-0.1743,-0.1916,-0.1879,0.0,0.0,0.0,0.0,0.0,0.0,0.0,0.0,0.0,0.0,0.0,0.0,0.0,0.0,0.0,0.0,0.0,0.0,0.0,0.0,0.0,0.0,0.0,0.0,0.0,0.0,0.0,0.0,0.0,0.0,0.0,0.0,0.0,0.0,0.0,0.0,0.0,0.0,0.0,0.0,0.0,0.0,0.0,0.0,0.0,0.0,0.0,0.0,0.0,0.0,0.0,0.0,0.0,0.0,0.0,0.0,0.0,0.0,0.0,0.0,0.0,0.0,0.0,0.0,0.0,0.0,0.0,0.0,0.0,0.0,0.0,0.0,0.0,0.0,0.0,0.0,0.0,0.0,0.0,0.0,0.0,0.0,0.0,0.0,0.0,0.0,0.0,0.0,0.0,0.0,0.0,0.0,0.0,0.0,0.0,0.0,0.0,0.0,0.0,0.0,0.0,0.0,0.0,0.0,0.0,0.0,0.0,0.0,0.0,-0.2763,-0.2934,-0.2832,-0.2451,-0.2393,-0.2268,0.0,0.0,0.0,0.0,0.0,0.0,0.0,0.0,0.0,0.0,0.0,0.0,0.0,0.0,0.0,0.0,0.0,0.0,0.0,0.0,0.0,0.0,0.0,0.0,0.0,0.0,0.0,0.0,0.0,0.0,0.0,0.0,0.0,0.0,0.0,0.0,0.0,0.0,0.0,0.0,0.0,0.0,0.0,0.0,0.0,0.0,0.0,0.0,0.0,0.0,0.0,0.0,0.0,0.0,0.0,0.0,0.0,0.0,0.0,0.0,0.0,0.0,0.0,0.0,0.0,0.0,0.0,0.0,0.0,0.0,0.0,0.0,0.0,0.0,0.0,0.0,0.0,0.0,0.0,0.0,0.0,0.0,0.0,0.0,0.0,0.0,0.0,0.0,0.0,0.0,0.0,0.0,0.0,0.0,0.0,0.0,0.0,0.0,0.0,0.0,0.0,0.0,0.0,0.0,0.0,0.0,0.0,0.0,-0.2881,-0.3444,-0.3686,-0.3648,-0.3324,-0.3059,-0.2732,0.0,0.0,0.0,0.0,0.0,0.0,0.0,0.0,0.0,0.0,0.0,0.0,0.0,0.0,0.0,0.0,0.0,0.0,0.0,0.0,0.0,0.0,0.0,0.0,0.0,0.0,0.0,0.0,0.0,0.0,0.0,0.0,0.0,0.0,0.0,0.0,0.0,0.0,0.0,0.0,0.0,0.0,0.0,0.0,0.0,0.0,0.0,0.0,0.0,0.0,0.0,0.0,0.0,0.0,0.0,0.0,0.0,0.0,0.0,0.0,0.0,0.0,0.0,0.0,0.0,0.0,0.0,0.0,0.0,0.0,0.0,0.0,0.0,0.0,0.0,0.0,0.0,0.0,0.0,0.0,0.0,0.0,0.0,0.0,0.0,0.0,0.0,0.0,0.0,0.0,0.0,0.0,0.0,0.0,0.0,0.0,0.0,0.0,0.0,0.0,0.0,0.0,0.0,0.0,0.0,0.0,0.0,0.0,-0.3471,-0.4061,-0.427,-0.4349,-0.4275,-0.38,-0.3213,0.0,0.0,0.0,0.0,0.0,0.0,0.0,0.0,0.0,0.0,0.0,0.0,0.0,0.0,0.0,0.0,0.0,0.0,0.0,0.0,0.0,0.0,0.0,0.0,0.0,0.0,0.0,0.0,0.0,0.0,0.0,0.0,0.0,0.0,0.0,0.0,0.0,0.0,0.0,0.0,0.0,0.0,0.0,0.0,0.0,0.0,0.0,0.0,0.0,0.0,0.0,0.0,0.0,0.0,0.0,0.0,0.0,0.0,0.0,0.0,0.0,0.0,0.0,0.0,0.0,0.0,0.0,0.0,0.0,0.0,0.0,0.0,0.0,0.0,0.0,0.0,0.0,0.0,0.0,0.0,0.0,0.0,0.0,0.0,0.0,0.0,0.0,0.0,0.0,0.0,0.0,0.0,0.0,0.0,0.0,0.0,0.0,0.0,0.0,0.0,0.0,0.0,0.0,0.0,0.0,0.0,0.0,0.0,-0.4647,-0.5141,-0.5304,-0.5215,-0.493,-0.4038,-0.3305,0.0,0.0,0.0,0.0,0.0,0.0,0.0,0.0,0.0,0.0,0.0,0.0,0.0,0.0,0.0,0.0,0.0,0.0,0.0,0.0,0.0,0.0,0.0,0.0,0.0,0.0,0.0,0.0,0.0,0.0,0.0,0.0,0.0,0.0,0.0,0.0,0.0,0.0,0.0,0.0,0.0,0.0,0.0,0.0,0.0,0.0,0.0,0.0,0.8578,0.0,0.0,0.0,0.0,0.0,0.0,0.0,0.0,0.0,0.0,0.0,0.0,0.0,0.0,0.0,0.0,0.0,0.0,0.0,0.0,0.0,0.0,0.0,0.0,0.0,0.0,0.0,0.0,0.0,0.0,0.0,0.0,0.0,0.0,0.0,0.0,0.0,0.0,0.0,0.0,0.0,0.0,0.0,0.0,0.0,0.0,0.0,0.0,0.0,0.0,0.0,0.0,0.0,0.0,0.0,0.0,0.0,0.0,0.0,-0.5307,-0.5815,-0.6032,-0.5858,-0.5305,-0.4445,-0.3647,0.0,0.0,0.0,0.0,0.0,0.0,0.0,0.0,0.0,0.0,0.0,0.0,0.0,0.0,0.0,0.0,0.0,0.0,0.0,0.0,0.0,0.0,0.0,0.0,0.0,0.0,0.0,0.0,0.0,0.0,0.0,0.0,0.0,0.0,0.0,0.0,0.0,0.0,0.0,0.0,0.0,0.0,0.0,0.0,0.0,0.0,0.0,0.0,0.0,0.0,0.0,0.0,0.0,0.0,0.0,0.0,0.0,0.0,0.0,0.0,0.0,0.0,0.0,0.0,0.0,0.0,0.0,0.0,0.0,0.0,0.0,0.0,0.0,0.0,0.0,0.0,0.0,0.0,0.0,0.0,0.0,0.0,0.0,0.0,0.0,0.0,0.0,0.0,0.0,0.0,0.0,0.0,0.0,0.0,0.0,0.0,0.0,0.0,0.0,0.0,0.0,0.0,0.0,0.0,0.0,0.0,0.0,-0.5031,-0.5848,-0.6332,-0.661,-0.6375,-0.5604,-0.4851,-0.4086,-0.3273,0.0,0.0,0.0,0.0,0.0,0.0,0.0,0.0,0.0,0.0,0.0,0.0,0.0,0.0,0.0,0.0,0.0,0.0,0.0,0.0,0.0,0.0,0.0,0.0,0.0,0.0,0.0,0.0,0.0,0.0,0.0,0.0,0.0,0.0,0.0,0.0,0.0,0.0,0.6914,0.8516,0.0,0.0,0.0,0.0,0.0,0.0,0.0,0.0,0.8419,0.0,0.0,0.0,0.0,0.0,0.0,0.0,0.0,0.0,0.0,0.0,0.0,0.0,0.0,0.0,0.0,0.0,0.0,0.0,0.0,0.0,0.0,0.0,0.0,0.0,0.0,0.0,0.0,0.0,0.0,0.0,0.0,0.0,0.0,0.0,0.0,0.0,0.0,0.0,0.0,0.0,0.0,0.0,0.0,0.0,0.0,0.0,0.0,0.0,0.0,0.0,0.0,0.0,0.0,0.0,0.0,-0.4623,-0.579,-0.6592,-0.6949,-0.7221,-0.6919,-0.6044,-0.517,-0.4329,-0.3484,0.0,0.0,0.0,0.0,0.0,0.0,0.0,0.0,0.0,0.0,0.0,0.0,0.0,0.0,0.0,0.0,0.0,0.0,0.0,0.0,0.0,0.0,0.0,0.0,0.0,0.0,0.0,0.0,0.0,0.0,0.0,0.0,0.0,0.0,0.0,0.0,0.0,0.0,0.0,0.901,0.9291,0.0,0.0,0.0,0.0,0.0,0.0,0.0,0.0,0.8866,0.0,0.0,0.0,0.0,0.0,0.0,0.0,0.0,0.0,0.0,0.0,0.0,0.0,0.0,0.0,0.0,0.0,0.0,0.0,0.0,0.0,0.0,0.0,0.0,0.0,0.0,0.0,0.0,0.0,0.0,0.0,0.0,0.0,0.0,0.0,0.0,0.0,0.0,0.0,0.0,0.0,0.0,0.0,0.0,0.0,0.0,0.0,0.0,0.0,0.0,0.0,0.0,0.0,0.0,0.0,-0.5152,-0.6226,-0.6969,-0.7397,-0.7697,-0.7353,-0.6336,-0.5528,-0.4612,0.0,0.0,0.0,0.0,0.0,0.0,0.0,0.0,0.0,0.0,0.0,0.0,0.0,0.0,0.0,0.0,0.0,0.0,0.0,0.0,0.0,0.0,0.0,0.0,0.0,0.0,0.0,0.0,0.0,0.0,0.0,0.0,0.0,0.0,0.0,0.0,0.0,0.0,0.0,0.0,0.9729,0.9971,1.0228,0.0,0.0,0.0,0.0,0.0,0.0,0.8455,0.8487,0.0,0.0,0.0,0.0,0.0,0.0,0.0,0.0,0.0,0.0,0.0,0.0,0.0,0.0,0.0,0.0,0.0,0.0,0.0,0.0,0.0,0.0,0.0,0.0,0.0,0.0,0.0,0.0,0.0,0.0,0.0,0.0,0.0,0.0,0.0,0.0,0.0,0.0,0.0,0.0,0.0,0.0,0.0,0.0,0.0,0.0,0.0,0.0,0.0,0.0,0.0,0.0,0.0,0.0,0.0,-0.5557,-0.6514,-0.724,-0.7737,-0.8056,-0.7689,-0.6579,-0.5821,-0.4857,0.0,0.0,0.0,0.0,0.0,0.0,0.0,0.0,0.0,0.0,0.0,0.0,0.0,0.0,0.0,0.0,0.0,0.0,0.0,0.0,0.0,0.0,0.0,0.0,0.0,0.0,0.0,0.0,0.0,0.0,0.0,0.0,0.0,0.0,0.0,0.0,0.0,0.0,0.0,0.0,0.0,1.0503,1.0614,1.0714,0.0,0.0,0.0,0.0,0.7837,0.7842,0.0,0.0,0.0,0.0,0.0,0.0,0.0,0.0,0.0,0.0,0.0,0.0,0.0,0.0,0.0,0.0,0.0,0.0,0.0,0.0,0.0,0.0,0.0,0.0,0.0,0.0,0.0,0.0,0.0,0.0,0.0,0.0,0.0,0.0,0.0,0.0,0.0,0.0,0.0,0.0,0.0,0.0,0.0,0.0,0.0,0.0,0.0,0.0,0.0,0.0,0.0,0.0,0.0,0.0,0.0,0.0,-0.577,-0.6803,-0.7497,-0.7868,-0.8216,-0.7844,-0.6797,-0.5934,-0.5025,0.0,0.0,0.0,0.0,0.0,0.0,0.0,0.0,0.0,0.0,0.0,0.0,0.0,0.0,0.0,0.0,0.0,0.0,0.0,0.0,0.0,0.0,0.0,0.0,0.0,0.0,0.0,0.0,0.0,0.0,0.0,0.0,0.0,0.0,0.0,0.0,0.0,0.0,0.0,0.0,0.0,0.9794,0.9985,0.9977,0.9851,0.0,0.0,0.851,0.8323,0.7894,0.0,0.0,0.0,0.0,0.0,0.0,0.0,0.0,0.0,0.0,0.0,0.0,0.0,0.0,0.0,0.0,0.0,0.0,0.0,0.0,0.0,0.0,0.0,0.0,0.0,0.0,0.0,0.0,0.0,0.0,0.0,0.0,0.0,0.0,0.0,0.0,0.0,0.0,0.0,0.0,0.0,0.0,0.0,0.0,0.0,0.0,0.0,0.0,0.0,0.0,0.0,0.0,0.0,0.0,0.0,-0.5027,-0.6165,-0.6992,-0.7606,-0.8011,-0.8421,-0.8107,-0.7068,-0.627,-0.539,0.0,0.0,0.0,0.0,0.0,0.0,0.0,0.0,0.0,0.0,0.0,0.0,0.0,0.0,0.0,0.0,0.0,0.0,0.0,0.0,0.0,0.0,0.0,0.0,0.0,0.0,0.0,0.0,0.0,0.0,0.0,0.0,0.0,0.0,0.0,0.0,0.0,0.0,0.0,0.0,0.0,0.0,0.9129,0.8982,0.0,0.0,0.0,0.7213,0.6712,0.0,0.0,0.0,0.0,0.0,0.0,0.0,0.0,0.0,0.0,0.0,0.0,0.0,0.0,0.0,0.0,0.0,0.0,0.0,0.0,0.0,0.0,0.0,0.0,0.0,0.0,0.0,0.0,0.0,0.0,0.0,0.0,0.0,0.0,0.0,0.0,0.0,0.0,0.0,0.0,0.0,0.0,0.0,0.0,0.0,0.0,0.0,0.0,0.0,0.0,0.0,0.0,0.0,0.0,0.0,0.0,0.0,-0.6549,-0.7223,-0.778,-0.8217,-0.8675,-0.8389,-0.7362,-0.6648,0.0,0.0,0.0,0.0,0.0,0.0,0.0,0.0,0.0,0.0,0.0,0.0,0.0,0.0,0.0,0.0,0.0,0.0,0.0,0.0,0.0,0.0,0.0,0.0,0.0,0.0,0.0,0.1602,0.0,0.0,0.0,0.0,0.0,0.0,0.0,0.0,0.0,0.0,0.0,0.0,0.0,0.0,0.8552,0.8068,0.7798,0.7375,0.0,0.0,0.5588,0.4977,0.5004,0.506,0.0,0.0,0.0,0.0,0.0,0.0,0.0,0.0,0.0,0.0,0.0,0.0,0.0,0.0,0.0,0.0,0.0,0.0,0.0,0.0,0.0,0.0,0.0,0.0,0.0,0.0,0.0,0.0,0.0,0.0,0.0,0.0,0.0,0.0,0.0,0.0,0.0,0.0,0.0,0.0,0.0,0.0,0.0,0.0,0.0,0.0,0.0,0.0,0.0,0.0,0.0,0.0,0.0,0.0,0.0,-0.676,-0.7566,-0.8163,-0.8569,-0.8947,-0.874,-0.7793,-0.6908,-0.6054,0.0,0.0,0.0,0.0,0.0,0.0,0.0,0.0,0.0,0.0,0.0,0.0,0.0,0.0,0.0,0.0,0.0,0.0,0.0,0.0,0.0,0.0,0.0,0.0,0.0,0.0,0.0,0.0,0.0,0.0,0.0,0.0,0.0,0.0,0.0,0.0,0.0,0.0,0.0,0.0,0.0,0.7006,0.6698,0.6364,0.5992,0.0,0.0,0.387,0.3806,0.3245,0.3021,0.3541,0.0,0.0,0.0,0.0,0.0,0.0,0.0,0.0,0.0,0.0,0.0,0.0,0.0,0.0,0.0,0.0,0.0,0.0,0.0,0.0,0.0,0.0,0.0,0.0,0.0,0.0,0.0,0.0,0.0,0.0,0.0,0.0,0.0,0.0,0.0,0.0,0.0,0.0,0.0,0.0,0.0,0.0,0.0,0.0,0.0,0.0,0.0,0.0,0.0,0.0,0.0,0.0,0.0,-0.5642,-0.7039,-0.7665,-0.8241,-0.8726,-0.9116,-0.8957,-0.819,-0.7321,-0.6495,0.0,0.0,0.0,0.0,0.0,0.0,0.0,0.0,0.0,0.0,0.0,0.0,0.0,0.0,0.0,0.0,0.0,0.0,0.0,0.0,0.0,0.0,0.0,0.0,0.0,0.0,0.0,0.0,0.1625,0.1945,0.2217,0.0,0.0,0.0,0.0,0.0,0.0,0.0,0.0,0.0,0.0,0.4985,0.471,0.4221,0.0,0.0,0.2711,0.2145,0.2042,0.1712,0.1581,0.1855,0.1984,0.0,0.0,0.0,0.0,0.0,0.0,0.0,0.0,0.0,0.0,0.0,0.0,0.0,0.0,0.0,0.0,0.0,0.0,0.0,0.0,0.0,0.0,0.0,0.0,0.0,0.0,0.0,0.0,0.0,0.0,0.0,0.0,0.0,0.0,0.0,0.0,0.0,0.0,0.0,0.0,0.0,0.0,0.0,0.0,0.0,0.0,0.0,0.0,0.0,0.0,0.0,0.0,-0.6127,-0.7478,-0.8079,-0.8654,-0.9173,-0.9444,-0.9263,-0.86,-0.7775,-0.696,0.0,0.0,0.0,0.0,0.0,0.0,0.0,0.0,0.0,0.0,0.0,0.0,0.0,0.0,0.0,0.0,0.0,0.0,0.0,0.0,0.0,0.0,0.0,0.0,0.0,0.0,0.0,0.0,0.1104,0.1368,0.1673,0.0,0.0,0.0,0.0,0.0,0.0,0.0,0.0,0.0,0.0,0.285,0.2531,0.2036,0.1623,0.1316,0.0765,0.0316,0.0198,0.0075,0.0049,0.0176,0.0,0.0,0.0,0.0,0.0,0.0,0.0,0.0,0.0,0.0,0.0,0.0,0.0,0.0,0.0,0.0,0.0,0.0,0.0,0.0,0.0,0.0,0.0,0.0,0.0,0.0,0.0,0.0,0.0,0.0,-0.373,0.0,0.0,0.0,0.0,0.0,0.0,0.0,0.0,0.0,0.0,0.0,0.0,0.0,0.0,0.0,0.0,0.0,0.0,0.0,0.0,0.0,0.0,-0.7016,-0.8163,-0.8882,-0.953,-1.0027,-1.0019,-0.9687,-0.9019,-0.8208,-0.7468,-0.6774,0.0,0.0,0.0,0.0,0.0,0.0,0.0,0.0,0.0,0.0,0.0,0.0,0.0,0.0,0.0,0.0,0.0,0.0,0.0,0.0,0.0,0.0,0.0,0.0,0.0,0.0,0.0302,0.0495,0.0668,0.0,0.0,0.0,0.0,0.0,0.0,0.0,0.0,0.0,0.0,0.1231,0.0699,0.0234,-0.0135,-0.0443,-0.0778,-0.1226,-0.1599,-0.1702,-0.1748,-0.1686,0.0,0.0,0.0,0.0,0.0,0.0,0.0,0.0,0.0,0.0,0.0,0.0,0.0,0.0,0.0,0.0,0.0,0.0,0.0,0.0,0.0,0.0,0.0,0.0,0.0,0.0,0.0,-0.5011,-0.4996,0.0,0.0,0.0,0.0,0.0,0.0,0.0,0.0,0.0,0.0,0.0,-0.7291,-0.7694,0.0,0.0,0.0,0.0,0.0,0.0,0.0,0.0,0.0,0.0,0.0,0.0,-0.7312,-0.8492,-0.9187,-0.9776,-1.0333,-1.0314,-1.0041,-0.9555,-0.8738,-0.7842,-0.6745,0.0,0.0,0.0,0.0,0.0,0.0,0.0,0.0,0.0,0.0,0.0,0.0,0.0,0.0,0.0,0.0,0.0,0.0,0.0,0.0,0.0,0.0,0.0,0.0,0.0,-0.0331,0.0,0.0,0.0,0.0,0.0,0.0,0.0,0.0,0.0,0.0,0.0,0.0125,-0.0296,-0.0926,-0.1472,-0.1843,-0.2069,-0.2225,0.0,0.0,0.0,0.0,0.0,0.0,0.0,0.0,0.0,0.0,0.0,0.0,0.0,0.0,-0.2458,-0.0993,-0.0342,0.0059,0.0332,0.0,0.0,0.0,0.0,0.0,0.0,0.0,0.0,0.0,0.0,0.0,0.0,0.0,0.0,-0.6464,0.0,-0.5989,0.0,0.0,0.0,0.0,0.0,0.0,0.0,0.0,-0.8107,-0.8692,-0.8994,-0.9471,-0.9453,0.0,-0.9005,-0.8119,0.0,0.0,0.0,0.0,0.0,0.0,0.0,0.0,-0.798,-0.9289,-0.9789,-1.0355,-1.0954,-1.0814,-1.049,-0.9994,-0.9188,-0.8156,-0.6906,-0.6044,-0.5255,0.0,0.0,0.0,0.0,0.0,0.0,0.0,0.0,0.0,0.0,0.0,0.0,0.0,0.0,0.0,0.0,0.0,0.0,0.0,0.0,0.0,0.0,0.0,-0.0908,0.0,0.0,0.0,0.0,0.0,0.0,0.0,0.0,0.0,-0.0776,-0.1091,-0.1659,-0.236,-0.2891,-0.3366,-0.3759,0.0,0.0,0.0,0.0,0.0,0.0,0.0,-0.5001,-0.5272,-0.5499,-0.5744,-0.5977,-0.6379,-0.6645,-0.667,0.0,0.0,-0.3757,-0.2989,-0.2618,-0.2285,-0.2089,-0.1886,-0.1647,-0.157,-0.1474,0.0,0.0,0.0,0.0,0.0,0.0,0.0,0.0,-0.8591,-0.8533,0.0,-0.7794,0.0,0.0,0.0,0.0,0.0,-0.8117,0.0,0.0,-0.9858,-1.043,-1.0552,-1.1076,-1.1016,-1.0505,-1.0433,-0.9936,-0.9022,-0.7595,0.0,0.0,0.0,0.0,0.0,0.0,-0.905,-1.0433,-1.0773,-1.1246,-1.1857,-1.1528,-1.1015,-1.0413,-0.949,-0.8462,-0.7326,-0.6902,-0.6243,-0.528,-0.4535,0.0,0.0,0.0,0.0,0.0,0.0,0.0,0.0,0.0,0.0,0.0,0.0,0.0,0.0,0.0,0.0,0.0,0.0,0.0,0.0,-0.1583,0.0,0.0,0.0,0.0,0.0,0.0,0.0,0.0,0.0,0.0,-0.2738,-0.2951,-0.35,-0.4345,0.0,0.0,0.0,0.0,-0.5645,-0.585,-0.6,-0.6191,-0.6463,-0.6518,-0.6805,-0.7564,0.0,0.0,-0.886,-0.9368,-0.9617,-0.9638,-0.9687,-0.8916,-0.5988,-0.5272,-0.4992,-0.4626,-0.4391,-0.4199,-0.3965,-0.3755,-0.3606,-1.1372,0.0,0.0,0.0,0.0,-1.0342,-1.048,-1.0503,-1.0246,-1.0056,-0.9906,-0.9312,0.0,0.0,0.0,0.0,0.0,0.0,-1.0194,-1.0637,-1.1714,-1.2447,-1.2836,-1.3427,-1.3277,-1.2484,-1.2388,-1.1865,-1.0911,-1.0146,-0.9103,-0.7883,0.0,0.0,0.0,0.0,-0.9844,-1.0575,-1.1271,-1.179,-1.219,-1.1877,-1.1318,-1.0429,-0.969,-0.9038,-0.8476,-0.7578,-0.6807,-0.6289,-0.5386,0.0,0.0,0.0,0.0,0.0,0.0,0.0,0.0,0.0,0.0,0.0,0.0,0.0,0.0,0.0,0.0,0.0,0.0,0.0,-0.2132,-0.2148,-0.2213,0.0,0.0,0.0,0.0,0.0,0.0,0.0,0.0,0.0,-0.5976,-0.5444,-0.5224,0.0,0.0,-0.6524,-0.7001,-0.7141,-0.7339,-0.7656,-0.8046,0.0,0.0,-0.8901,-0.9349,-0.9799,-1.0342,-1.0829,-1.1138,-1.1296,-1.134,-1.1201,-1.1127,-1.0692,-0.9656,-0.8259,-0.7189,-0.6593,-0.6377,-0.6263,-0.6016,-0.5841,-0.5685,-1.4354,-1.3298,-1.2178,-1.1756,-1.1888,-1.208,-1.2143,-1.2085,-1.192,-1.1752,-1.1601,-1.1145,-1.0906,-1.0804,-1.0912,0.0,0.0,0.0,-1.2103,-1.2576,-1.3488,-1.4179,-1.4639,-1.5007,-1.4866,-1.4335,-1.4183,-1.3686,-1.2843,-1.2317,-1.1453,-1.0244,0.0,0.0,-0.9497,-1.003,-1.0614,-1.1219,-1.1759,-1.2158,-1.2437,-1.2101,-1.151,-1.0786,-1.0273,-0.9776,-0.9244,-0.8374,-0.7603,-0.7037,-0.6025,-0.5199,0.0,0.0,0.0,0.0,0.0,0.0,0.0,0.0,0.0,0.0,0.0,-0.1792,0.0,0.0,0.0,0.0,-0.2455,-0.2686,-0.2962,-0.2982,0.0,0.0,0.0,0.0,0.0,0.0,0.0,-0.595,-0.6721,-0.7474,-0.8123,-0.7734,-0.7367,-0.7355,-0.7563,-0.7855,-0.8269,0.0,-0.8686,-0.9124,-0.9575,-0.9971,-1.0222,-1.0693,-1.1192,-1.1788,-1.2392,-1.28,-1.2912,-1.2912,-1.2854,-1.2625,-1.2423,-1.213,-1.1639,-1.0533,-0.9405,-0.8582,-0.8364,-0.8224,-0.7922,-0.7802,-0.7683,-1.686,-1.6933,-1.4575,-1.3583,-1.3509,-1.348,-1.3408,-1.3323,-1.3599,-1.3523,-1.3183,-1.3136,-1.2969,-1.2674,-1.2861,0.0,-1.315,-1.3696,-1.4114,-1.4478,-1.5126,-1.5638,-1.6071,-1.6078,-1.6045,-1.6041,-1.5766,-1.5335,-1.4719,-1.4149,-1.3632,-1.308,-1.1426,-1.0674,-1.0884,-1.0911,-1.1361,-1.2161,-1.2242,-1.24,-1.2691,-1.22,-1.1753,-1.1352,-1.1065,-1.0555,-0.9709,-0.9211,-0.8513,-0.7595,-0.6542,-0.5755,-0.5272,0.0,0.0,0.0,0.0,0.0,0.0,0.0,0.0,0.0,0.0,0.0,0.0,0.0,0.0,0.0,-0.3048,0.0,-0.398,-0.4045,0.0,0.0,0.0,-0.5312,-0.5603,-0.6396,-0.7074,-0.7605,0.0,0.0,-0.9382,-0.9719,-0.9704,-0.9101,-0.8941,-0.9017,-0.9353,-0.9555,-0.9814,-1.0284,-1.0775,-1.1246,-1.1708,-1.2132,-1.2666,-1.3436,-1.4006,-1.4246,-1.4255,-1.4204,-1.4142,-1.3897,-1.3571,-1.3129,-1.2508,-1.2035,-1.1552,-1.0538,-1.0149,-0.9913,-0.9484,-0.9369,-0.9202,-1.8161,-1.8289,-1.7396,-1.6749,-1.6287,-1.5948,-1.5779,-1.57,-1.5153,-1.4845,-1.4725,-1.437,-1.4162,-1.4114,-1.427,-1.4357,-1.4393,-1.4857,-1.5394,-1.5923,-1.6396,-1.6934,-1.7565,-1.7573,-1.7433,-1.7186,-1.6915,-1.6487,-1.5892,-1.5645,-1.5361,-1.4996,-1.414,-1.2998,-1.1606,-1.1871,-1.207,-1.2203,-1.2559,-1.2725,-1.27,-1.248,-1.215,-1.1778,-1.1494,-1.0964,-1.0181,-0.9549,-0.889,-0.8186,-0.7064,-0.624,-0.5836,-0.5184,0.0,0.0,0.0,0.0,0.0,0.0,0.0,0.0,0.0,-0.3036,-0.356,0.0,-0.3836,0.0,-0.3999,-0.4448,-0.5139,-0.5192,0.0,0.0,-0.6424,-0.6806,-0.6943,-0.784,-0.8581,-0.8914,-0.9586,-1.0141,-1.0478,-1.0779,-1.0958,-1.0927,-1.0306,-1.0003,-1.0393,-1.0705,-1.105,-1.1586,-1.2139,-1.268,-1.3216,-1.3873,-1.4406,-1.4742,-1.4953,-1.5118,-1.5128,-1.4961,-1.4725,-1.4508,-1.4031,-1.3597,-1.3271,-1.2758,-1.2378,-1.2018,-1.1211,-1.0301,-0.9904,-0.9737,-0.9563,-1.9052,-1.9121,-1.8915,-1.8622,-1.8268,-1.7462,-1.7144,-1.7103,-1.6622,-1.6294,-1.6079,-1.5573,-1.5396,-1.5505,-1.557,-1.5669,-1.5794,-1.6219,-1.6628,-1.7086,-1.75,-1.7985,-1.8483,-1.8506,-1.8434,-1.8296,-1.8046,-1.7696,-1.7315,-1.6945,-1.6627,-1.6358,-1.5777,-1.4704,-1.3265,-1.2975,-1.2772,-1.2614,-1.2778,-1.2847,-1.2783,-1.2652,-1.248,-1.2184,-1.1902,-1.1418,-1.0696,-0.9971,-0.93,-0.8643,-0.7616,-0.6907,-0.6586,-0.6014,-0.5457,0.0,0.0,0.0,0.0,0.0,0.0,0.0,0.0,0.0,0.0,0.0,-0.5124,-0.5328,-0.5452,-0.5776,-0.6433,-0.6572,-0.6829,-0.7319,-0.7902,-0.8281,-0.8463,-0.9294,-0.9907,-1.0057,-1.0625,-1.1164,-1.1463,-1.1788,-1.2118,-1.2349,-1.2022,-1.1646,-1.1464,-1.1725,-1.2208,-1.2821,-1.3453,-1.4087,-1.4763,-1.5357,-1.5773,-1.5854,-1.579,-1.5693,-1.5575,-1.5262,-1.4941,-1.4715,-1.43,-1.3911,-1.367,-1.3307,-1.295,-1.2573,-1.2009,-1.1346,-1.075,-1.0518,-1.0308,-1.98,-1.9789,-1.9736,-1.9714,-1.9683,-1.8607,-1.8113,-1.7988,-1.7925,-1.7705,-1.7296,-1.6821,-1.6702,-1.6863,-1.6902,-1.6992,-1.7192,-1.7501,-1.78,-1.8045,-1.8441,-1.8801,-1.9066,-1.9078,-1.9119,-1.9239,-1.8999,-1.8813,-1.8655,-1.809,-1.7685,-1.7427,-1.6792,-1.6112,-1.5332,-1.4296,-1.3542,-1.3099,-1.2978,-1.292,-1.2915,-1.2774,-1.2652,-1.2529,-1.2308,-1.1841,-1.1143,-1.0441,-0.9726,-0.895,-0.8118,-0.759,-0.7377,-0.684,-0.6446,0.0,-0.5937,0.0,0.0,0.0,0.0,0.0,0.0,0.0,0.0,-0.6104,-0.664,-0.7097,-0.7095,-0.7266,-0.7822,-0.8068,-0.8396,-0.8891,-0.9391,-0.9756,-1.0012,-1.0649,-1.1097,-1.1194,-1.1659,-1.2091,-1.2457,-1.2792,-1.3144,-1.3423,-1.3554,-1.3347,-1.2672,-1.283,-1.3252,-1.3907,-1.4597,-1.5226,-1.5925,-1.6417,-1.6626,-1.6629,-1.6396,-1.6132,-1.5948,-1.549,-1.5056,-1.4859,-1.4524,-1.416,-1.392,-1.367,-1.3329,-1.2858,-1.2612,-1.2289,-1.1695,-1.1377,-1.1185,-2.0708,-2.0797,-2.0402,-2.0335,-2.0453,-2.0243,-1.9701,-1.8932,-1.8689,-1.8575,-1.8488,-1.839,-1.8357,-1.8376,-1.8484,-1.8401,-1.8157,-1.8482,-1.864,-1.8625,-1.8839,-1.9119,-1.9474,-1.9368,-1.942,-1.9512,-1.9356,-1.9225,-1.9107,-1.8972,-1.8792,-1.8634,-1.789,-1.7406,-1.7148,0.0,0.0,0.0,-1.3061,-1.3002,-1.2915,-1.2881,-1.2774,-1.2652,-1.2603,0.0,-1.1166,-1.0745,-1.007,-0.9038,-0.8409,0.0,0.0,0.0,0.0,0.0,0.0,0.0,0.0,0.0,0.0,0.0,-0.8686,-0.8334,-0.7415,-0.7613,-0.7942,-0.8247,-0.8349,-0.8655,-0.9242,-0.9565,-0.9913,-1.0291,-1.0733,-1.1093,-1.1256,-1.173,-1.2182,-1.2641,-1.2798,-1.306,-1.3491,-1.3662,-1.3793,-1.4057,-1.423,-1.4304,-1.4243,-1.4031,-1.404,-1.4334,-1.5222,-1.5877,-1.616,-1.6536,-1.6775,-1.6677,-1.6658,-1.658,-1.6488,-1.6035,-1.5594,-1.5423,-1.4879,-1.4378,-1.4246,-1.383,-1.3489,-1.3338,-1.295,-1.2406,-1.1747,-1.1591,-1.1435,-2.1823,0.0,-2.1339,-2.1201,0.0,-2.1133,-2.0744,-2.0275,-1.9894,-1.966,-1.9476,-1.9321,-1.9239,-1.9239,-1.9317,-1.927,-1.9154,-1.9408,-1.9465,-1.9287,-1.9492,-1.9613,-1.9591,-1.9617,-1.963,-1.9682,-1.963,-1.9539,-1.9396,-1.9408,-1.933,-1.9198,-1.871,-1.8303,-1.7873,-1.6774,-1.5415,-1.385,-1.3466,-1.3162,-1.3012,-1.3002,-1.2929,-1.2808,0.0,0.0,0.0,0.0,0.0,0.0,0.0,0.0,0.0,0.0,0.0,-0.9177,-0.9136,-0.9174,-0.9376,-0.9393,-0.951,-0.973,-1.023,-1.0094,-0.8971,-0.9207,-0.9508,-0.9613,-0.9962,-1.0303,-1.0616,-1.0928,-1.1205,-1.1389,-1.1816,-1.2201,-1.2458,-1.2757,-1.3131,-1.355,-1.3753,-1.3974,-1.4379,-1.4589,-1.4807,-1.5078,-1.5283,-1.5392,-1.5426,-1.5102,-1.4991,-1.556,-1.6276,-1.685,-1.6939,-1.7147,-1.7321,-1.7311,-1.7187,-1.707,-1.7051,-1.6522,-1.6107,-1.5995,-1.5222,-1.4541,-1.4626,-1.4306,-1.39,-1.3584,-1.3268,-1.2881,-1.232,-1.2019,-1.1755,-2.2936,-2.2889,-2.237,-2.2163,-2.2116,-2.1748,-2.1544,-2.1431,0.0,0.0,0.0,-2.0192,-2.0067,-2.0067,-2.0067,-2.0098,-2.0182,-2.0323,-2.027,-2.0064,-2.0284,-2.0229,-1.9967,-1.9947,-1.9962,-1.9949,-1.9849,-1.9759,-1.9642,-1.963,-1.9591,-1.9473,-1.9317,-1.8927,-1.8209,-1.6999,-1.5927,-1.506,-1.4077,-1.3415,-1.3123,-1.3113,-1.3065,-1.2968,-1.2832,-1.257,-1.218,-1.192,-1.1523,-1.0995,-1.0897,-1.0821,-1.0705,-1.0682,-1.0605,-1.0443,-1.0308,-1.0257,-1.0311,-1.0298,-1.0432,-1.08,-1.1338,-1.1312,-1.0403,-1.0731,-1.0957,-1.0957,-1.1472,-1.1797,-1.1825,-1.212,-1.2384,-1.2449,-1.2797,-1.3192,-1.3611,-1.3783,-1.4005,-1.4387,-1.462,-1.4864,-1.5189,-1.5446,-1.5755,-1.607,-1.621,-1.6456,-1.6446,-1.6075,-1.6011,-1.6762,-1.726,-1.7634,-1.7696,-1.7813,-1.8008,-1.792,-1.7686,-1.751,-1.7432,-1.7041,-1.6683,-1.659,-1.5647,-1.5174,-1.5177,-1.4948,-1.4506,-1.3891,-1.3683,-1.3518,-1.3025,-1.2597,-1.2212,-2.3826,-2.3791,-2.3298,-2.3087,-2.3052,-2.2568,-2.2078,-2.1667,-2.1572,-2.1537,-2.1487,-2.1448,-2.1413,-2.1424,-2.1413,-2.1351,-2.1194,-2.1236,-2.117,-2.1085,-2.1129,-2.1176,-2.1202,-2.0792,-2.0578,-2.0528,-2.0049,-1.9785,-1.9773,-1.9785,-1.9747,-1.9734,-1.9604,-1.9307,-1.8816,-1.7873,-1.7209,-1.6818,-1.5081,-1.3867,-1.3214,-1.318,-1.317,-1.3156,-1.3089,-1.2833,-1.2378,-1.2161,-1.1797,-1.1293,-1.1101,-1.1044,-1.1034,-1.1031,-1.1197,-1.161,-1.1523,-1.1579,-1.1937,-1.1853,-1.1969,-1.2319,-1.2362,-1.2164,-1.1757,-1.1879,-1.1988,-1.2005,-1.2374,-1.2642,-1.2659,-1.305,-1.3432,-1.3721,-1.3868,-1.4139,-1.4675,-1.4777,-1.4965,-1.544,-1.561,-1.5717,-1.6008,-1.6131,-1.6201,-1.6324,-1.663,-1.6908,-1.7141,-1.6966,-1.6913,-1.7304,-1.7554,-1.7681,-1.774,-1.7852,-1.7974,-1.8008,-1.7949,-1.7871,-1.7861,-1.7525,-1.7206,-1.7046,-1.6615,-1.6281,-1.5995,-1.5702,-1.5292,-1.4787,-1.4466,-1.41,-1.3566,-1.3238,-1.2903,-2.5033,-2.4972,-2.4478,-2.4261,-2.4213,-2.3706,-2.3333,-2.3091,-2.2802,-2.2399,-2.2023,-2.2166,-2.2259,-2.2259,-2.2259,-2.2188,-2.2098,-2.211,-2.1984,-2.1741,-2.1716,-2.164,-2.1481,-2.1257,-2.1131,-2.1119,-2.0867,-2.0564,-2.03,-2.0275,-2.0112,-1.9798,-1.9656,-1.9422,-1.9095,-1.8536,-1.7909,-1.7179,-1.5574,-1.4507,-1.408,-1.3638,-1.3372,-1.3314,-1.3214,-1.3038,-1.2791,-1.2687,-1.2504,-1.2169,-1.2113,-1.2066,-1.2066,-1.2076,-1.2176,-1.2411,-1.2253,-1.2209,-1.2387,-1.2429,-1.2597,-1.2992,-1.3086,-1.304,-1.2884,-1.2839,-1.2859,-1.2876,-1.3223,-1.3457,-1.3457,-1.3848,-1.4175,-1.435,-1.4563,-1.4909,-1.5327,-1.5455,-1.5596,-1.6014,-1.6179,-1.631,-1.6603,-1.6726,-1.683,-1.6943,-1.7125,-1.7323,-1.7588,-1.7486,-1.7407,-1.7588,-1.7759,-1.7862,-1.7852,-1.794,-1.8008,-1.8008,-1.8008,-1.8008,-1.8008,-1.7812,-1.7701,-1.7605,-1.7449,-1.7209,-1.6693,-1.6473,-1.6086,-1.5483,-1.5164,-1.4787,-1.4253,-1.3761,-1.3216,-2.5923,-2.5873,-2.5468,-2.521,-2.5062,-2.4657,-2.4411,-2.4263,-2.389,-2.3315,-2.2608,-2.2678,-2.2708,-2.2708,-2.2708,-2.272,-2.2739,-2.2739,-2.2607,-2.2329,-2.2334,-2.2156,-2.187,-2.1744,-2.1669,-2.1656,-2.1556,-2.1255,-2.0918,-2.0754,-2.0402,-1.9835,-1.9656,-1.95,-1.9291,-1.8999,-1.8451,-1.7574,-1.6306,-1.5417,-1.501,-1.4282,-1.3824,-1.3635,-1.3423,-1.3262,-1.3172,-1.3123,-1.3061,-1.2954,-1.2905,-1.2915,-1.2915,-1.2915,-1.2915,-1.2881,-1.2686,-1.2567,-1.2607,-1.2735,-1.302,-1.3387,-1.3586,-1.3701,-1.3791,-1.3733,-1.3618,-1.3575,-1.3824,-1.4088,-1.4234,-1.4567,-1.4867,-1.5079,-1.54,-1.5776,-1.6114,-1.6186,-1.626,-1.6541,-1.6726,-1.689,-1.7003,-1.7176,-1.7314,-1.7461,-1.7539,-1.7598,-1.775,-1.7784,-1.7774,-1.7784,-1.7896,-1.7974,-1.8008,-1.8008,-1.8008,-1.8008,-1.8008,-1.8008,-1.8008,-1.8008,-1.7998,-1.7935,-1.7964,-1.775,-1.7345,-1.7197,-1.6817,-1.6182,-1.5894,-1.5625,-1.4989,-1.4271,-1.3583,-2.591,-2.591,-2.5849,-2.5541,-2.517,-2.505,-2.4767,-2.4394,-2.4446,-2.4144,-2.3572,-2.296,-2.2733,-2.2708,-2.2708,-2.2769,-2.2878,-2.2878,-2.2932,-2.299,-2.3032,-2.2965,-2.2844,-2.2443,-2.2246,-2.2184,-2.1782,-2.1531,-2.1408,-2.0918,-2.0402,-1.9835,-1.9656,-1.9617,-1.9539,-1.9184,-1.8936,-1.8823,-1.7743,-1.668,-1.5662,-1.507,-1.4662,-1.439,-1.3862,-1.3491,-1.3412,-1.321,-1.3085,-1.3085,-1.2964,-1.2915,-1.2915,-1.2915,-1.2915,-1.2925,-1.2769,-1.274,-1.2856,-1.3109,-1.3433,-1.381,-1.3864,-1.4057,-1.4387,-1.4503,-1.4385,-1.4115,-1.4189,-1.452,-1.4961,-1.5216,-1.5685,-1.6389,-1.6609,-1.6916,-1.7169,-1.7351,-1.736,-1.7382,-1.7323,-1.7426,-1.7392,-1.747,-1.7539,-1.7676,-1.7701,-1.7759,-1.7896,-1.793,-1.7964,-1.7964,-1.8008,-1.8008,-1.8008,-1.8008,-1.8008,-1.8008,-1.8008,-1.8008,-1.8008,-1.8008,-1.8008,-1.8008,-1.8018,-1.7891,-1.7779,-1.7721,-1.759,-1.6939,-1.663,-1.6515,-1.5758,-1.5016,-1.4298,-2.6258,-2.6258,-2.6245,-2.6121,-2.5934,-2.5921,-2.5797,-2.5606,-2.5303,-2.5048,-2.4748,-2.3885,-2.3293,-2.2939,-2.2927,-2.2969,-2.3017,-2.3017,-2.306,-2.3108,-2.3095,-2.3095,-2.307,-2.2882,-2.2769,-2.2757,-2.2531,-2.2284,-2.1882,-2.1131,-2.0566,-2.0314,-1.9935,-1.9682,-1.9604,-1.9422,-1.9251,-1.8987,-1.856,-1.7952,-1.7108,-1.6041,-1.5455,-1.5282,-1.4813,-1.4347,-1.3982,-1.3789,-1.3505,-1.3129,-1.3051,-1.2978,-1.2915,-1.3115,-1.3242,-1.3262,-1.3394,-1.3556,-1.3779,-1.3904,-1.412,-1.4542,-1.457,-1.4625,-1.4775,-1.4852,-1.4868,-1.4951,-1.5037,-1.5172,-1.543,-1.5936,-1.6485,-1.6859,-1.7102,-1.732,-1.7467,-1.7486,-1.7495,-1.7495,-1.7495,-1.7529,-1.7623,-1.7735,-1.7803,-1.7881,-1.7862,-1.7906,-1.8008,-1.8008,-1.8008,-1.8008,-1.8008,-1.8008,-1.8008,-1.8008,-1.8008,-1.8008,-1.8008,-1.8008,-1.8008,-1.8008,-1.8008,-1.8008,-1.8008,-1.7974,-1.7886,-1.7915,-1.7823,-1.7394,-1.7042,-1.6801,-1.6459,-1.5886,-1.5218,-2.6487,-2.6487,-2.6487,-2.6487,-2.6487,-2.6487,-2.6487,-2.6449,-2.6034,-2.5749,-2.5511,-2.477,-2.4117,-2.3572,-2.3258,-2.3095,-2.3095,-2.3095,-2.3095,-2.3095,-2.3095,-2.3095,-2.3095,-2.3095,-2.3095,-2.3095,-2.3083,-2.2807,-2.2284,-2.1556,-2.1006,-2.0679,-2.0264,-1.9922,-1.9668,-1.9617,-1.9434,-1.9119,-1.9052,-1.8774,-1.8197,-1.7127,-1.6362,-1.6074,-1.5638,-1.513,-1.4587,-1.4404,-1.4094,-1.3541,-1.3457,-1.3382,-1.3257,-1.3516,-1.3656,-1.3685,-1.3975,-1.4244,-1.4449,-1.4525,-1.4696,-1.4962,-1.5009,-1.5009,-1.5028,-1.5143,-1.5333,-1.559,-1.5909,-1.6102,-1.6087,-1.6583,-1.6964,-1.7183,-1.7479,-1.7642,-1.7642,-1.7642,-1.7642,-1.7642,-1.7666,-1.7676,-1.7794,-1.7906,-1.7974,-1.7974,-1.8008,-1.8008,-1.8008,-1.8008,-1.8008,-1.8008,-1.8008,-1.8008,-1.8008,-1.8008,-1.8008,-1.8008,-1.8008,-1.8008,-1.8008,-1.8008,-1.8008,-1.8008,-1.8008,-1.8008,-1.7964,-1.7983,-1.7993,-1.7789,-1.7455,-1.7171,-1.7078,-1.6623,-1.6228,-2.6487,-2.6487,-2.6487,-2.6487,-2.6487,-2.6487,-2.6487,-2.6487,-2.6436,-2.6147,-2.5674,-2.5511,-2.5209,-2.4612,-2.3659,-2.3133,-2.312,-2.3108,-2.3095,-2.3095,-2.3095,-2.3095,-2.3095,-2.3095,-2.3095,-2.3095,-2.3095,-2.2844,-2.233,-2.2221,-2.1694,-2.0779,-2.0691,-2.039,-1.9885,-1.9744,-1.9551,-1.9368,-1.9158,-1.8946,-1.8706,-1.8244,-1.7499,-1.6685,-1.614,-1.5678,-1.5231,-1.5034,-1.4804,-1.4538,-1.436,-1.4222,-1.4062,-1.4065,-1.4085,-1.4116,-1.4374,-1.4588,-1.4657,-1.485,-1.5001,-1.5,-1.5039,-1.5009,-1.5087,-1.5443,-1.5742,-1.5819,-1.667,-1.7119,-1.7027,-1.7081,-1.7369,-1.7813,-1.7935,-1.7949,-1.7974,-1.794,-1.7974,-1.7974,-1.794,-1.794,-1.7974,-1.8008,-1.8008,-1.8008,-1.8008,-1.8008,-1.8008,-1.8008,-1.8008,-1.8008,-1.8008,-1.8008,-1.8008,-1.8008,-1.8008,-1.8008,-1.8008,-1.8008,-1.8008,-1.8008,-1.8008,-1.8008,-1.8008,-1.8008,-1.8008,-1.8008,-1.8018,-1.792,-1.7847,-1.7702,-1.7654,-1.7231,-1.6892,-2.6813,-2.6487,-2.6487,-2.6487,-2.6487,-2.6487,-2.6487,-2.6487,-2.6487,-2.6386,-2.6147,-2.5762,-2.5498,-2.5285,-2.4512,-2.3985,-2.3647,-2.3283,-2.3095,-2.3095,-2.3095,-2.3095,-2.3095,-2.3095,-2.3095,-2.3095,-2.3095,-2.3007,-2.2782,-2.2456,-2.2121,-2.1732,-2.1355,-2.0943,-2.0451,-2.0337,-2.0068,-1.955,-1.9342,-1.9146,-1.8919,-1.8679,-1.8236,-1.7589,-1.7059,-1.6574,-1.6099,-1.577,-1.5377,-1.4876,-1.4655,-1.447,-1.434,-1.4468,-1.4678,-1.4894,-1.5041,-1.5099,-1.5109,-1.5206,-1.5245,-1.5254,-1.5245,-1.5254,-1.5351,-1.5701,-1.609,-1.6439,-1.698,-1.7428,-1.7658,-1.7673,-1.7765,-1.7935,-1.8008,-1.8008,-1.8008,-1.8008,-1.8008,-1.8008,-1.8008,-1.8008,-1.8008,-1.8008,-1.8008,-1.8008,-1.8008,-1.8008,-1.8008,-1.8008,-1.8008,-1.8008,-1.8008,-1.8008,-1.8008,-1.8008,-1.8008,-1.8008,-1.8008,-1.8008,-1.8008,-1.8008,-1.8008,-1.8042,-1.8042,-1.8042,-1.8042,-1.8149,-1.8149,-1.8168,-1.808,-1.8118,-1.8192,-1.7827,-1.7664,-2.6989,-2.6524,-2.6487,-2.6487,-2.6487,-2.6487,-2.6487,-2.6487,-2.6487,-2.6487,-2.6411,-2.6072,-2.5875,-2.5774,-2.5322,-2.4883,-2.4456,-2.3766,-2.3296,-2.3108,-2.3095,-2.3095,-2.3095,-2.3095,-2.3095,-2.3095,-2.3095,-2.3095,-2.307,-2.2732,-2.2456,-2.2272,-2.192,-2.1509,-2.1018,-2.0792,-2.0398,-1.9927,-1.9611,-1.9342,-1.9078,-1.8919,-1.8679,-1.8263,-1.7794,-1.7319,-1.6852,-1.6411,-1.5983,-1.5494,-1.5216,-1.5016,-1.4884,-1.4918,-1.5107,-1.5371,-1.541,-1.542,-1.542,-1.542,-1.541,-1.542,-1.542,-1.541,-1.5615,-1.6056,-1.6465,-1.6904,-1.7334,-1.7734,-1.792,-1.7998,-1.8008,-1.8008,-1.8008,-1.8008,-1.8008,-1.8008,-1.8008,-1.8008,-1.8008,-1.8008,-1.8008,-1.8008,-1.8008,-1.8008,-1.8008,-1.8008,-1.8008,-1.8008,-1.8008,-1.8008,-1.8008,-1.8008,-1.8008,-1.8008,-1.8008,-1.8008,-1.8008,-1.8008,-1.8042,-1.8008,-1.8042,-1.8076,-1.8076,-1.811,-1.8163,-1.8271,-1.8329,-1.8347,-1.8355,-1.8348,-1.8398,-1.8448,-1.8292,-2.7014,-2.6562,-2.6487,-2.6487,-2.6487,-2.6487,-2.6487,-2.6487,-2.6487,-2.6487,-2.6474,-2.6449,-2.6399,-2.6336,-2.5858,-2.5573,-2.5297,-2.4481,-2.3735,-2.3233,-2.3133,-2.3095,-2.3095,-2.3095,-2.3095,-2.3095,-2.3095,-2.3095,-2.3083,-2.3032,-2.2794,-2.2422,-2.233,-2.2046,-2.1493,-2.1094,-2.0738,-2.0428,-1.9977,-1.9534,-1.9223,-1.9103,-1.8854,-1.8598,-1.8247,-1.7799,-1.7307,-1.6972,-1.662,-1.6348,-1.6156,-1.596,-1.5621,-1.5448,-1.54,-1.54,-1.542,-1.542,-1.542,-1.542,-1.542,-1.543,-1.543,-1.5635,-1.6007,-1.6445,-1.6863,-1.7275,-1.7686,-1.7998,-1.7988,-1.8008,-1.8008,-1.8008,-1.8008,-1.8008,-1.8008,-1.8008,-1.8008,-1.8008,-1.8008,-1.8008,-1.8008,-1.8008,-1.8008,-1.8008,-1.8008,-1.8008,-1.8008,-1.8008,-1.8008,-1.8008,-1.8008,-1.8008,-1.8008,-1.8008,-1.8008,-1.8008,-1.8008,-1.8008,-1.8076,-1.8076,-1.8178,-1.8212,-1.8192,-1.8226,-1.8367,-1.8464,-1.8532,-1.8559,-1.8556,-1.8639,-1.8767,-1.8818,-1.8818,-2.7228,-2.7027,-2.665,-2.6487,-2.6487,-2.6487,-2.6487,-2.6487,-2.6487,-2.6487,-2.6487,-2.6487,-2.6487,-2.6461,-2.6285,-2.6009,-2.5586,-2.5209,-2.4607,-2.3803,-2.3308,-2.3108,-2.3095,-2.3095,-2.3095,-2.3095,-2.3095,-2.3095,-2.3095,-2.3095,-2.2995,-2.2869,-2.2832,-2.2556,-2.2083,-2.187,-2.1616,-2.1149,-2.0528,-2.012,-1.9856,-1.9417,-1.9011,-1.8732,-1.8437,-1.8123,-1.7717,-1.734,-1.7015,-1.6676,-1.6449,-1.6105,-1.5759,-1.5517,-1.542,-1.542,-1.542,-1.542,-1.542,-1.542,-1.542,-1.5469,-1.5674,-1.5919,-1.6153,-1.6789,-1.7207,-1.7455,-1.7754,-1.8008,-1.8008,-1.8008,-1.8008,-1.8008,-1.8008,-1.8008,-1.8008,-1.8008,-1.8008,-1.8008,-1.8008,-1.8008,-1.8008,-1.8008,-1.8008,-1.8008,-1.8008,-1.8008,-1.8008,-1.8008,-1.8008,-1.8008,-1.8008,-1.8008,-1.8008,-1.8008,-1.8008,-1.8042,-1.8076,-1.8076,-1.8144,-1.8212,-1.8313,-1.8371,-1.8351,-1.8428,-1.8603,-1.8724,-1.8802,-1.8895,-1.899,-1.909,-1.9198,-1.9241,-1.9208,-2.7469,-2.7231,-2.6725,-2.6487,-2.6487,-2.6487,-2.6487,-2.6487,-2.6487,-2.6487,-2.6487,-2.6487,-2.6487,-2.6487,-2.6487,-2.6298,-2.5946,-2.5711,-2.5234,-2.4544,-2.3747,-2.3333,-2.3145,-2.3095,-2.3095,-2.3095,-2.3095,-2.3095,-2.3095,-2.3095,-2.3095,-2.3095,-2.3095,-2.2945,-2.2581,-2.2368,-2.2108,-2.1729,-2.1172,-2.0787,-2.0511,-1.9929,-1.9434,-1.9168,-1.8731,-1.8302,-1.7991,-1.7617,-1.725,-1.6846,-1.6477,-1.6134,-1.5788,-1.5614,-1.5478,-1.542,-1.542,-1.542,-1.542,-1.542,-1.5498,-1.5664,-1.5938,-1.6271,-1.6564,-1.7181,-1.7402,-1.7646,-1.7852,-1.8008,-1.8008,-1.8008,-1.8008,-1.8008,-1.8008,-1.8008,-1.8008,-1.8008,-1.8008,-1.8008,-1.8008,-1.8008,-1.8008,-1.8008,-1.8008,-1.8008,-1.8008,-1.8008,-1.8008,-1.8008,-1.8008,-1.8008,-1.8008,-1.8008,-1.8008,-1.8008,-1.8032,-1.8076,-1.8144,-1.8168,-1.8236,-1.8347,-1.8414,-1.8607,-1.8654,-1.8875,-1.9006,-1.9124,-1.9202,-1.9295,-1.9354,-1.9387,-1.9441,-1.9605,-1.9605,-2.7795,-2.7281,-2.6738,-2.6487,-2.6487,-2.6487,-2.6487,-2.6487,-2.6487,-2.6487,-2.6487,-2.6487,-2.6487,-2.6487,-2.6487,-2.6449,-2.6386,-2.5996,-2.5636,-2.5259,-2.4569,-2.3841,-2.3183,-2.3095,-2.3095,-2.3095,-2.3095,-2.3095,-2.3095,-2.3095,-2.3095,-2.3095,-2.3095,-2.3095,-2.2945,-2.2581,-2.2397,-2.2268,-2.1807,-2.1459,-2.1294,-2.0619,-2.0104,-1.9844,-1.9187,-1.8612,-1.8253,-1.7828,-1.7351,-1.6835,-1.6371,-1.6066,-1.5914,-1.5769,-1.5575,-1.542,-1.542,-1.542,-1.542,-1.5498,-1.5644,-1.5997,-1.6212,-1.6486,-1.7181,-1.7416,-1.7617,-1.79,-1.7988,-1.8008,-1.8008,-1.8008,-1.8008,-1.8008,-1.8008,-1.8008,-1.8008,-1.8008,-1.8008,-1.8008,-1.8008,-1.8008,-1.8008,-1.8008,-1.8008,-1.8008,-1.8008,-1.8008,-1.8008,-1.8008,-1.8008,-1.8008,-1.8008,-1.8008,-1.8008,-1.8008,-1.8042,-1.8168,-1.8245,-1.8337,-1.8438,-1.8539,-1.864,-1.8841,-1.9008,-1.9218,-1.9362,-1.9426,-1.9536,-1.9605,-1.9628,-1.9639,-1.9748,-1.9955,-2.0064,-2.8021,-2.7783,-2.6901,-2.6487,-2.6487,-2.6487,-2.6487,-2.6487,-2.6487,-2.6487,-2.6487,-2.6487,-2.6487,-2.6487,-2.6487,-2.6487,-2.6436,-2.6323,-2.6009,-2.5598,-2.5347,-2.4324,-2.3333,-2.3095,-2.3095,-2.3095,-2.3095,-2.3095,-2.3095,-2.3095,-2.3095,-2.3095,-2.3095,-2.3095,-2.3045,-2.2932,-2.2895,-2.2807,-2.2343,-2.2009,-2.1803,-2.1173,-2.0721,-2.0499,-1.9975,-1.9392,-1.879,-1.7879,-1.7239,-1.6807,-1.6506,-1.6192,-1.5914,-1.5769,-1.5614,-1.5449,-1.543,-1.542,-1.5488,-1.5723,-1.5977,-1.6134,-1.6672,-1.7129,-1.7376,-1.7676,-1.7871,-1.8008,-1.8008,-1.8008,-1.8008,-1.8008,-1.8008,-1.8008,-1.8008,-1.8008,-1.8008,-1.8008,-1.8008,-1.8008,-1.8008,-1.8008,-1.8008,-1.8008,-1.8008,-1.8008,-1.8008,-1.8008,-1.8008,-1.8008,-1.8008,-1.8008,-1.8008,-1.8008,-1.8008,-1.8008,-1.8076,-1.8269,-1.8405,-1.8539,-1.8674,-1.8841,-1.8975,-1.9142,-1.9241,-1.9417,-1.9561,-1.966,-1.977,-1.9944,-2.0042,-2.0117,-2.0323,-2.0496,-2.0529,-2.831,-2.8034,-2.7203,-2.67,-2.6499,-2.6487,-2.6487,-2.6487,-2.6487,-2.6487,-2.6487,-2.6487,-2.6487,-2.6487,-2.6487,-2.6487,-2.6487,-2.6487,-2.6311,-2.6021,-2.5686,-2.4782,-2.3728,-2.3271,-2.3095,-2.3095,-2.3095,-2.3095,-2.3095,-2.3095,-2.3095,-2.3095,-2.3095,-2.3095,-2.3095,-2.3095,-2.3095,-2.3045,-2.2782,-2.2602,-2.2488,-2.1786,-2.1407,-2.1095,-2.0556,-1.979,-1.9126,-1.8456,-1.7744,-1.6992,-1.6591,-1.6316,-1.5943,-1.5827,-1.5672,-1.5449,-1.5566,-1.5693,-1.5762,-1.6134,-1.6447,-1.6672,-1.7191,-1.7422,-1.7637,-1.7891,-1.8008,-1.8008,-1.8008,-1.8008,-1.8008,-1.8008,-1.8008,-1.8008,-1.8008,-1.8008,-1.8008,-1.8008,-1.8008,-1.8008,-1.8008,-1.8008,-1.8008,-1.8008,-1.8008,-1.8008,-1.8008,-1.8008,-1.8008,-1.8008,-1.8008,-1.8008,-1.8008,-1.8008,-1.8008,-1.8008,-1.8144,-1.8313,-1.8573,-1.8707,-1.8841,-1.9052,-1.9175,-1.9274,-1.944,-1.9605,-1.9781,-1.9966,-2.0172,-2.0323,-2.0451,-2.059,-2.0732,-2.0926,-2.0914,-2.8562,-2.8059,-2.7519,-2.7002,-2.6524,-2.6487,-2.6487,-2.6487,-2.6487,-2.6487,-2.6487,-2.6487,-2.6487,-2.6487,-2.6487,-2.6487,-2.6487,-2.6487,-2.6487,-2.6248,-2.5871,-2.5046,-2.4293,-2.3559,-2.3246,-2.3133,-2.3095,-2.3095,-2.3095,-2.3095,-2.3095,-2.3095,-2.3095,-2.3095,-2.3095,-2.3095,-2.3095,-2.3095,-2.3058,-2.2977,-2.2837,-2.2323,-2.1977,-2.1743,-2.0795,-1.9993,-1.9485,-1.9063,-1.8442,-1.7009,-1.6831,-1.661,-1.6193,-1.6085,-1.5919,-1.5753,-1.5967,-1.6153,-1.6232,-1.6553,-1.6943,-1.7236,-1.7363,-1.7588,-1.7891,-1.7988,-1.8008,-1.8008,-1.8008,-1.8008,-1.8008,-1.8008,-1.8008,-1.8008,-1.8008,-1.8008,-1.8008,-1.8008,-1.8008,-1.8008,-1.8008,-1.8008,-1.8008,-1.8008,-1.8008,-1.8008,-1.8008,-1.8008,-1.8008,-1.8008,-1.8008,-1.8008,-1.8008,-1.8008,-1.8008,-1.8008,-1.8212,-1.8414,-1.8717,-1.8875,-1.8975,-1.9142,-1.9274,-1.9407,-1.9594,-1.9824,-2.0053,-2.028,-2.0506,-2.07,-2.0837,-2.0912,-2.0999,-2.1169,-2.1244,-2.8562,-2.8059,-2.7507,-2.7002,-2.6537,-2.6487,-2.6487,-2.6487,-2.6487,-2.6487,-2.6487,-2.6487,-2.6487,-2.6487,-2.6487,-2.6487,-2.6487,-2.6487,-2.6487,-2.6411,-2.5908,-2.5536,-2.5021,-2.428,-2.3584,-2.3271,-2.3108,-2.3095,-2.3095,-2.3095,-2.3095,-2.3095,-2.3095,-2.3095,-2.3095,-2.3095,-2.3095,-2.3108,-2.3108,-2.3047,-2.2939,-2.2658,-2.2396,-2.2165,-2.1223,-2.0445,-1.9772,-1.9229,-1.863,-1.8077,-1.7843,-1.752,-1.6982,-1.6839,-1.6675,-1.6449,-1.6443,-1.6592,-1.6638,-1.6982,-1.7275,-1.7422,-1.7676,-1.791,-1.7969,-1.8008,-1.8008,-1.8008,-1.8008,-1.8008,-1.8008,-1.8008,-1.8008,-1.8008,-1.8008,-1.8008,-1.8008,-1.8008,-1.8008,-1.8008,-1.8008,-1.8008,-1.8008,-1.8008,-1.8008,-1.8008,-1.8008,-1.8008,-1.8008,-1.8008,-1.8008,-1.8008,-1.8008,-1.8008,-1.8008,-1.8042,-1.8245,-1.8448,-1.8707,-1.8975,-1.9075,-1.9241,-1.9384,-1.9561,-1.9813,-2.0042,-2.0291,-2.0571,-2.0828,-2.0999,-2.1158,-2.1253,-2.136,-2.1498,-2.1624,-2.8725,-2.8084,-2.7783,-2.7193,-2.6562,-2.6487,-2.6487,-2.6487,-2.6487,-2.6487,-2.6487,-2.6487,-2.6487,-2.6487,-2.6487,-2.6487,-2.6487,-2.6487,-2.6487,-2.6436,-2.6147,-2.5908,-2.5548,-2.5021,-2.4368,-2.3653,-2.3221,-2.312,-2.3095,-2.3108,-2.3095,-2.3095,-2.3095,-2.3095,-2.3095,-2.3095,-2.3095,-2.3065,-2.3017,-2.2957,-2.2878,-2.2678,-2.2371,-2.2037,-2.1404,-2.0787,-2.0284,-1.9769,-1.9292,-1.8944,-1.8733,-1.8218,-1.7386,-1.72,-1.7053,-1.678,-1.6921,-1.6989,-1.7139,-1.7412,-1.7676,-1.7676,-1.7891,-1.7959,-1.8008,-1.8008,-1.8008,-1.8008,-1.8008,-1.8008,-1.8008,-1.8008,-1.8008,-1.8008,-1.8008,-1.8008,-1.8008,-1.8008,-1.8008,-1.8008,-1.8008,-1.8008,-1.8008,-1.8008,-1.8008,-1.8008,-1.8008,-1.8008,-1.8008,-1.8008,-1.8008,-1.8008,-1.8008,-1.8008,-1.8008,-1.811,-1.8269,-1.8472,-1.8674,-1.8908,-1.9075,-1.9274,-1.9483,-1.9704,-1.9922,-2.0259,-2.0529,-2.0818,-2.1063,-2.121,-2.138,-2.158,-2.1718,-2.1749,-2.1906,-2.8911,-2.8173,-2.811,-2.7519,-2.67,-2.6524,-2.6487,-2.6487,-2.6487,-2.6487,-2.6487,-2.6487,-2.6487,-2.6487,-2.6487,-2.6487,-2.6487,-2.6487,-2.6487,-2.6461,-2.638,-2.6095,-2.5757,-2.5411,-2.4966,-2.4135,-2.3609,-2.3333,-2.3271,-2.3145,-2.3108,-2.3095,-2.3095,-2.3078,-2.3078,-2.3078,-2.3017,-2.3,-2.2909,-2.2818,-2.2757,-2.2555,-2.2216,-2.1769,-2.1388,-2.0994,-2.0611,-2.0213,-1.9857,-1.9605,-1.9384,-1.8596,-1.7802,-1.7359,-1.7243,-1.6973,-1.7314,-1.7451,-1.7519,-1.7764,-1.7969,-1.8008,-1.8008,-1.8008,-1.8008,-1.8008,-1.8008,-1.8008,-1.8008,-1.8008,-1.8008,-1.8008,-1.8008,-1.8008,-1.8008,-1.8008,-1.8008,-1.8008,-1.8008,-1.8008,-1.8008,-1.8008,-1.8008,-1.8008,-1.8008,-1.8008,-1.8018,-1.8018,-1.8027,-1.8037,-1.8057,-1.8018,-1.8008,-1.8008,-1.8008,-1.81,-1.8285,-1.8478,-1.8671,-1.8852,-1.9085,-1.9341,-1.955,-1.9747,-1.9966,-2.0335,-2.069,-2.0967,-2.121,-2.14,-2.16,-2.1737,-2.1874,-2.1968,-2.2123,-2.9046,-2.8475,-2.8224,-2.772,-2.7153,-2.67,-2.6487,-2.6487,-2.6487,-2.6487,-2.6487,-2.6487,-2.6487,-2.6487,-2.6487,-2.6487,-2.6487,-2.6465,-2.6465,-2.643,-2.6339,-2.6099,-2.5952,-2.5537,-2.5148,-2.4797,-2.424,-2.3854,-2.3647,-2.3384,-2.3135,-2.309,-2.3078,-2.3017,-2.2957,-2.2939,-2.2878,-2.283,-2.2739,-2.2635,-2.2512,-2.2359,-2.2123,-2.1667,-2.1328,-2.0978,-2.0625,-2.0205,-1.9835,-1.9572,-1.9142,-1.8716,-1.8311,-1.8204,-1.8005,-1.7782,-1.7773,-1.7822,-1.7861,-1.793,-1.8008,-1.8008,-1.8008,-1.8008,-1.8008,-1.8008,-1.8008,-1.8008,-1.8008,-1.8008,-1.8008,-1.8008,-1.8008,-1.8008,-1.8008,-1.8008,-1.8008,-1.8008,-1.8008,-1.8008,-1.8008,-1.8008,-1.8008,-1.8008,-1.8008,-1.8057,-1.8125,-1.8135,-1.8144,-1.8154,-1.8164,-1.8096,-1.8008,-1.8008,-1.8008,-1.812,-1.8252,-1.849,-1.8674,-1.8802,-1.905,-1.9384,-1.9605,-1.9747,-2.0074,-2.054,-2.0818,-2.1094,-2.1348,-2.1549,-2.1737,-2.1937,-2.203,-2.2154,-2.2278,-2.8903,-2.8549,-2.8114,-2.7687,-2.7231,-2.6725,-2.6487,-2.6487,-2.6487,-2.6487,-2.6487,-2.6487,-2.6487,-2.6487,-2.6487,-2.6487,-2.6465,-2.6374,-2.6339,-2.6305,-2.6166,-2.6062,-2.6027,-2.5603,-2.5541,-2.533,-2.4872,-2.4226,-2.3778,-2.3461,-2.3182,-2.2916,-2.2878,-2.2848,-2.2818,-2.28,-2.2769,-2.2678,-2.2586,-2.2463,-2.2278,-2.2068,-2.1694,-2.1454,-2.1117,-2.0786,-2.0388,-1.9998,-1.9671,-1.9407,-1.9042,-1.8741,-1.8549,-1.8405,-1.8269,-1.8076,-1.8008,-1.8008,-1.8008,-1.8008,-1.8008,-1.8008,-1.8008,-1.8008,-1.8008,-1.8008,-1.8008,-1.8008,-1.8008,-1.8008,-1.8008,-1.8008,-1.8008,-1.8008,-1.8008,-1.8008,-1.8008,-1.8008,-1.8008,-1.8008,-1.8037,-1.8037,-1.8008,-1.8008,-1.8008,-1.8086,-1.8223,-1.8291,-1.8295,-1.8418,-1.8496,-1.8516,-1.8496,-1.8496,-1.8477,-1.8457,-1.8487,-1.8671,-1.8817,-1.8937,-1.9031,-1.9346,-1.9526,-1.9615,-2.0074,-2.0604,-2.0894,-2.1106,-2.1403,-2.1698,-2.1874,-2.2061,-2.2216,-2.2359,-2.2451,-2.8731,-2.8609,-2.8015,-2.7653,-2.7322,-2.6763,-2.6487,-2.6487,-2.6487,-2.6487,-2.6487,-2.6487,-2.6487,-2.6487,-2.6465,-2.643,-2.643,-2.6236,-2.6131,-2.6097,-2.5945,-2.5828,-2.5793,-2.577,-2.5616,-2.539,-2.5146,-2.4621,-2.4074,-2.3594,-2.325,-2.3022,-2.2831,-2.2678,-2.2647,-2.2586,-2.2616,-2.2494,-2.2371,-2.2216,-2.1999,-2.1632,-2.1305,-2.1158,-2.0786,-2.0453,-2.0139,-1.9736,-1.9473,-1.9241,-1.8942,-1.864,-1.8482,-1.8313,-1.8168,-1.8032,-1.8008,-1.8008,-1.8008,-1.8008,-1.8008,-1.8008,-1.8008,-1.8008,-1.8008,-1.8008,-1.8008,-1.8008,-1.8008,-1.8008,-1.8008,-1.8008,-1.8008,-1.8008,-1.8008,-1.8008,-1.8008,-1.8008,-1.8008,-1.8027,-1.8066,-1.8096,-1.8096,-1.8232,-1.8247,-1.8408,-1.8545,-1.873,-1.8789,-1.8945,-1.9023,-1.9102,-1.9121,-1.9111,-1.9082,-1.9023,-1.9043,-1.9082,-1.9189,-1.9338,-1.9291,-1.9336,-1.9475,-1.9689,-2.0107,-2.0604,-2.0862,-2.1161,-2.1478,-2.1761,-2.1999,-2.2185,-2.2297,-2.2451,-2.2574,-2.8794,-2.8726,-2.8063,-2.7791,-2.7604,-2.6847,-2.6499,-2.6487,-2.6487,-2.6487,-2.6487,-2.6487,-2.6487,-2.643,-2.6305,-2.6236,-2.6166,-2.605,-2.591,-2.5875,-2.5688,-2.5548,-2.5394,-2.523,-2.5171,-2.5087,-2.4957,-2.4904,-2.4524,-2.3896,-2.3494,-2.3278,-2.2836,-2.2598,-2.2468,-2.2302,-2.2166,-2.203,-2.1874,-2.1781,-2.1686,-2.138,-2.119,-2.0955,-2.0592,-2.0139,-1.9977,-1.9572,-1.9285,-1.9098,-1.8741,-1.8482,-1.8303,-1.8144,-1.8042,-1.8008,-1.8008,-1.8008,-1.8008,-1.8008,-1.8008,-1.8008,-1.8008,-1.8008,-1.8008,-1.8008,-1.8008,-1.8008,-1.8008,-1.8008,-1.8008,-1.8008,-1.8008,-1.8008,-1.8008,-1.8008,-1.8018,-1.8184,-1.8164,-1.8262,-1.8379,-1.8291,-1.8232,-1.8383,-1.8559,-1.8695,-1.8887,-1.9082,-1.9277,-1.9434,-1.9541,-1.9609,-1.9676,-1.9676,-1.9658,-1.96,-1.9507,-1.9495,-1.9623,-1.9692,-1.961,-1.9586,-1.9664,-1.9925,-2.0314,-2.0573,-2.0765,-2.1117,-2.1541,-2.1792,-2.2011,-2.2185,-2.2389,-2.2512,-2.2665,-2.8605,-2.877,-2.8168,-2.7878,-2.7717,-2.7055,-2.6671,-2.6524,-2.6487,-2.6487,-2.6487,-2.6487,-2.6418,-2.6292,-2.6119,-2.6027,-2.598,-2.5793,-2.5653,-2.5548,-2.5394,-2.523,-2.5052,-2.4945,-2.4849,-2.479,-2.4825,-2.485,-2.4667,-2.4188,-2.3661,-2.3275,-2.2831,-2.2484,-2.2381,-2.2068,-2.191,-2.1749,-2.1561,-2.136,-2.1244,-2.1042,-2.0818,-2.0603,-2.0226,-1.9977,-1.966,-1.9396,-1.9108,-1.8898,-1.8573,-1.8371,-1.8279,-1.8144,-1.8008,-1.8008,-1.8008,-1.8008,-1.8008,-1.8008,-1.8008,-1.8008,-1.8008,-1.8008,-1.8008,-1.8008,-1.8008,-1.8008,-1.8008,-1.8008,-1.8008,-1.8008,-1.8008,-1.8008,-1.8047,-1.8057,-1.8115,-1.832,-1.8437,-1.8564,-1.8701,-1.8691,-1.8711,-1.8916,-1.9072,-1.9102,-1.9316,-1.9551,-1.9766,-1.998,-2.0059,-2.0155,-2.0165,-2.0155,-2.0194,-2.0184,-1.9922,-1.9915,-2.0075,-2.0099,-1.991,-1.9893,-2.001,-2.0188,-2.0475,-2.0676,-2.076,-2.1117,-2.1635,-2.1835,-2.198,-2.2216,-2.2463,-2.2574,-2.2757,-2.8247,-2.8585,-2.8181,-2.7861,-2.7607,-2.7136,-2.6685,-2.6352,-2.6327,-2.6327,-2.6349,-2.6314,-2.6223,-2.6084,-2.5933,-2.5793,-2.5723,-2.5535,-2.5359,-2.5182,-2.5016,-2.4838,-2.4658,-2.4598,-2.4526,-2.449,-2.4381,-2.4419,-2.4326,-2.406,-2.3642,-2.3301,-2.2774,-2.2531,-2.2369,-2.2118,-2.1867,-2.1606,-2.125,-2.099,-2.0818,-2.0646,-2.0388,-2.015,-1.9911,-1.9693,-1.9308,-1.9108,-1.8931,-1.8674,-1.8472,-1.8303,-1.8212,-1.8076,-1.8008,-1.8008,-1.8008,-1.8008,-1.8008,-1.8008,-1.8008,-1.8008,-1.8008,-1.8008,-1.8008,-1.8008,-1.8008,-1.8008,-1.8008,-1.8008,-1.8008,-1.8008,-1.8008,-1.8057,-1.8125,-1.8135,-1.8232,-1.8574,-1.8818,-1.8936,-1.9111,-1.9355,-1.9414,-1.9541,-1.9627,-1.9541,-1.9717,-2.0,-2.0185,-2.0352,-2.0381,-2.041,-2.041,-2.041,-2.0449,-2.0458,-2.0321,-2.0319,-2.0486,-2.0446,-2.0252,-2.0303,-2.0507,-2.0638,-2.0773,-2.1049,-2.1353,-2.1548,-2.171,-2.1835,-2.198,-2.229,-2.2525,-2.2678,-2.2818,-2.7805,-2.8211,-2.8077,-2.7697,-2.7236,-2.687,-2.6437,-2.6027,-2.598,-2.598,-2.6015,-2.5933,-2.5945,-2.5875,-2.5676,-2.55,-2.5347,-2.5218,-2.5016,-2.4814,-2.4646,-2.4454,-2.4261,-2.408,-2.3897,-2.3787,-2.3787,-2.3751,-2.3703,-2.3672,-2.3585,-2.3572,-2.2857,-2.2662,-2.2468,-2.2229,-2.1845,-2.1485,-2.1061,-2.0783,-2.0565,-2.0402,-2.0183,-1.9932,-1.9625,-1.9285,-1.9108,-1.8959,-1.8717,-1.8424,-1.8303,-1.8212,-1.8076,-1.8042,-1.8008,-1.8008,-1.8008,-1.8008,-1.8008,-1.8008,-1.8008,-1.8008,-1.8008,-1.8008,-1.8008,-1.8008,-1.8008,-1.8008,-1.8008,-1.8008,-1.8008,-1.8018,-1.8115,-1.8213,-1.8379,-1.8564,-1.8721,-1.9023,-1.9238,-1.9326,-1.9521,-1.9795,-1.9912,-2.0048,-2.0038,-1.9979,-2.0087,-2.0312,-2.0361,-2.0537,-2.0556,-2.0556,-2.0566,-2.0566,-2.0576,-2.0527,-2.0458,-2.0564,-2.0707,-2.0699,-2.0544,-2.0716,-2.1027,-2.1083,-2.1226,-2.1576,-2.1901,-2.204,-2.2069,-2.1891,-2.198,-2.229,-2.2616,-2.2818,-2.2927,-2.7482,-2.7747,-2.7518,-2.7354,-2.7162,-2.6712,-2.6295,-2.5972,-2.5923,-2.5923,-2.5875,-2.5758,-2.5653,-2.5535,-2.5359,-2.5194,-2.4992,-2.4957,-2.4718,-2.449,-2.4309,-2.4116,-2.3897,-2.3629,-2.3471,-2.3372,-2.3298,-2.3235,-2.3224,-2.315,-2.3084,-2.2947,-2.281,-2.277,-2.2622,-2.2235,-2.1784,-2.141,-2.1123,-2.0911,-2.0786,-2.0717,-2.0569,-2.0387,-2.0146,-1.9737,-1.9401,-1.9055,-1.8678,-1.8402,-1.8261,-1.8178,-1.814,-1.8086,-1.8086,-1.8086,-1.8096,-1.8096,-1.8057,-1.8037,-1.8008,-1.8008,-1.8008,-1.8008,-1.8008,-1.8018,-1.8008,-1.8008,-1.8057,-1.8125,-1.8047,-1.8208,-1.8403,-1.8516,-1.8691,-1.8955,-1.9189,-1.9463,-1.9648,-1.9736,-2.0,-2.0293,-2.04,-2.0458,-2.0419,-2.039,-2.0517,-2.0615,-2.0615,-2.0615,-2.0615,-2.0615,-2.0615,-2.0615,-2.0615,-2.0615,-2.0615,-2.077,-2.0925,-2.0891,-2.0873,-2.1295,-2.1526,-2.157,-2.1679,-2.1958,-2.2237,-2.2453,-2.2482,-2.2286,-2.2242,-2.229,-2.2616,-2.2958,-2.3055,-2.7145,-2.7163,-2.6862,-2.6827,-2.6851,-2.6383,-2.5937,-2.562,-2.5572,-2.556,-2.556,-2.5407,-2.53,-2.5147,-2.5052,-2.4849,-2.467,-2.4574,-2.4345,-2.408,-2.3861,-2.3677,-2.3409,-2.3187,-2.299,-2.3001,-2.2927,-2.2815,-2.2815,-2.2665,-2.267,-2.2685,-2.2659,-2.2652,-2.2534,-2.2076,-2.1626,-2.1403,-2.1193,-2.1044,-2.0907,-2.079,-2.0673,-2.0465,-2.0231,-1.9925,-1.9581,-1.9289,-1.9028,-1.873,-1.8571,-1.8428,-1.8408,-1.8389,-1.8389,-1.8379,-1.8379,-1.8379,-1.835,-1.8125,-1.8037,-1.8008,-1.8008,-1.8008,-1.8027,-1.8071,-1.8217,-1.8262,-1.8311,-1.8369,-1.8369,-1.8691,-1.8792,-1.8916,-1.9228,-1.9482,-1.9619,-1.9834,-2.0,-2.0146,-2.0419,-2.0556,-2.0556,-2.0556,-2.0537,-2.0507,-2.0556,-2.0615,-2.0615,-2.0615,-2.0615,-2.0615,-2.0615,-2.0615,-2.0615,-2.0615,-2.0615,-2.0693,-2.0886,-2.1089,-2.1221,-2.1589,-2.1901,-2.2009,-2.2142,-2.2338,-2.265,-2.3018,-2.2932,-2.2723,-2.2798,-2.3004,-2.296,-2.3306,-2.3205,-2.6696,-2.6518,-2.6178,-2.6127,-2.6188,-2.5791,-2.5369,-2.4968,-2.4933,-2.4897,-2.4933,-2.4861,-2.4825,-2.479,-2.4718,-2.4526,-2.4273,-2.42,-2.4007,-2.3641,-2.3372,-2.3113,-2.2889,-2.2703,-2.2553,-2.2451,-2.2365,-2.2365,-2.2413,-2.23,-2.2289,-2.2289,-2.2269,-2.236,-2.2355,-2.195,-2.1726,-2.1626,-2.1214,-2.0986,-2.0822,-2.0674,-2.055,-2.0416,-2.0208,-1.9995,-1.9726,-1.9578,-1.9361,-1.9105,-1.9059,-1.9023,-1.9043,-1.9062,-1.9072,-1.9092,-1.9131,-1.916,-1.916,-1.8467,-1.8213,-1.8213,-1.8311,-1.8242,-1.8193,-1.8325,-1.8588,-1.8652,-1.8867,-1.9092,-1.9199,-1.9248,-1.9258,-1.9385,-1.9697,-1.9932,-2.0096,-2.0165,-2.0321,-2.039,-2.0498,-2.0605,-2.0605,-2.0605,-2.0605,-2.0595,-2.0605,-2.0615,-2.0615,-2.0615,-2.0615,-2.0615,-2.0615,-2.0615,-2.0615,-2.0615,-2.0615,-2.0722,-2.0848,-2.1051,-2.1282,-2.154,-2.1852,-2.2253,-2.2456,-2.2567,-2.3081,-2.3622,-2.3572,-2.3587,-2.3782,-2.392,-2.3774,-2.366,-2.3636,-2.5526,-2.552,-2.5099,-2.496,-2.5032,-2.5077,-2.4942,-2.4813,-2.4801,-2.4729,-2.461,-2.4598,-2.4418,-2.4273,-2.42,-2.4043,-2.3824,-2.3787,-2.3567,-2.3224,-2.3001,-2.2815,-2.259,-2.2365,-2.2176,-2.2111,-2.1997,-2.1845,-2.1807,-2.1769,-2.1655,-2.1617,-2.1769,-2.1845,-2.2031,-2.1901,-2.172,-2.1559,-2.1275,-2.1101,-2.0995,-2.0937,-2.0852,-2.0767,-2.0579,-2.0299,-1.9997,-1.9903,-1.9693,-1.9434,-1.9404,-1.9385,-1.9375,-1.9365,-1.9346,-1.9326,-1.9307,-1.9277,-1.9268,-1.8965,-1.8887,-1.8857,-1.8789,-1.8769,-1.8877,-1.8955,-1.9053,-1.9092,-1.9268,-1.9375,-1.9268,-1.957,-1.9687,-1.9795,-2.0039,-2.0312,-2.0449,-2.0488,-2.0556,-2.0546,-2.0605,-2.0615,-2.0615,-2.0615,-2.0615,-2.0615,-2.0615,-2.0615,-2.0615,-2.0615,-2.0615,-2.0615,-2.0615,-2.0615,-2.0615,-2.0615,-2.0605,-2.0644,-2.0809,-2.0974,-2.1244,-2.1464,-2.1873,-2.2258,-2.2521,-2.282,-2.336,-2.391,-2.4341,-2.4553,-2.4582,-2.431,-2.3904,-2.3996,-2.4284,-2.467,-2.4587,-2.4467,-2.4269,-2.4164,-2.4326,-2.4381,-2.4381,-2.4381,-2.4309,-2.42,-2.4189,-2.4007,-2.3751,-2.3677,-2.353,-2.3298,-2.3261,-2.3161,-2.2815,-2.2703,-2.2515,-2.2289,-2.2025,-2.1873,-2.1807,-2.1617,-2.1397,-2.1436,-2.1282,-2.1244,-2.1282,-2.1215,-2.1474,-2.1645,-2.1596,-2.151,-2.1375,-2.1237,-2.1191,-2.1125,-2.1106,-2.1088,-2.0991,-2.0846,-2.0603,-2.0367,-2.0202,-2.001,-1.9785,-1.9707,-1.9744,-1.9707,-1.9717,-1.9727,-1.9736,-1.9736,-1.9746,-1.9766,-1.9803,-1.9764,-1.9736,-1.9502,-1.9297,-1.9336,-1.9394,-1.9473,-1.9531,-1.9619,-1.9687,-1.9756,-2.0078,-2.0107,-2.0205,-2.0283,-2.0556,-2.0586,-2.0605,-2.0615,-2.0615,-2.0615,-2.0615,-2.0615,-2.0615,-2.0615,-2.0615,-2.0615,-2.0615,-2.0615,-2.0615,-2.0615,-2.0615,-2.0615,-2.0615,-2.0615,-2.0615,-2.0605,-2.0595,-2.077,-2.0935,-2.1167,-2.1436,-2.1845,-2.2214,-2.2419,-2.2793,-2.353,-2.4129,-2.4552,-2.4885,-2.5031,-2.4638,-2.4071,-2.4366,-2.4891,-2.4126,-2.3733,-2.4147,-2.3992,-2.3612,-2.3567,-2.3556,-2.3593,-2.3593,-2.3593,-2.3567,-2.3556,-2.3446,-2.3309,-2.3261,-2.3075,-2.2815,-2.2729,-2.2628,-2.244,-2.2289,-2.2138,-2.1959,-2.1693,-2.1578,-2.1464,-2.132,-2.1205,-2.1167,-2.1079,-2.1089,-2.1128,-2.1079,-2.1167,-2.1205,-2.1205,-2.1205,-2.1167,-2.1128,-2.1051,-2.1012,-2.0974,-2.0935,-2.0858,-2.0702,-2.0615,-2.0536,-2.0488,-2.0507,-2.0478,-2.0507,-2.0537,-2.0566,-2.0595,-2.0595,-2.0527,-2.0478,-2.0468,-2.0439,-2.04,-2.0429,-2.0282,-1.9805,-1.9482,-1.9502,-1.9785,-1.9902,-2.0019,-2.0165,-2.0361,-2.0546,-2.0527,-2.0507,-2.0537,-2.0537,-2.0605,-2.0605,-2.0615,-2.0615,-2.0615,-2.0615,-2.0615,-2.0615,-2.0615,-2.0615,-2.0615,-2.0615,-2.0615,-2.0615,-2.0615,-2.0615,-2.0615,-2.0615,-2.0615,-2.0615,-2.0615,-2.0605,-2.0605,-2.0731,-2.0896,-2.1128,-2.1397,-2.1741,-2.2025,-2.222,-2.2756,-2.3686,-2.4281,-2.4728,-2.5028,-2.5191,-2.5312,-2.4813,-2.5193,-2.5586,-2.2912,-2.2794,-2.2897,-2.2907,-2.2751,-2.2729,-2.29,-2.315,-2.315,-2.3102,-2.2964,-2.2964,-2.2889,-2.2665,-2.2654,-2.258,-2.2515,-2.2451,-2.2365,-2.2176,-2.1921,-2.1807,-2.1627,-2.1436,-2.132,-2.1205,-2.1089,-2.0974,-2.0935,-2.0886,-2.0809,-2.077,-2.0848,-2.0809,-2.0809,-2.0799,-2.0886,-2.0935,-2.0886,-2.0848,-2.0809,-2.0731,-2.0731,-2.0693,-2.0644,-2.0615,-2.0615,-2.0615,-2.0615,-2.0615,-2.0615,-2.0615,-2.0615,-2.0615,-2.0605,-2.0605,-2.0595,-2.0595,-2.0615,-2.0615,-2.0615,-2.0615,-2.0302,-2.0312,-2.0282,-2.0273,-2.0332,-2.0391,-2.0468,-2.0566,-2.0615,-2.0615,-2.0615,-2.0615,-2.0615,-2.0615,-2.0615,-2.0615,-2.0615,-2.0615,-2.0615,-2.0615,-2.0615,-2.0615,-2.0615,-2.0615,-2.0615,-2.0615,-2.0615,-2.0615,-2.0615,-2.0615,-2.0615,-2.0615,-2.0615,-2.0615,-2.0615,-2.0615,-2.0693,-2.0858,-2.1128,-2.1359,-2.1627,-2.1987,-2.2381,-2.3071,-2.3912,-2.4411,-2.4763,-2.5004,-2.5182,-2.5463,-2.5738,-2.5912,-2.6088,-2.2289,-2.23,-2.2365,-2.2365,-2.2252,-2.2176,-2.2252,-2.244,-2.2665,-2.2665,-2.2601,-2.259,-2.2478,-2.23,-2.2214,-2.2101,-2.2025,-2.1883,-2.1807,-2.1693,-2.1617,-2.1512,-2.132,-2.1215,-2.1089,-2.1022,-2.0896,-2.077,-2.0731,-2.0693,-2.0615,-2.0654,-2.0615,-2.0615,-2.0605,-2.0644,-2.0693,-2.0693,-2.0693,-2.0615,-2.0615,-2.0615,-2.0615,-2.0615,-2.0615,-2.0615,-2.0615,-2.0615,-2.0615,-2.0615,-2.0615,-2.0615,-2.0615,-2.0615,-2.0615,-2.0615,-2.0615,-2.0615,-2.0615,-2.0615,-2.0615,-2.0615,-2.0615,-2.0576,-2.0556,-2.0527,-2.0556,-2.0576,-2.0595,-2.0615,-2.0615,-2.0615,-2.0615,-2.0615,-2.0615,-2.0615,-2.0615,-2.0615,-2.0615,-2.0615,-2.0615,-2.0615,-2.0615,-2.0615,-2.0615,-2.0615,-2.0615,-2.0615,-2.0615,-2.0615,-2.0615,-2.0615,-2.0615,-2.0615,-2.0615,-2.0615,-2.0615,-2.0615,-2.0615,-2.0809,-2.1089,-2.132,-2.1578,-2.2101,-2.2692,-2.3316,-2.39,-2.4363,-2.4679,-2.492,-2.5159,-2.55,-2.5826,-2.6032,-2.6214,-2.2025,-2.2035,-2.2252,-2.2138,-2.1997,-2.1807,-2.1665,-2.155,-2.2073,-2.23,-2.2252,-2.2252,-2.2138,-2.1911,-2.1797,-2.1655,-2.1578,-2.1436,-2.1397,-2.1205,-2.1244,-2.1167,-2.1128,-2.0984,-2.0896,-2.0819,-2.0741,-2.0654,-2.0615,-2.0615,-2.0615,-2.0615,-2.0615,-2.0615,-2.0615,-2.0615,-2.0615,-2.0615,-2.0615,-2.0615,-2.0615,-2.0615,-2.0615,-2.0615,-2.0615,-2.0615,-2.0615,-2.0615,-2.0615,-2.0615,-2.0615,-2.0615,-2.0615,-2.0615,-2.0615,-2.0615,-2.0615,-2.0615,-2.0615,-2.0615,-2.0615,-2.0615,-2.0615,-2.0615,-2.0615,-2.0615,-2.0615,-2.0615,-2.0615,-2.0615,-2.0615,-2.0615,-2.0615,-2.0615,-2.0615,-2.0615,-2.0615,-2.0615,-2.0615,-2.0615,-2.0615,-2.0615,-2.0615,-2.0615,-2.0615,-2.0615,-2.0615,-2.0615,-2.0615,-2.0615,-2.0615,-2.0615,-2.0615,-2.0615,-2.0615,-2.0615,-2.0615,-2.0615,-2.0615,-2.0731,-2.1022,-2.1244,-2.1492,-2.2052,-2.2644,-2.3172,-2.3697,-2.416,-2.4571,-2.4825,-2.5123,-2.5549,-2.5865,-2.6062,-2.6258,-2.1387,-2.1397,-2.1474,-2.1464,-2.1436,-2.1359,-2.132,-2.1282,-2.1397,-2.1492,-2.1502,-2.1502,-2.1502,-2.1464,-2.1397,-2.132,-2.1244,-2.1167,-2.1215,-2.1138,-2.1061,-2.0974,-2.0935,-2.0819,-2.0693,-2.0644,-2.0605,-2.0615,-2.0615,-2.0615,-2.0615,-2.0615,-2.0615,-2.0615,-2.0615,-2.0615,-2.0615,-2.0615,-2.0615,-2.0615,-2.0615,-2.0615,-2.0615,-2.0615,-2.0615,-2.0615,-2.0615,-2.0615,-2.0615,-2.0615,-2.0615,-2.0615,-2.0615,-2.0615,-2.0615,-2.0615,-2.0615,-2.0615,-2.0615,-2.0615,-2.0615,-2.0615,-2.0615,-2.0615,-2.0615,-2.0615,-2.0615,-2.0615,-2.0615,-2.0615,-2.0615,-2.0615,-2.0615,-2.0615,-2.0615,-2.0615,-2.0615,-2.0615,-2.0615,-2.0615,-2.0615,-2.0615,-2.0615,-2.0615,-2.0615,-2.0615,-2.0615,-2.0615,-2.0615,-2.0615,-2.0615,-2.0615,-2.0615,-2.0615,-2.0615,-2.0615,-2.0615,-2.0615,-2.0615,-2.078,-2.0945,-2.1244,-2.153,-2.2042,-2.2569,-2.3049,-2.3553,-2.4004,-2.4368,-2.4718,-2.5052,-2.543,-2.5748,-2.5992,-2.6188,-2.1215,-2.1215,-2.1215,-2.1215,-2.1205,-2.1089,-2.1051,-2.1061,-2.0964,-2.0925,-2.0964,-2.1089,-2.1215,-2.1177,-2.1138,-2.1061,-2.1061,-2.0964,-2.0925,-2.0896,-2.0858,-2.077,-2.0693,-2.0654,-2.0654,-2.0605,-2.0605,-2.0615,-2.0615,-2.0615,-2.0615,-2.0615,-2.0615,-2.0615,-2.0615,-2.0615,-2.0615,-2.0615,-2.0615,-2.0615,-2.0615,-2.0615,-2.0615,-2.0615,-2.0615,-2.0615,-2.0615,-2.0615,-2.0615,-2.0615,-2.0615,-2.0615,-2.0615,-2.0615,-2.0615,-2.0615,-2.0615,-2.0615,-2.0615,-2.0615,-2.0615,-2.0615,-2.0615,-2.0615,-2.0615,-2.0615,-2.0615,-2.0615,-2.0615,-2.0615,-2.0615,-2.0615,-2.0615,-2.0615,-2.0615,-2.0615,-2.0615,-2.0615,-2.0615,-2.0615,-2.0615,-2.0615,-2.0615,-2.0615,-2.0615,-2.0615,-2.0615,-2.0615,-2.0615,-2.0615,-2.0615,-2.0615,-2.0615,-2.0615,-2.0615,-2.0615,-2.0615,-2.0615,-2.0615,-2.0819,-2.1022,-2.132,-2.1655,-2.2128,-2.2531,-2.2927,-2.3383,-2.3835,-2.4321,-2.4718,-2.4993,-2.5299,-2.5594,-2.5923,-2.6154,-2.1128,-2.1128,-2.1128,-2.1128,-2.1089,-2.0935,-2.0858,-2.0829,-2.0683,-2.0605,-2.0673,-2.0964,-2.1128,-2.1051,-2.0984,-2.0906,-2.0829,-2.077,-2.0683,-2.0644,-2.0654,-2.0654,-2.0654,-2.0615,-2.0615,-2.0615,-2.0615,-2.0615,-2.0615,-2.0615,-2.0615,-2.0615,-2.0615,-2.0615,-2.0615,-2.0615,-2.0615,-2.0615,-2.0615,-2.0615,-2.0615,-2.0615,-2.0615,-2.0615,-2.0615,-2.0615,-2.0615,-2.0615,-2.0615,-2.0615,-2.0615,-2.0615,-2.0615,-2.0615,-2.0615,-2.0615,-2.0615,-2.0615,-2.0615,-2.0615,-2.0615,-2.0615,-2.0615,-2.0615,-2.0615,-2.0615,-2.0615,-2.0615,-2.0615,-2.0615,-2.0615,-2.0615,-2.0615,-2.0615,-2.0615,-2.0615,-2.0615,-2.0615,-2.0615,-2.0615,-2.0615,-2.0615,-2.0615,-2.0615,-2.0615,-2.0615,-2.0615,-2.0615,-2.0615,-2.0615,-2.0615,-2.0615,-2.0615,-2.0615,-2.0615,-2.0615,-2.0615,-2.0615,-2.0654,-2.0858,-2.1089,-2.1282,-2.1617,-2.2176,-2.259,-2.2852,-2.3272,-2.3725,-2.4175,-2.4682,-2.4874,-2.5145,-2.5664,-2.5957,-2.6119,-2.0731,-2.0722,-2.0722,-2.0722,-2.0731,-2.0683,-2.0654,-2.0644,-2.0605,-2.0615,-2.0605,-2.0644,-2.0722,-2.0722,-2.0683,-2.0693,-2.0702,-2.0605,-2.0605,-2.0615,-2.0615,-2.0615,-2.0615,-2.0615,-2.0615,-2.0615,-2.0615,-2.0615,-2.0615,-2.0615,-2.0615,-2.0615,-2.0615,-2.0615,-2.0615,-2.0615,-2.0615,-2.0615,-2.0615,-2.0615,-2.0615,-2.0615,-2.0615,-2.0615,-2.0615,-2.0615,-2.0615,-2.0615,-2.0615,-2.0615,-2.0615,-2.0615,-2.0615,-2.0615,-2.0615,-2.0615,-2.0615,-2.0615,-2.0615,-2.0615,-2.0615,-2.0615,-2.0615,-2.0615,-2.0615,-2.0615,-2.0615,-2.0615,-2.0615,-2.0615,-2.0615,-2.0615,-2.0615,-2.0615,-2.0615,-2.0615,-2.0615,-2.0615,-2.0615,-2.0615,-2.0615,-2.0615,-2.0615,-2.0615,-2.0615,-2.0615,-2.0615,-2.0615,-2.0615,-2.0615,-2.0615,-2.0615,-2.0615,-2.0615,-2.0615,-2.0615,-2.0615,-2.0615,-2.0654,-2.0848,-2.1012,-2.1167,-2.1578,-2.2138,-2.2478,-2.274,-2.3161,-2.3615,-2.4127,-2.455,-2.472,-2.5039,-2.5604,-2.5945,-2.6119]},{"header":{"parameterUnit":"m.s-1","parameterCategory":1,"la1":31.0,"la2":29.5877,"lo1":-88.7671,"lo2":-86.6584,"dy":0.0162,"dx":0.0185,"nx":115,"ny":88,"refTime":"2024-08-28T06:00:00:Z","depth":0,"parameterNumber":3,"parameterNumberName":"V-component_of_WINDS"},"data":[0.0,0.0,0.0,0.0,0.0,0.0,0.0,0.0,0.0,0.0,0.0,0.0,0.0,0.0,0.0,0.0,0.0,0.0,0.0,0.0,0.0,0.0,0.0,0.0,0.0,0.0,0.0,0.0,0.0,0.0,0.0,0.0,0.0,0.0,0.0,0.0,0.0,0.0,0.0,0.0,0.0,0.0,0.0,0.0,0.0,0.0,0.0,0.0,0.0,0.0,0.0,0.0,0.0,0.0,0.0,0.0,0.0,0.0,0.0,0.0,0.0,0.0,0.0,0.0,0.0,0.0,0.0,0.0,0.0,0.0,0.0,0.0,0.0,0.0,0.0,0.0,0.0,0.0,0.0,0.0,0.0,0.0,0.0,0.0,0.0,0.0,0.0,0.0,0.0,0.0,0.0,0.0,0.0,0.0,0.0,0.0,0.0,0.0,0.0,0.0,0.0,0.0,0.0,0.0,0.0,0.0,0.0,0.0,0.0,0.0,0.0,0.0,0.0,0.0,0.0,0.0,0.0,0.0,0.0,0.0,0.0,0.0,0.0,0.0,0.0,0.0,0.0,0.0,0.0,0.0,0.0,0.0,0.0,0.0,0.0,0.0,0.0,0.0,0.0,0.0,0.0,0.0,0.0,0.0,0.0,0.0,0.0,0.0,0.0,0.0,0.0,0.0,0.0,0.0,0.0,0.0,0.0,0.0,0.0,0.0,0.0,0.0,0.0,0.0,0.0,0.0,0.0,0.0,0.0,0.0,0.0,0.0,0.0,0.0,0.0,0.0,0.0,0.0,0.0,0.0,0.0,0.0,0.0,0.0,0.0,0.0,0.0,0.0,0.0,0.0,0.0,0.0,0.0,0.0,0.0,0.0,0.0,0.0,0.0,0.0,0.0,0.0,0.0,0.0,0.0,0.0,0.0,0.0,0.0,0.0,0.0,0.0,0.0,0.0,0.0,0.0,0.0,0.0,0.0,0.0,0.0,0.0,0.0,0.0,0.0,0.0,0.0,0.0,0.0,0.0,0.0,0.0,0.0,0.0,0.0,0.0,0.0,0.0,0.0,0.0,0.0,0.0,0.0,0.0,0.0,0.0,0.0,0.0,0.0,0.0,0.0,0.0,0.0,0.0,0.0,0.0,0.0,0.0,0.0,0.0,0.0,0.0,0.0,0.0,0.0,0.0,0.0,0.0,0.0,0.0,0.0,0.0,0.0,0.0,0.0,0.0,0.0,0.0,0.0,0.0,0.0,0.0,0.0,0.0,0.0,0.0,0.0,0.0,0.0,0.0,0.0,0.0,0.0,0.0,0.0,0.0,0.0,0.0,0.0,0.0,0.0,0.0,0.0,0.0,0.0,0.0,0.0,0.0,0.0,0.0,0.0,0.0,0.0,0.0,0.0,0.0,0.0,0.0,0.0,0.0,0.0,0.0,0.0,0.0,0.0,0.0,0.0,0.0,0.0,0.0,0.0,0.0,0.0,0.0,0.0,0.0,0.0,0.0,0.0,0.0,0.0,0.0,0.0,0.0,0.0,0.0,0.0,0.0,0.0,0.0,0.0,0.0,0.0,0.0,0.0,0.0,0.0,0.0,0.0,0.0,0.0,0.0,0.0,0.0,0.0,0.0,0.0,0.0,0.0,0.0,0.0,0.0,0.0,0.0,0.0,0.0,0.0,0.0,0.0,0.0,0.0,0.0,0.0,0.0,0.0,0.0,0.0,0.0,0.0,0.0,0.0,0.0,0.0,0.0,0.0,0.0,0.0,0.0,0.0,0.0,0.0,0.0,0.0,0.0,0.0,0.0,0.0,0.0,0.0,0.0,0.0,0.0,0.0,0.0,0.0,0.0,0.0,0.0,0.0,0.0,0.0,0.0,0.0,0.0,0.0,0.0,0.0,0.0,0.0,0.0,0.0,0.0,0.0,0.0,0.0,0.0,0.0,0.0,0.0,0.0,0.0,0.0,0.0,0.0,0.0,0.0,0.0,0.0,0.0,0.0,0.0,0.0,0.0,0.0,0.0,0.0,0.0,0.0,0.0,0.0,0.0,0.0,0.0,0.0,0.0,0.0,0.0,0.0,0.0,0.0,0.0,0.0,0.0,0.0,0.0,0.0,0.0,0.0,0.0,0.0,0.0,0.0,0.0,0.0,0.0,0.0,0.0,0.0,0.0,0.0,0.0,0.0,0.0,0.0,0.0,0.0,0.0,0.0,0.0,0.0,0.0,0.0,0.0,0.0,0.0,0.0,0.0,0.0,0.0,0.0,0.0,0.0,0.0,0.0,0.0,0.0,0.0,0.0,0.0,0.0,0.0,0.0,0.0,0.0,0.0,0.0,0.0,0.0,0.0,0.0,0.0,0.0,0.0,0.0,0.0,0.0,0.0,0.0,0.0,0.0,0.0,0.0,0.0,0.0,0.0,0.0,0.0,0.0,0.0,0.0,0.0,0.0,0.0,0.0,0.0,0.0,0.0,0.0,0.0,0.0,0.0,0.0,0.0,0.0,0.0,0.0,0.0,0.0,0.0,0.0,0.0,0.0,0.0,0.0,0.0,0.0,0.0,0.0,0.0,0.0,0.0,0.0,0.0,0.0,0.0,0.0,0.0,0.0,0.0,0.0,0.0,0.0,0.0,0.0,0.0,0.0,0.0,0.0,0.0,0.0,0.0,0.0,0.0,0.0,0.0,0.0,0.0,0.0,0.0,0.0,0.0,0.0,0.0,0.0,0.0,0.0,0.0,0.0,0.0,0.0,0.0,0.0,0.0,0.0,0.0,0.0,0.0,0.0,0.0,0.0,0.0,0.0,0.0,0.0,0.0,0.0,0.0,0.0,0.0,0.0,0.0,0.0,0.0,0.0,0.0,0.0,0.0,0.0,0.0,0.0,0.0,0.0,0.0,0.0,0.0,0.0,0.0,0.0,0.0,0.0,0.0,0.0,0.0,0.0,0.0,0.0,0.0,0.0,0.0,0.0,0.0,0.0,0.0,0.0,0.0,0.0,0.0,0.0,0.0,0.0,0.0,0.0,0.0,0.0,0.0,0.0,0.0,0.0,0.0,0.0,0.0,0.0,0.0,0.0,0.0,0.0,0.0,0.0,0.0,0.0,0.0,0.0,0.0,0.0,0.0,0.0,0.0,0.0,0.0,0.0,0.0,0.0,0.0,0.0,0.0,0.0,0.0,0.0,0.0,0.0,0.0,0.0,0.0,0.0,0.0,0.0,0.0,0.0,0.0,0.0,0.0,0.0,0.0,0.0,0.0,0.0,0.0,0.0,0.0,0.0,0.0,0.0,0.0,0.0,0.0,0.0,0.0,0.0,0.0,0.0,0.0,0.0,0.0,0.0,0.0,0.0,0.0,0.0,0.0,0.0,0.0,0.0,0.0,0.0,0.0,0.0,0.0,0.0,0.0,0.0,0.0,0.0,0.0,0.0,0.0,0.0,0.0,0.0,0.0,0.0,0.0,0.0,0.0,0.0,0.0,0.0,0.0,0.0,0.0,0.0,0.0,0.0,0.0,0.0,0.0,0.0,0.0,0.0,0.0,0.0,0.0,0.0,0.0,0.0,0.0,0.0,0.0,0.0,0.0,0.0,0.0,0.0,0.0,0.0,0.0,0.0,0.0,0.0,0.0,0.0,0.0,0.0,0.0,0.0,0.0,0.0,0.0,0.0,0.0,0.0,0.0,0.0,0.0,0.0,0.0,0.0,0.0,0.0,0.0,0.0,0.0,0.0,0.0,0.0,0.0,0.0,0.0,0.0,0.0,0.0,0.0,0.0,0.0,0.0,0.0,0.0,0.0,0.0,0.0,0.0,0.0,0.0,0.0,0.0,0.0,0.0,0.0,0.0,0.0,0.0,0.0,0.0,0.0,0.0,0.0,0.0,0.0,0.0,0.0,0.0,0.0,0.0,0.0,0.0,0.0,0.0,0.0,0.0,0.0,0.0,0.0,0.0,0.0,0.0,0.0,0.0,0.0,0.0,0.0,0.0,0.0,0.0,0.0,0.0,0.0,0.0,0.0,0.0,0.0,0.0,0.0,0.0,0.0,0.0,0.0,0.0,0.0,0.0,0.0,0.0,0.0,0.0,0.0,0.0,0.0,0.0,0.0,0.0,0.0,0.0,0.0,0.0,0.0,0.0,0.0,0.0,0.0,0.0,0.0,0.0,0.0,0.0,0.0,0.0,0.0,0.0,0.0,0.0,0.0,0.0,0.0,0.0,0.0,0.0,0.0,0.0,0.0,0.0,0.0,0.0,0.0,0.0,0.0,0.0,0.0,0.0,0.528,0.0,0.0,0.0,0.0,0.0,0.0,0.0,0.0,0.0,0.0,0.0,0.0,0.0,0.0,0.0,0.0,0.0,0.0,0.0,0.0,0.0,0.0,0.0,0.0,0.0,0.0,0.0,0.0,0.0,0.0,0.0,0.0,0.0,0.0,0.0,0.0,0.0,0.0,0.0,0.0,0.0,0.0,0.0,0.0,0.0,0.0,0.0,0.0,0.0,0.0,0.0,0.0,0.0,0.0,0.0,0.0,0.0,0.0,0.0,0.0,0.0,0.0,0.0,0.0,0.0,0.0,0.0,0.0,0.0,0.0,0.0,0.0,0.0,0.0,0.0,0.0,0.0,0.0,0.0,0.0,0.0,0.0,0.0,0.0,0.0,0.0,0.0,0.0,0.0,0.0,0.0,0.0,0.0,0.0,0.0,0.0,0.0,0.0,0.0,0.0,0.0,0.0,0.0,0.0,0.0,0.0,0.0,0.0,0.0,0.0,0.5665,0.6144,0.6179,0.6279,0.6452,0.0,0.0,0.0,0.0,0.0,0.0,0.0,0.0,0.0,0.0,0.0,0.0,0.0,0.0,0.0,0.0,0.0,0.0,0.0,0.0,0.0,0.0,0.0,0.0,0.0,0.0,0.0,0.0,0.0,0.0,0.0,0.0,0.0,0.0,0.0,0.0,0.0,0.0,0.0,0.0,0.0,0.0,0.0,0.0,0.0,0.0,0.0,0.0,0.0,0.0,0.0,0.0,0.0,0.0,0.0,0.0,0.0,0.0,0.0,0.0,0.0,0.0,0.0,0.0,0.0,0.0,0.0,0.0,0.0,0.0,0.0,0.0,0.0,0.0,0.0,0.0,0.0,0.0,0.0,0.0,0.0,0.0,0.0,0.0,0.0,0.0,0.0,0.0,0.0,0.0,0.0,0.0,0.0,0.0,0.0,0.0,0.0,0.0,0.0,0.0,0.0,0.0,0.0,0.0,0.0,0.0,0.0,0.0,0.0,0.0,0.0,0.0,0.7129,0.7266,0.7308,0.0,0.0,0.0,0.0,0.0,0.0,0.0,0.0,0.0,0.0,0.0,0.0,0.0,0.0,0.0,0.0,0.0,0.0,0.0,0.0,0.0,0.0,0.0,0.0,0.0,0.0,0.0,0.0,0.0,0.0,0.0,0.0,0.0,0.0,0.0,0.0,0.0,0.0,0.0,0.0,0.0,0.0,0.0,0.0,0.0,0.0,0.0,0.0,0.0,0.0,0.0,0.0,0.0,0.0,0.0,0.0,0.0,0.0,0.0,0.0,0.0,0.0,0.0,0.0,0.0,0.0,0.0,0.0,0.0,0.0,0.0,0.0,0.0,0.0,0.0,0.0,0.0,0.0,0.0,0.0,0.0,0.0,0.0,0.0,0.0,0.0,0.0,0.0,0.0,0.0,0.0,0.0,0.0,0.0,0.0,0.0,0.0,0.0,0.0,0.0,0.0,0.0,0.0,0.0,0.0,0.0,0.0,0.0,0.0,0.0,0.7422,0.7692,0.784,0.0,0.7464,0.0,0.0,0.0,0.0,0.0,0.0,0.0,0.0,0.0,0.0,0.0,0.0,0.0,0.0,0.0,0.0,0.0,0.0,0.0,0.0,0.0,0.0,0.0,0.0,0.0,0.0,0.0,0.0,0.0,0.0,0.0,0.0,0.0,0.0,0.0,0.0,0.0,0.0,0.0,0.0,0.0,0.0,0.0,0.0,0.0,0.0,0.0,0.0,0.0,0.0,0.0,0.0,0.0,0.0,0.0,0.0,0.0,0.0,0.0,0.0,0.0,0.0,0.0,0.0,0.0,0.0,0.0,0.0,0.0,0.0,0.0,0.0,0.0,0.0,0.0,0.0,0.0,0.0,0.0,0.0,0.0,0.0,0.0,0.0,0.0,0.0,0.0,0.0,0.0,0.0,0.0,0.0,0.0,0.0,0.0,0.0,0.0,0.0,0.0,0.0,0.0,0.0,0.0,0.0,0.0,0.0,0.0,0.0,0.0,0.0,0.0,0.8406,0.8563,0.8599,0.0,0.0,0.0,0.0,0.0,0.0,0.0,0.0,0.0,0.0,0.0,0.0,0.0,0.0,0.0,0.0,0.0,0.0,0.0,0.0,0.0,0.0,0.0,0.0,0.0,0.0,0.0,0.0,0.0,0.0,0.0,0.0,0.0,0.0,0.0,0.0,0.0,0.0,0.0,0.0,0.0,0.0,0.0,0.0,0.0,0.0,0.0,0.0,0.0,0.0,0.0,0.0,0.0,0.0,0.0,0.0,0.0,0.0,0.0,0.0,0.0,0.0,0.0,0.0,0.0,0.0,0.0,0.0,0.0,0.0,0.0,0.0,0.0,0.0,0.0,0.0,0.0,0.0,0.0,0.0,0.0,0.0,0.0,0.0,0.0,0.0,0.0,0.0,0.0,0.0,0.0,0.0,0.0,0.0,0.0,0.0,0.0,0.0,0.0,0.0,0.0,0.0,0.0,0.0,0.0,0.0,0.0,0.0,0.0,0.0,0.8655,0.0,0.9004,0.9182,0.9292,0.9353,0.0,0.0,0.0,0.0,0.0,0.0,0.0,0.0,0.0,0.0,0.0,0.0,0.0,0.0,0.0,0.0,0.0,0.0,0.0,0.0,0.0,0.0,0.0,0.0,0.0,0.0,0.0,0.0,0.0,0.0,0.0,0.0,0.0,0.0,0.0,0.0,0.0,0.0,0.0,0.0,0.0,0.0,0.0,0.0,0.0,0.0,0.0,0.0,0.0,0.0,0.0,0.0,0.0,0.0,0.0,0.0,0.0,0.0,0.0,0.0,0.0,0.0,0.0,0.0,0.0,0.0,0.0,0.0,0.0,0.0,0.0,0.0,0.0,0.0,0.0,0.0,0.0,0.0,0.0,0.0,0.0,0.0,0.0,0.0,0.0,0.0,0.0,0.0,0.0,0.0,0.0,0.0,0.0,0.0,0.0,0.0,0.0,0.0,0.0,0.0,0.0,0.0,0.0,0.0,0.0,0.0,0.0,0.0,0.0,0.9202,0.9378,0.9566,0.965,0.9701,0.0,0.0,0.0,0.0,0.0,0.0,0.0,0.0,0.0,0.0,0.0,0.0,0.0,0.0,0.0,0.0,0.0,0.0,0.0,0.0,0.0,0.0,0.0,0.0,0.0,0.0,0.0,0.0,0.0,0.0,0.0,0.0,0.0,0.0,0.0,0.0,0.0,0.0,0.0,0.0,0.0,0.0,0.0,0.0,0.0,0.0,0.0,0.0,0.0,0.0,0.0,0.0,0.0,0.0,0.0,0.0,0.0,0.0,0.0,0.0,0.0,0.0,0.0,0.0,0.0,0.0,0.0,0.0,0.0,0.0,0.0,0.0,0.0,0.0,0.0,0.0,0.0,0.0,0.0,0.0,0.0,0.0,0.0,0.0,0.0,0.0,0.0,0.0,0.0,0.0,0.0,0.0,0.0,0.0,0.0,0.0,0.0,0.0,0.0,0.0,0.0,0.0,0.0,0.0,0.0,0.0,0.0,0.0,0.0,0.9496,1.0152,1.0297,0.0,1.0409,1.0497,0.0,0.0,0.0,0.0,0.0,0.0,0.0,0.0,0.0,0.0,0.0,0.0,0.0,0.0,0.0,0.0,0.0,0.0,0.0,0.0,0.0,0.0,0.0,0.0,0.0,0.0,0.0,0.0,0.0,0.0,0.0,0.0,0.0,0.0,0.0,0.0,0.0,0.0,0.0,0.0,0.0,0.0,0.0,0.0,0.0,0.0,0.0,0.0,0.0,0.0,0.0,0.0,0.0,0.0,0.0,0.0,0.0,0.0,0.0,0.0,0.0,0.0,0.0,0.0,0.0,0.0,0.0,0.0,0.0,0.0,0.0,0.0,0.0,0.0,0.0,0.0,0.0,0.0,0.0,0.0,0.0,0.0,0.0,0.0,0.0,0.0,0.0,0.0,0.0,0.0,0.0,0.0,0.0,0.0,0.0,0.0,0.0,0.0,0.0,0.0,0.0,0.0,0.0,0.0,0.0,0.0,0.0,0.0,0.0,1.0258,0.0,1.103,0.0,1.1057,1.0972,0.0,0.0,0.0,0.0,0.0,0.0,0.0,0.0,0.0,0.0,0.0,0.0,0.0,0.0,0.0,0.0,0.0,0.0,0.0,0.0,0.0,0.0,0.0,0.0,0.0,0.0,0.0,0.0,0.0,0.0,0.0,0.0,0.0,0.0,0.0,0.0,0.0,0.0,0.0,0.0,0.0,0.0,0.0,0.0,0.0,0.0,0.0,0.0,0.0,0.0,0.0,0.0,0.0,0.0,0.0,0.0,0.0,0.0,0.0,0.0,0.0,0.0,0.0,0.0,0.0,0.0,0.0,0.0,0.0,0.0,0.0,0.0,0.0,0.0,0.0,0.0,0.0,0.0,0.0,0.0,0.0,0.0,0.0,0.0,0.0,0.0,0.0,0.0,0.0,0.0,0.0,0.0,0.0,0.0,0.0,0.0,0.0,0.0,0.0,0.0,0.0,0.0,0.0,0.0,0.0,0.0,0.0,0.0,1.0457,1.1331,1.1507,1.1582,1.1508,1.1534,1.1127,0.0,0.0,0.0,0.0,0.0,0.0,0.0,0.0,0.0,0.0,0.0,0.0,0.0,0.0,0.0,0.0,0.0,0.0,0.0,0.0,0.0,0.0,0.0,0.0,0.0,0.0,0.0,0.0,0.0,0.0,0.0,0.0,0.0,0.0,0.0,0.0,0.0,0.0,0.0,0.0,0.0,0.0,0.0,0.0,0.0,0.0,0.0,0.0,0.0,0.0,0.0,0.0,0.0,0.0,0.0,0.0,0.0,0.0,0.0,0.0,0.0,0.0,0.0,0.0,0.0,0.0,0.0,0.0,0.0,0.0,0.0,0.0,0.0,0.0,0.0,0.0,0.0,0.0,0.0,0.0,0.0,0.0,0.0,0.0,0.0,0.0,0.0,0.0,0.0,0.0,0.0,0.0,0.0,0.0,0.0,0.0,0.0,0.0,0.0,0.0,0.0,0.0,0.0,0.0,0.0,0.0,0.0,0.0,0.0,1.1495,1.2675,1.3007,1.2438,1.2397,1.1984,0.0,0.0,0.0,0.0,0.0,0.0,0.0,0.0,0.0,0.0,0.0,0.0,0.0,0.0,0.0,0.0,0.0,0.0,0.0,0.0,0.0,0.0,0.0,0.0,0.0,0.0,0.0,0.0,0.0,0.0,0.0,0.0,0.0,0.0,0.0,0.0,0.0,0.0,0.0,0.0,0.0,0.0,0.0,0.0,0.0,0.0,0.0,0.0,0.0,0.0,0.0,0.0,0.0,0.0,0.0,0.0,0.0,0.0,0.0,0.0,0.0,0.0,0.0,0.0,0.0,0.0,0.0,0.0,0.0,0.0,0.0,0.0,0.0,0.0,0.0,0.0,0.0,0.0,0.0,0.0,0.0,0.0,0.0,0.0,0.0,0.0,0.0,0.0,0.0,0.0,0.0,0.0,0.0,0.0,0.0,0.0,0.0,0.0,0.0,0.0,0.0,0.0,0.0,0.0,0.0,0.0,0.0,0.0,0.0,1.2952,1.3982,1.4288,1.3728,1.372,1.3032,1.1552,0.0,0.0,0.0,0.0,0.0,0.0,0.0,0.0,0.0,0.0,0.0,0.0,0.0,0.0,0.0,0.0,0.0,0.0,0.0,0.0,0.0,0.0,0.0,0.0,0.0,0.0,0.0,0.0,0.0,0.0,0.0,0.0,0.0,0.0,0.0,0.0,0.0,0.0,0.0,0.0,0.0,0.0,0.0,0.0,0.0,0.0,0.0,0.0,0.0,0.0,0.0,0.0,0.0,0.0,0.0,0.0,0.0,0.0,0.0,0.0,0.0,0.0,0.0,0.0,0.0,0.0,0.0,0.0,0.0,0.0,0.0,0.0,0.0,0.0,0.0,0.0,0.0,0.0,0.0,0.0,0.0,0.0,0.0,0.0,0.0,0.0,0.0,0.0,0.0,0.0,0.0,0.0,0.0,0.0,0.0,0.0,0.0,0.0,0.0,0.0,0.0,0.0,0.0,0.0,0.0,0.0,0.0,0.0,1.5483,1.5561,1.555,1.5449,1.533,1.4153,0.0,0.0,0.0,0.0,0.0,0.0,0.0,0.0,0.0,0.0,0.0,0.0,0.0,0.0,0.0,0.0,0.0,0.0,0.0,0.0,0.0,0.0,0.0,0.0,0.0,0.0,0.0,0.0,0.0,0.0,0.0,0.0,0.0,0.0,0.0,0.0,0.0,0.0,0.0,0.0,0.0,0.0,0.0,0.0,0.0,0.0,0.0,0.0,0.0,0.0,0.0,0.0,0.0,0.0,0.0,0.0,0.0,0.0,0.0,0.0,0.0,0.0,0.0,0.0,0.0,0.0,0.0,0.0,0.0,0.0,0.0,0.0,0.0,0.0,0.0,0.0,0.0,0.0,0.0,0.0,0.0,0.0,0.0,0.0,0.0,0.0,0.0,0.0,0.0,0.0,0.0,0.0,0.0,0.0,0.0,0.0,0.0,0.0,0.0,0.0,0.0,0.0,0.0,0.0,0.0,0.0,0.0,0.0,0.0,1.7953,1.8657,1.8397,1.717,1.5895,1.463,0.0,0.0,0.0,0.0,0.0,0.0,0.0,0.0,0.0,0.0,0.0,0.0,0.0,0.0,0.0,0.0,0.0,0.0,0.0,0.0,0.0,0.0,0.0,0.0,0.0,0.0,0.0,0.0,0.0,0.0,0.0,0.0,0.0,0.0,0.0,0.0,0.0,0.0,0.0,0.0,0.0,0.0,0.0,0.0,0.0,0.0,0.0,0.0,0.0,0.0,0.0,0.0,0.0,0.0,0.0,0.0,0.0,0.0,0.0,0.0,0.0,0.0,0.0,0.0,0.0,0.0,0.0,0.0,0.0,0.0,0.0,0.0,0.0,0.0,0.0,0.0,0.0,0.0,0.0,0.0,0.0,0.0,0.0,0.0,0.0,0.0,0.0,0.0,0.0,0.0,0.0,0.0,0.0,0.0,0.0,0.0,0.0,0.0,0.0,0.0,0.0,0.0,0.0,0.0,0.0,0.0,0.0,0.0,1.6766,1.8927,2.0134,2.03,1.9345,1.7687,1.59,0.0,0.0,0.0,0.0,0.0,0.0,0.0,0.0,0.0,0.0,0.0,0.0,0.0,0.0,0.0,0.0,0.0,0.0,0.0,0.0,0.0,0.0,0.0,0.0,0.0,0.0,0.0,0.0,0.0,0.0,0.0,0.0,0.0,0.0,0.0,0.0,0.0,0.0,0.0,0.0,0.0,0.0,0.0,0.0,0.0,0.0,0.0,0.0,0.0,0.0,0.0,0.0,0.0,0.0,0.0,0.0,0.0,0.0,0.0,0.0,0.0,0.0,0.0,0.0,0.0,0.0,0.0,0.0,0.0,0.0,0.0,0.0,0.0,0.0,0.0,0.0,0.0,0.0,0.0,0.0,0.0,0.0,0.0,0.0,0.0,0.0,0.0,0.0,0.0,0.0,0.0,0.0,0.0,0.0,0.0,0.0,0.0,0.0,0.0,0.0,0.0,0.0,0.0,0.0,0.0,0.0,0.0,0.0,1.7451,1.9104,2.0757,2.1618,2.1493,1.9894,1.7441,0.0,0.0,0.0,0.0,0.0,0.0,0.0,0.0,0.0,0.0,0.0,0.0,0.0,0.0,0.0,0.0,0.0,0.0,0.0,0.0,0.0,0.0,0.0,0.0,0.0,0.0,0.0,0.0,0.0,0.0,0.0,0.0,0.0,0.0,0.0,0.0,0.0,0.0,0.0,0.0,0.0,0.0,0.0,0.0,0.0,0.0,0.0,0.0,0.0,0.0,0.0,0.0,0.0,0.0,0.0,0.0,0.0,0.0,0.0,0.0,0.0,0.0,0.0,0.0,0.0,0.0,0.0,0.0,0.0,0.0,0.0,0.0,0.0,0.0,0.0,0.0,0.0,0.0,0.0,0.0,0.0,0.0,0.0,0.0,0.0,0.0,0.0,0.0,0.0,0.0,0.0,0.0,0.0,0.0,0.0,0.0,0.0,0.0,0.0,0.0,0.0,0.0,0.0,0.0,0.0,0.0,0.0,0.0,1.899,2.0619,2.2308,2.293,2.2353,2.0186,1.7722,0.0,0.0,0.0,0.0,0.0,0.0,0.0,0.0,0.0,0.0,0.0,0.0,0.0,0.0,0.0,0.0,0.0,0.0,0.0,0.0,0.0,0.0,0.0,0.0,0.0,0.0,0.0,0.0,0.0,0.0,0.0,0.0,0.0,0.0,0.0,0.0,0.0,0.0,0.0,0.0,0.0,0.0,0.0,0.0,0.0,0.0,0.0,0.0,0.4501,0.0,0.0,0.0,0.0,0.0,0.0,0.0,0.0,0.0,0.0,0.0,0.0,0.0,0.0,0.0,0.0,0.0,0.0,0.0,0.0,0.0,0.0,0.0,0.0,0.0,0.0,0.0,0.0,0.0,0.0,0.0,0.0,0.0,0.0,0.0,0.0,0.0,0.0,0.0,0.0,0.0,0.0,0.0,0.0,0.0,0.0,0.0,0.0,0.0,0.0,0.0,0.0,0.0,0.0,0.0,0.0,0.0,0.0,0.0,1.9384,2.0966,2.2709,2.3278,2.2528,2.058,1.8332,0.0,0.0,0.0,0.0,0.0,0.0,0.0,0.0,0.0,0.0,0.0,0.0,0.0,0.0,0.0,0.0,0.0,0.0,0.0,0.0,0.0,0.0,0.0,0.0,0.0,0.0,0.0,0.0,0.0,0.0,0.0,0.0,0.0,0.0,0.0,0.0,0.0,0.0,0.0,0.0,0.0,0.0,0.0,0.0,0.0,0.0,0.0,0.0,0.0,0.0,0.0,0.0,0.0,0.0,0.0,0.0,0.0,0.0,0.0,0.0,0.0,0.0,0.0,0.0,0.0,0.0,0.0,0.0,0.0,0.0,0.0,0.0,0.0,0.0,0.0,0.0,0.0,0.0,0.0,0.0,0.0,0.0,0.0,0.0,0.0,0.0,0.0,0.0,0.0,0.0,0.0,0.0,0.0,0.0,0.0,0.0,0.0,0.0,0.0,0.0,0.0,0.0,0.0,0.0,0.0,0.0,0.0,1.6985,1.9432,2.104,2.2771,2.3284,2.2476,2.0909,1.8919,1.6455,0.0,0.0,0.0,0.0,0.0,0.0,0.0,0.0,0.0,0.0,0.0,0.0,0.0,0.0,0.0,0.0,0.0,0.0,0.0,0.0,0.0,0.0,0.0,0.0,0.0,0.0,0.0,0.0,0.0,0.0,0.0,0.0,0.0,0.0,0.0,0.0,0.0,0.0,0.4268,0.5677,0.0,0.0,0.0,0.0,0.0,0.0,0.0,0.0,0.6287,0.0,0.0,0.0,0.0,0.0,0.0,0.0,0.0,0.0,0.0,0.0,0.0,0.0,0.0,0.0,0.0,0.0,0.0,0.0,0.0,0.0,0.0,0.0,0.0,0.0,0.0,0.0,0.0,0.0,0.0,0.0,0.0,0.0,0.0,0.0,0.0,0.0,0.0,0.0,0.0,0.0,0.0,0.0,0.0,0.0,0.0,0.0,0.0,0.0,0.0,0.0,0.0,0.0,0.0,0.0,0.0,1.4496,1.769,2.014,2.179,2.3526,2.3739,2.2362,2.0833,1.8845,1.6392,0.0,0.0,0.0,0.0,0.0,0.0,0.0,0.0,0.0,0.0,0.0,0.0,0.0,0.0,0.0,0.0,0.0,0.0,0.0,0.0,0.0,0.0,0.0,0.0,0.0,0.0,0.0,0.0,0.0,0.0,0.0,0.0,0.0,0.0,0.0,0.0,0.0,0.0,0.0,0.7645,0.8274,0.0,0.0,0.0,0.0,0.0,0.0,0.0,0.0,0.7573,0.0,0.0,0.0,0.0,0.0,0.0,0.0,0.0,0.0,0.0,0.0,0.0,0.0,0.0,0.0,0.0,0.0,0.0,0.0,0.0,0.0,0.0,0.0,0.0,0.0,0.0,0.0,0.0,0.0,0.0,0.0,0.0,0.0,0.0,0.0,0.0,0.0,0.0,0.0,0.0,0.0,0.0,0.0,0.0,0.0,0.0,0.0,0.0,0.0,0.0,0.0,0.0,0.0,0.0,0.0,1.5288,1.8017,2.024,2.1869,2.3601,2.3772,2.2281,2.0721,1.8758,0.0,0.0,0.0,0.0,0.0,0.0,0.0,0.0,0.0,0.0,0.0,0.0,0.0,0.0,0.0,0.0,0.0,0.0,0.0,0.0,0.0,0.0,0.0,0.0,0.0,0.0,0.0,0.0,0.0,0.0,0.0,0.0,0.0,0.0,0.0,0.0,0.0,0.0,0.0,0.0,0.9212,0.9777,0.9622,0.0,0.0,0.0,0.0,0.0,0.0,0.9705,0.9572,0.0,0.0,0.0,0.0,0.0,0.0,0.0,0.0,0.0,0.0,0.0,0.0,0.0,0.0,0.0,0.0,0.0,0.0,0.0,0.0,0.0,0.0,0.0,0.0,0.0,0.0,0.0,0.0,0.0,0.0,0.0,0.0,0.0,0.0,0.0,0.0,0.0,0.0,0.0,0.0,0.0,0.0,0.0,0.0,0.0,0.0,0.0,0.0,0.0,0.0,0.0,0.0,0.0,0.0,0.0,1.5747,1.8143,2.0165,2.1772,2.3481,2.3665,2.221,2.064,1.8696,0.0,0.0,0.0,0.0,0.0,0.0,0.0,0.0,0.0,0.0,0.0,0.0,0.0,0.0,0.0,0.0,0.0,0.0,0.0,0.0,0.0,0.0,0.0,0.0,0.0,0.0,0.0,0.0,0.0,0.0,0.0,0.0,0.0,0.0,0.0,0.0,0.0,0.0,0.0,0.0,0.0,1.1436,1.1333,1.2217,0.0,0.0,0.0,0.0,1.1511,1.1626,0.0,0.0,0.0,0.0,0.0,0.0,0.0,0.0,0.0,0.0,0.0,0.0,0.0,0.0,0.0,0.0,0.0,0.0,0.0,0.0,0.0,0.0,0.0,0.0,0.0,0.0,0.0,0.0,0.0,0.0,0.0,0.0,0.0,0.0,0.0,0.0,0.0,0.0,0.0,0.0,0.0,0.0,0.0,0.0,0.0,0.0,0.0,0.0,0.0,0.0,0.0,0.0,0.0,0.0,0.0,0.0,1.5692,1.8016,2.0051,2.1766,2.3446,2.3614,2.2144,2.0608,1.8672,0.0,0.0,0.0,0.0,0.0,0.0,0.0,0.0,0.0,0.0,0.0,0.0,0.0,0.0,0.0,0.0,0.0,0.0,0.0,0.0,0.0,0.0,0.0,0.0,0.0,0.0,0.0,0.0,0.0,0.0,0.0,0.0,0.0,0.0,0.0,0.0,0.0,0.0,0.0,0.0,0.0,1.3357,1.3042,1.3923,1.4605,0.0,0.0,1.5157,1.5015,1.4025,0.0,0.0,0.0,0.0,0.0,0.0,0.0,0.0,0.0,0.0,0.0,0.0,0.0,0.0,0.0,0.0,0.0,0.0,0.0,0.0,0.0,0.0,0.0,0.0,0.0,0.0,0.0,0.0,0.0,0.0,0.0,0.0,0.0,0.0,0.0,0.0,0.0,0.0,0.0,0.0,0.0,0.0,0.0,0.0,0.0,0.0,0.0,0.0,0.0,0.0,0.0,0.0,0.0,0.0,0.0,1.3446,1.6274,1.8216,2.0009,2.1714,2.3373,2.3546,2.208,2.0508,1.8569,0.0,0.0,0.0,0.0,0.0,0.0,0.0,0.0,0.0,0.0,0.0,0.0,0.0,0.0,0.0,0.0,0.0,0.0,0.0,0.0,0.0,0.0,0.0,0.0,0.0,0.0,0.0,0.0,0.0,0.0,0.0,0.0,0.0,0.0,0.0,0.0,0.0,0.0,0.0,0.0,0.0,0.0,1.4609,1.5518,0.0,0.0,0.0,1.7307,1.6457,0.0,0.0,0.0,0.0,0.0,0.0,0.0,0.0,0.0,0.0,0.0,0.0,0.0,0.0,0.0,0.0,0.0,0.0,0.0,0.0,0.0,0.0,0.0,0.0,0.0,0.0,0.0,0.0,0.0,0.0,0.0,0.0,0.0,0.0,0.0,0.0,0.0,0.0,0.0,0.0,0.0,0.0,0.0,0.0,0.0,0.0,0.0,0.0,0.0,0.0,0.0,0.0,0.0,0.0,0.0,0.0,0.0,1.6733,1.8336,1.9942,2.1616,2.328,2.3447,2.2004,2.0615,0.0,0.0,0.0,0.0,0.0,0.0,0.0,0.0,0.0,0.0,0.0,0.0,0.0,0.0,0.0,0.0,0.0,0.0,0.0,0.0,0.0,0.0,0.0,0.0,0.0,0.0,0.0,0.5474,0.0,0.0,0.0,0.0,0.0,0.0,0.0,0.0,0.0,0.0,0.0,0.0,0.0,0.0,1.5958,1.6405,1.7566,1.8254,0.0,0.0,1.9488,1.8179,1.8839,1.8804,0.0,0.0,0.0,0.0,0.0,0.0,0.0,0.0,0.0,0.0,0.0,0.0,0.0,0.0,0.0,0.0,0.0,0.0,0.0,0.0,0.0,0.0,0.0,0.0,0.0,0.0,0.0,0.0,0.0,0.0,0.0,0.0,0.0,0.0,0.0,0.0,0.0,0.0,0.0,0.0,0.0,0.0,0.0,0.0,0.0,0.0,0.0,0.0,0.0,0.0,0.0,0.0,0.0,0.0,0.0,1.6627,1.8154,1.9768,2.1479,2.3156,2.3297,2.1855,2.1105,1.9573,0.0,0.0,0.0,0.0,0.0,0.0,0.0,0.0,0.0,0.0,0.0,0.0,0.0,0.0,0.0,0.0,0.0,0.0,0.0,0.0,0.0,0.0,0.0,0.0,0.0,0.0,0.0,0.0,0.0,0.0,0.0,0.0,0.0,0.0,0.0,0.0,0.0,0.0,0.0,0.0,0.0,1.7728,1.8721,2.0418,2.1606,0.0,0.0,2.1947,2.1045,2.0487,1.977,1.8651,0.0,0.0,0.0,0.0,0.0,0.0,0.0,0.0,0.0,0.0,0.0,0.0,0.0,0.0,0.0,0.0,0.0,0.0,0.0,0.0,0.0,0.0,0.0,0.0,0.0,0.0,0.0,0.0,0.0,0.0,0.0,0.0,0.0,0.0,0.0,0.0,0.0,0.0,0.0,0.0,0.0,0.0,0.0,0.0,0.0,0.0,0.0,0.0,0.0,0.0,0.0,0.0,0.0,1.3413,1.6533,1.8113,1.9714,2.1395,2.3069,2.3487,2.2501,2.1338,1.9843,0.0,0.0,0.0,0.0,0.0,0.0,0.0,0.0,0.0,0.0,0.0,0.0,0.0,0.0,0.0,0.0,0.0,0.0,0.0,0.0,0.0,0.0,0.0,0.0,0.0,0.0,0.0,0.0,0.8359,0.8911,0.937,0.0,0.0,0.0,0.0,0.0,0.0,0.0,0.0,0.0,0.0,1.9449,2.0922,2.1842,0.0,0.0,2.3123,2.3065,2.1701,2.1749,2.1269,1.9266,1.7937,0.0,0.0,0.0,0.0,0.0,0.0,0.0,0.0,0.0,0.0,0.0,0.0,0.0,0.0,0.0,0.0,0.0,0.0,0.0,0.0,0.0,0.0,0.0,0.0,0.0,0.0,0.0,0.0,0.0,0.0,0.0,0.0,0.0,0.0,0.0,0.0,0.0,0.0,0.0,0.0,0.0,0.0,0.0,0.0,0.0,0.0,0.0,0.0,0.0,0.0,0.0,0.0,1.3884,1.6746,1.836,1.9963,2.161,2.3084,2.3515,2.2849,2.1654,2.0284,0.0,0.0,0.0,0.0,0.0,0.0,0.0,0.0,0.0,0.0,0.0,0.0,0.0,0.0,0.0,0.0,0.0,0.0,0.0,0.0,0.0,0.0,0.0,0.0,0.0,0.0,0.0,0.0,0.9074,0.9433,0.9998,0.0,0.0,0.0,0.0,0.0,0.0,0.0,0.0,0.0,0.0,2.094,2.2652,2.327,2.3577,2.3635,2.4187,2.4119,2.2694,2.2773,2.2266,2.0214,0.0,0.0,0.0,0.0,0.0,0.0,0.0,0.0,0.0,0.0,0.0,0.0,0.0,0.0,0.0,0.0,0.0,0.0,0.0,0.0,0.0,0.0,0.0,0.0,0.0,0.0,0.0,0.0,0.0,0.0,1.0717,0.0,0.0,0.0,0.0,0.0,0.0,0.0,0.0,0.0,0.0,0.0,0.0,0.0,0.0,0.0,0.0,0.0,0.0,0.0,0.0,0.0,0.0,1.5046,1.7356,1.8939,2.0554,2.2131,2.3181,2.3386,2.275,2.2099,2.1017,1.9398,0.0,0.0,0.0,0.0,0.0,0.0,0.0,0.0,0.0,0.0,0.0,0.0,0.0,0.0,0.0,0.0,0.0,0.0,0.0,0.0,0.0,0.0,0.0,0.0,0.0,0.0,0.8921,0.9655,1.0193,0.0,0.0,0.0,0.0,0.0,0.0,0.0,0.0,0.0,0.0,2.0882,2.2098,2.3827,2.4824,2.5387,2.5476,2.5517,2.5242,2.4335,2.3529,2.2691,0.0,0.0,0.0,0.0,0.0,0.0,0.0,0.0,0.0,0.0,0.0,0.0,0.0,0.0,0.0,0.0,0.0,0.0,0.0,0.0,0.0,0.0,0.0,0.0,0.0,0.0,0.0,1.2762,1.2684,0.0,0.0,0.0,0.0,0.0,0.0,0.0,0.0,0.0,0.0,0.0,1.5952,1.6691,0.0,0.0,0.0,0.0,0.0,0.0,0.0,0.0,0.0,0.0,0.0,0.0,1.4992,1.7219,1.8836,2.0438,2.2033,2.303,2.3512,2.3355,2.2838,2.1547,1.945,0.0,0.0,0.0,0.0,0.0,0.0,0.0,0.0,0.0,0.0,0.0,0.0,0.0,0.0,0.0,0.0,0.0,0.0,0.0,0.0,0.0,0.0,0.0,0.0,0.0,0.9799,0.0,0.0,0.0,0.0,0.0,0.0,0.0,0.0,0.0,0.0,0.0,1.916,2.0877,2.2325,2.3646,2.4795,2.5228,2.543,0.0,0.0,0.0,0.0,0.0,0.0,0.0,0.0,0.0,0.0,0.0,0.0,0.0,0.0,2.0203,1.8939,1.8434,1.8144,1.7888,0.0,0.0,0.0,0.0,0.0,0.0,0.0,0.0,0.0,0.0,0.0,0.0,0.0,0.0,1.4866,0.0,1.3774,0.0,0.0,0.0,0.0,0.0,0.0,0.0,0.0,1.6668,1.7578,1.8038,1.8739,1.8704,0.0,1.8011,1.651,0.0,0.0,0.0,0.0,0.0,0.0,0.0,0.0,1.5662,1.7844,1.9212,2.0655,2.2212,2.2994,2.3422,2.3617,2.3103,2.1743,1.9434,1.7067,1.4943,0.0,0.0,0.0,0.0,0.0,0.0,0.0,0.0,0.0,0.0,0.0,0.0,0.0,0.0,0.0,0.0,0.0,0.0,0.0,0.0,0.0,0.0,0.0,1.0645,0.0,0.0,0.0,0.0,0.0,0.0,0.0,0.0,0.0,1.6935,1.8855,2.0793,2.2219,2.3337,2.4339,2.515,0.0,0.0,0.0,0.0,0.0,0.0,0.0,2.3657,2.3298,2.2904,2.2723,2.2905,2.31,2.3269,2.3262,0.0,0.0,2.0776,2.0151,1.9887,1.9672,1.9871,2.0048,2.0089,2.0526,2.1081,0.0,0.0,0.0,0.0,0.0,0.0,0.0,0.0,1.832,1.8196,0.0,1.6666,0.0,0.0,0.0,0.0,0.0,1.6642,0.0,0.0,1.8737,1.9361,1.9384,2.0033,1.9976,1.9298,1.9316,1.854,1.7013,1.5069,0.0,0.0,0.0,0.0,0.0,0.0,1.711,1.9116,1.9998,2.1206,2.2717,2.2995,2.3223,2.3457,2.2981,2.1689,1.953,1.8584,1.7037,1.4706,1.3125,0.0,0.0,0.0,0.0,0.0,0.0,0.0,0.0,0.0,0.0,0.0,0.0,0.0,0.0,0.0,0.0,0.0,0.0,0.0,0.0,1.0921,0.0,0.0,0.0,0.0,0.0,0.0,0.0,0.0,0.0,0.0,2.0285,2.0354,2.1197,2.3587,0.0,0.0,0.0,0.0,2.5075,2.5089,2.4993,2.4946,2.4877,2.4115,2.3731,2.436,0.0,0.0,2.3857,2.4563,2.5053,2.5108,2.5737,2.5353,2.1871,2.1854,2.2059,2.142,2.1828,2.2383,2.2485,2.2442,2.2605,2.2439,0.0,0.0,0.0,0.0,1.9762,2.0131,2.0339,2.0054,1.9843,1.9547,1.8228,0.0,0.0,0.0,0.0,0.0,0.0,1.8823,1.9338,2.0705,2.1613,2.2065,2.2738,2.2372,2.114,2.1242,2.0551,1.9139,1.8024,1.6593,1.4943,0.0,0.0,0.0,0.0,1.799,1.9127,2.0438,2.1601,2.2628,2.2816,2.3077,2.3492,2.2897,2.23,2.1725,1.9936,1.839,1.7103,1.5,0.0,0.0,0.0,0.0,0.0,0.0,0.0,0.0,0.0,0.0,0.0,0.0,0.0,0.0,0.0,0.0,0.0,0.0,0.0,1.0907,1.1182,1.1587,0.0,0.0,0.0,0.0,0.0,0.0,0.0,0.0,0.0,2.3107,2.2897,2.3088,0.0,0.0,2.5688,2.6473,2.6536,2.6462,2.6372,2.6215,0.0,0.0,2.5668,2.5426,2.5528,2.5122,2.4831,2.5015,2.5223,2.5396,2.5457,2.5745,2.5654,2.4829,2.4072,2.3515,2.2898,2.2898,2.3071,2.3157,2.3645,2.4144,2.6165,2.4428,2.2546,2.1709,2.1726,2.2133,2.2365,2.2374,2.2242,2.2044,2.1703,2.0796,2.0192,1.9847,1.9788,0.0,0.0,0.0,2.091,2.1244,2.2337,2.2968,2.3257,2.3671,2.3391,2.2501,2.2643,2.2171,2.1061,2.0398,1.9299,1.7788,0.0,0.0,1.7089,1.7955,1.8904,1.993,2.0837,2.171,2.2494,2.2699,2.296,2.333,2.3006,2.2754,2.2596,2.0989,1.9613,1.8575,1.6222,1.4382,0.0,0.0,0.0,0.0,0.0,0.0,0.0,0.0,0.0,0.0,0.0,0.7684,0.0,0.0,0.0,0.0,1.0277,1.0925,1.2104,1.2541,0.0,0.0,0.0,0.0,0.0,0.0,0.0,2.1638,2.2779,2.3979,2.5187,2.5003,2.4971,2.5544,2.6053,2.6517,2.6943,0.0,2.6832,2.6686,2.6486,2.6319,2.6202,2.6055,2.5972,2.6093,2.6202,2.6244,2.6255,2.6255,2.6283,2.6394,2.6489,2.6539,2.6374,2.5825,2.5238,2.4663,2.4552,2.4579,2.4657,2.5125,2.5529,2.9056,2.8674,2.5437,2.4069,2.3998,2.3947,2.3942,2.4035,2.4596,2.446,2.3844,2.3759,2.3337,2.263,2.2502,0.0,2.238,2.2964,2.3145,2.3058,2.3572,2.3682,2.3437,2.3503,2.3455,2.3339,2.3596,2.339,2.2719,2.2156,2.1606,2.0984,1.911,1.8488,1.9043,1.9139,1.9827,2.117,2.1258,2.1641,2.2374,2.2646,2.2881,2.3082,2.3199,2.3028,2.2464,2.17,2.068,1.9281,1.6987,1.5343,1.4584,0.0,0.0,0.0,0.0,0.0,0.0,0.0,0.0,0.0,0.0,0.0,0.0,0.0,0.0,0.0,1.0809,0.0,1.3711,1.4586,0.0,0.0,0.0,1.9484,2.1004,2.1857,2.2958,2.4491,0.0,0.0,2.668,2.6704,2.6751,2.7004,2.7016,2.6949,2.6876,2.6888,2.669,2.6617,2.6338,2.6098,2.6066,2.5871,2.5897,2.6298,2.6905,2.722,2.7238,2.7286,2.7384,2.7422,2.7672,2.7603,2.7053,2.7032,2.7051,2.6581,2.6439,2.6425,2.6415,2.6456,2.6536,3.0375,3.0139,2.8739,2.7875,2.7377,2.6806,2.6588,2.6521,2.5597,2.5076,2.4874,2.4335,2.3982,2.3783,2.369,2.366,2.3661,2.3604,2.3818,2.4172,2.4137,2.4241,2.4512,2.4579,2.4271,2.3654,2.3824,2.3601,2.3015,2.2924,2.2881,2.2818,2.193,2.0851,1.9753,2.0254,2.0749,2.119,2.1752,2.2152,2.2391,2.2515,2.2672,2.2868,2.299,2.2793,2.2211,2.1575,2.0818,1.9948,1.7705,1.6098,1.5354,1.3638,0.0,0.0,0.0,0.0,0.0,0.0,0.0,0.0,0.0,0.9241,1.1206,0.0,1.1424,0.0,1.2398,1.3793,1.6053,1.6466,0.0,0.0,2.0297,2.1261,2.1689,2.343,2.4746,2.5084,2.6337,2.7215,2.7296,2.7808,2.8179,2.8191,2.7841,2.7765,2.8267,2.8255,2.8143,2.7884,2.7669,2.7426,2.7171,2.6864,2.6671,2.6732,2.6838,2.6858,2.6875,2.699,2.712,2.7214,2.7463,2.7572,2.7513,2.7755,2.7884,2.7722,2.6982,2.6318,2.649,2.6573,2.6636,3.0564,3.0452,3.0051,2.9658,2.9234,2.8287,2.784,2.7773,2.6992,2.646,2.611,2.5413,2.5063,2.4995,2.4978,2.4893,2.4791,2.4562,2.4594,2.4802,2.4535,2.4473,2.4639,2.467,2.4407,2.3898,2.4112,2.4079,2.3778,2.3539,2.3526,2.369,2.3118,2.2215,2.1075,2.1278,2.1468,2.163,2.2076,2.2307,2.2366,2.2419,2.2515,2.2676,2.2803,2.2591,2.199,2.1383,2.0766,2.0116,1.8218,1.6989,1.6613,1.5075,1.3636,0.0,0.0,0.0,0.0,0.0,0.0,0.0,0.0,0.0,0.0,0.0,1.366,1.4688,1.5184,1.6312,1.8421,1.8951,1.9834,2.1483,2.2707,2.3547,2.3897,2.5362,2.6322,2.6286,2.7323,2.8161,2.8462,2.8815,2.9165,2.9449,2.9204,2.8915,2.8735,2.884,2.8936,2.8713,2.8768,2.8724,2.836,2.8065,2.7879,2.781,2.7487,2.7182,2.725,2.7113,2.7024,2.7103,2.7324,2.7524,2.7644,2.7821,2.8011,2.8075,2.7619,2.7222,2.7379,2.749,2.757,3.0272,3.0255,3.0174,3.0141,3.0021,2.8927,2.8431,2.8372,2.8273,2.7858,2.7215,2.666,2.6343,2.6217,2.6215,2.604,2.5791,2.5583,2.5304,2.5009,2.4695,2.4446,2.424,2.4255,2.4198,2.4078,2.4317,2.4462,2.4533,2.4006,2.3845,2.3986,2.3433,2.2957,2.257,2.2225,2.2099,2.2183,2.2254,2.2265,2.2313,2.2349,2.2419,2.2487,2.2609,2.2328,2.1635,2.1114,2.0506,1.981,1.8449,1.772,1.781,1.6362,1.5278,0.0,1.403,0.0,0.0,0.0,0.0,0.0,0.0,0.0,0.0,1.506,1.6592,1.8133,1.8364,1.9115,2.0784,2.1651,2.2758,2.4262,2.5118,2.5836,2.6512,2.7209,2.7641,2.7707,2.8234,2.8922,2.9616,2.9685,2.9873,3.0326,3.0353,2.989,2.8971,2.9158,2.9419,2.9158,2.9518,2.9484,2.9179,2.9017,2.8943,2.8874,2.8399,2.8011,2.8116,2.7589,2.7161,2.7225,2.7316,2.7419,2.7542,2.7644,2.7789,2.8053,2.8079,2.8179,2.841,2.8517,2.8761,3.07,3.0545,3.0035,2.9726,2.9621,2.9386,2.907,2.8739,2.8103,2.7733,2.7603,2.7457,2.7409,2.7372,2.7276,2.6836,2.6174,2.597,2.5422,2.4605,2.4441,2.4198,2.3888,2.4024,2.3982,2.3882,2.4009,2.4114,2.4183,2.4066,2.4107,2.423,2.3741,2.3469,2.344,0.0,0.0,0.0,2.2228,2.224,2.2313,2.231,2.2349,2.2419,2.2446,0.0,2.0673,2.0587,2.0033,1.8843,1.7931,0.0,0.0,0.0,0.0,0.0,0.0,0.0,0.0,0.0,0.0,0.0,1.821,1.7923,1.6902,1.7668,1.8653,1.9606,2.0346,2.1423,2.3019,2.3899,2.4769,2.5712,2.6482,2.6947,2.7091,2.7718,2.8353,2.8899,2.9086,2.9419,3.0125,3.0241,3.0267,3.0404,3.0258,3.0072,2.9777,2.992,3.0024,2.9884,2.9794,2.9472,2.9229,2.9152,2.9128,2.8959,2.8925,2.879,2.8775,2.8269,2.7845,2.7895,2.7547,2.7327,2.744,2.7587,2.7733,2.7806,2.8011,2.8277,2.8536,2.86,2.8662,3.0951,0.0,3.0193,2.986,0.0,2.9356,2.9082,2.8888,2.8677,2.834,2.7945,2.7529,2.7348,2.7348,2.7269,2.7015,2.6545,2.6409,2.5831,2.491,2.4725,2.4329,2.3818,2.3797,2.376,2.3717,2.376,2.3861,2.3952,2.3967,2.403,2.4135,2.3948,2.3745,2.3557,2.3301,2.2962,2.2436,2.2191,2.2123,2.2257,2.224,2.2282,2.2352,0.0,0.0,0.0,0.0,0.0,0.0,0.0,0.0,0.0,0.0,0.0,1.8406,1.8426,1.8603,1.8961,1.8996,1.9178,1.957,2.063,2.0697,1.9349,2.038,2.1294,2.1718,2.2844,2.391,2.471,2.5512,2.6158,2.6589,2.7256,2.7812,2.8147,2.8485,2.898,2.9648,2.9748,2.9968,3.0749,3.0759,3.0871,3.1174,3.1161,3.1042,3.1025,3.0793,3.0651,3.087,3.061,3.032,3.0248,3.0153,3.0076,3.0059,2.977,2.9567,2.9533,2.8981,2.8542,2.8561,2.8405,2.8233,2.7947,2.8002,2.8032,2.7774,2.7818,2.8021,2.8251,2.8401,2.8554,3.1209,3.1146,3.0509,3.0226,3.0163,2.9391,2.8983,2.8897,0.0,0.0,0.0,2.7602,2.7306,2.7306,2.7306,2.7162,2.6904,2.6847,2.6298,2.5394,2.5217,2.4759,2.4115,2.3878,2.3789,2.3774,2.3655,2.3653,2.3775,2.376,2.3818,2.394,2.4015,2.3902,2.3571,2.3452,2.3228,2.2916,2.2364,2.2107,2.2168,2.2152,2.218,2.2237,2.2338,2.1993,2.1204,2.1284,2.1057,2.041,2.0441,2.0459,2.0454,2.0466,2.0264,1.9797,1.9802,1.9916,2.002,2.0049,2.0419,2.1196,2.2434,2.2688,2.1567,2.2882,2.3768,2.3768,2.51,2.5961,2.5948,2.6672,2.7174,2.7317,2.7759,2.8372,2.9189,2.939,2.9695,3.0249,3.0311,3.0561,3.1315,3.132,3.1428,3.1969,3.1986,3.2036,3.1932,3.1463,3.1255,3.1524,3.1298,3.1247,3.1278,3.1167,3.119,3.1038,3.0632,3.0328,3.0192,2.9741,2.9338,2.9323,2.9351,2.9071,2.8694,2.8638,2.847,2.8014,2.7899,2.7871,2.7933,2.8128,2.834,3.1691,3.1644,3.0988,3.0707,3.066,2.9949,2.9365,2.8818,2.8889,2.8842,2.8709,2.8592,2.8545,2.8561,2.8545,2.8078,2.7311,2.7304,2.6734,2.575,2.5689,2.5574,2.5323,2.4724,2.447,2.441,2.3894,2.3631,2.3616,2.3631,2.3638,2.3674,2.3782,2.3948,2.4138,2.3826,2.3686,2.3797,2.3112,2.2518,2.2046,2.2044,2.2027,2.2058,2.2166,2.1841,2.1066,2.117,2.0905,2.0269,2.0286,2.034,2.0323,2.0369,2.0568,2.1054,2.1168,2.1493,2.2099,2.2233,2.257,2.329,2.3621,2.3745,2.3775,2.4628,2.5204,2.524,2.6016,2.658,2.6615,2.7208,2.7848,2.8446,2.82,2.8437,2.9675,3.0213,3.0599,3.08,3.0802,3.1098,3.176,3.1917,3.1882,3.2038,3.1946,3.18,3.1653,3.1658,3.1642,3.1542,3.1426,3.1332,3.1276,3.1235,3.121,3.119,3.1089,3.0954,3.0937,3.0431,3.0029,3.0053,2.9668,2.9296,2.923,2.93,2.9142,2.8788,2.8622,2.8434,2.7891,2.7832,2.7989,3.1897,3.182,3.119,3.0913,3.0852,3.0207,2.973,2.9423,2.9054,2.8799,2.8572,2.8436,2.8363,2.8363,2.8363,2.8146,2.7719,2.7734,2.7209,2.6374,2.6344,2.6077,2.56,2.5277,2.5128,2.5113,2.4814,2.4507,2.4193,2.4163,2.3969,2.3646,2.3739,2.3931,2.4168,2.4157,2.4092,2.3973,2.309,2.2554,2.2316,2.2039,2.1928,2.194,2.2046,2.1969,2.1661,2.17,2.1603,2.1345,2.1355,2.1381,2.1381,2.1398,2.1521,2.1881,2.1993,2.2196,2.2521,2.301,2.3629,2.437,2.4873,2.5184,2.5286,2.568,2.5932,2.5967,2.6667,2.714,2.714,2.7774,2.8353,2.8703,2.8814,2.9339,3.0244,3.0661,3.1027,3.1429,3.1498,3.1584,3.1894,3.1874,3.1819,3.1781,3.1706,3.1576,3.1406,3.1464,3.1485,3.1406,3.131,3.1252,3.1235,3.123,3.119,3.119,3.119,3.119,3.119,3.0852,3.0736,3.0724,3.0453,3.0185,2.996,2.9948,2.9781,2.935,2.9208,2.8788,2.7898,2.76,2.7864,3.2012,3.1951,3.145,3.1131,3.0949,3.0448,3.0145,2.9963,2.9436,2.8921,2.8486,2.813,2.798,2.798,2.798,2.7995,2.7955,2.7955,2.7608,2.7028,2.6973,2.6639,2.6063,2.5914,2.5824,2.5809,2.5689,2.533,2.4874,2.4679,2.4261,2.3691,2.3739,2.3867,2.4036,2.4317,2.432,2.4023,2.3179,2.2749,2.2785,2.2257,2.2016,2.2087,2.2011,2.2017,2.214,2.2168,2.2228,2.2268,2.2296,2.2313,2.2313,2.2313,2.2313,2.231,2.2422,2.2556,2.2802,2.3577,2.4422,2.5178,2.5824,2.6249,2.6422,2.6452,2.6512,2.6643,2.713,2.75,2.771,2.8132,2.8636,2.8966,2.9504,3.0145,3.0872,3.101,3.1236,3.186,3.1874,3.1765,3.1727,3.1634,3.1559,3.15,3.1479,3.1423,3.1293,3.1274,3.1257,3.1274,3.1232,3.121,3.119,3.119,3.119,3.119,3.119,3.119,3.119,3.119,3.1173,3.1142,3.1193,3.0978,3.0579,3.0551,3.0495,3.0195,2.9972,2.9386,2.8264,2.7933,2.7927,3.1996,3.1996,3.1921,3.1541,3.1013,3.0934,3.0585,3.0057,2.9788,2.9354,2.8787,2.8228,2.801,2.798,2.798,2.793,2.7815,2.7815,2.7695,2.752,2.751,2.749,2.7285,2.6806,2.6512,2.6437,2.5959,2.5659,2.5457,2.4874,2.4261,2.3691,2.3739,2.3797,2.3861,2.4172,2.4292,2.4256,2.3924,2.3656,2.3384,2.2769,2.2523,2.2698,2.213,2.1855,2.1995,2.2094,2.2214,2.2214,2.2285,2.2313,2.2313,2.2313,2.2313,2.233,2.2397,2.275,2.3556,2.4396,2.5198,2.5904,2.6074,2.6437,2.7057,2.7062,2.7125,2.7332,2.7404,2.7672,2.8212,2.8319,2.8888,2.995,3.0118,3.0439,3.1215,3.1382,3.1399,3.1521,3.1576,3.1519,3.1538,3.1517,3.1479,3.1402,3.1366,3.131,3.1232,3.1213,3.1193,3.1193,3.119,3.119,3.119,3.119,3.119,3.119,3.119,3.119,3.119,3.119,3.119,3.119,3.1207,3.1145,3.1186,3.1242,3.1249,3.1118,3.0708,3.0103,2.9403,2.8845,2.8444,3.1712,3.1712,3.1697,3.1546,3.1321,3.1306,3.1155,3.0857,3.0423,3.0051,2.969,2.8782,2.8132,2.7765,2.775,2.774,2.7675,2.7675,2.7665,2.76,2.7585,2.7585,2.7555,2.733,2.7195,2.718,2.6911,2.6557,2.6078,2.5128,2.4455,2.4156,2.3863,2.3717,2.3782,2.3931,2.4094,2.4302,2.4188,2.4206,2.4263,2.3505,2.3076,2.3144,2.303,2.2794,2.2539,2.2612,2.2532,2.2233,2.2211,2.2254,2.2313,2.2716,2.2936,2.297,2.3435,2.4083,2.4921,2.5343,2.587,2.6574,2.6626,2.6796,2.707,2.7072,2.7242,2.7752,2.7839,2.7944,2.827,2.8973,2.974,3.0337,3.0694,3.1086,3.143,3.1464,3.1481,3.1481,3.1481,3.1462,3.1387,3.1346,3.1308,3.1286,3.1252,3.1249,3.119,3.119,3.119,3.119,3.119,3.119,3.119,3.119,3.119,3.119,3.119,3.119,3.119,3.119,3.119,3.119,3.119,3.121,3.1215,3.1266,3.1342,3.138,3.1306,3.0704,3.0156,2.9489,2.8849,3.1496,3.1496,3.1496,3.1496,3.1496,3.1496,3.1496,3.1451,3.0957,3.0687,3.0402,2.952,2.8742,2.8154,2.7779,2.7585,2.7585,2.7585,2.7585,2.7585,2.7585,2.7585,2.7585,2.7585,2.7585,2.7585,2.757,2.724,2.6557,2.5689,2.4978,2.459,2.4096,2.3848,2.3754,2.3797,2.3946,2.4198,2.4276,2.4467,2.4705,2.4177,2.3806,2.3719,2.3682,2.3523,2.3174,2.3219,2.3112,2.2761,2.2788,2.2832,2.2905,2.341,2.3712,2.3763,2.4452,2.5176,2.58,2.607,2.6445,2.6923,2.7008,2.7008,2.7042,2.7179,2.752,2.7981,2.8407,2.8679,2.88,2.9686,3.0368,3.0604,3.1132,3.1421,3.1421,3.1421,3.1421,3.1421,3.1385,3.1402,3.1291,3.1249,3.121,3.121,3.119,3.119,3.119,3.119,3.119,3.119,3.119,3.119,3.119,3.119,3.119,3.119,3.119,3.119,3.119,3.119,3.119,3.119,3.119,3.119,3.1193,3.1227,3.1244,3.1203,3.1168,3.1057,3.073,3.0066,2.9503,3.1496,3.1496,3.1496,3.1496,3.1496,3.1496,3.1496,3.1496,3.1436,3.1092,3.0597,3.0402,3.0043,2.9397,2.8259,2.763,2.7615,2.76,2.7585,2.7585,2.7585,2.7585,2.7585,2.7585,2.7585,2.7585,2.7585,2.7285,2.6671,2.6482,2.5854,2.4709,2.4605,2.4246,2.3803,2.3793,2.3876,2.4024,2.4193,2.4359,2.4544,2.4768,2.4703,2.439,2.3816,2.3631,2.3737,2.3885,2.3982,2.4076,2.4137,2.4264,2.4357,2.4423,2.4457,2.4574,2.5214,2.5654,2.584,2.6448,2.6923,2.6991,2.6992,2.7008,2.7009,2.7504,2.7896,2.8032,2.9166,2.9876,3.0019,3.019,3.0544,3.1009,3.1142,3.1247,3.121,3.123,3.121,3.121,3.123,3.123,3.121,3.119,3.119,3.119,3.119,3.119,3.119,3.119,3.119,3.119,3.119,3.119,3.119,3.119,3.119,3.119,3.119,3.119,3.119,3.119,3.119,3.119,3.119,3.119,3.119,3.119,3.1207,3.1196,3.1147,3.1051,3.0966,3.0689,3.0162,3.1884,3.1496,3.1496,3.1496,3.1496,3.1496,3.1496,3.1496,3.1496,3.1376,3.1092,3.0702,3.0387,3.0133,2.9277,2.8648,2.8244,2.7809,2.7585,2.7585,2.7585,2.7585,2.7585,2.7585,2.7585,2.7585,2.7585,2.748,2.721,2.6821,2.6363,2.5899,2.545,2.4903,2.4373,2.429,2.4183,2.3927,2.4046,2.4177,2.438,2.4564,2.4701,2.4831,2.482,2.463,2.4266,2.4458,2.4431,2.4098,2.4211,2.4322,2.4467,2.4934,2.5423,2.5862,2.6183,2.6352,2.6369,2.6605,2.6808,2.6825,2.6808,2.6825,2.6927,2.747,2.808,2.869,2.9484,3.0262,3.0738,3.0842,3.0925,3.1142,3.119,3.119,3.119,3.119,3.119,3.119,3.119,3.119,3.119,3.119,3.119,3.119,3.119,3.119,3.119,3.119,3.119,3.119,3.119,3.119,3.119,3.119,3.119,3.119,3.119,3.119,3.119,3.119,3.119,3.1171,3.1171,3.1171,3.1171,3.1199,3.1199,3.1075,3.1081,3.0991,3.1038,3.0799,3.0441,3.2093,3.154,3.1496,3.1496,3.1496,3.1496,3.1496,3.1496,3.1496,3.1496,3.1406,3.1002,3.0836,3.0717,3.0178,2.9654,2.9146,2.8323,2.7824,2.76,2.7585,2.7585,2.7585,2.7585,2.7585,2.7585,2.7585,2.7585,2.7555,2.7151,2.6821,2.6542,2.6123,2.5576,2.4993,2.4724,2.4417,2.4173,2.4003,2.4046,2.4255,2.438,2.4564,2.4851,2.5236,2.5258,2.4867,2.509,2.5088,2.4795,2.483,2.4928,2.5143,2.5644,2.6167,2.6623,2.6691,2.6708,2.6708,2.6708,2.6691,2.6708,2.6708,2.6759,2.7046,2.7739,2.8518,2.9279,3.0023,3.0717,3.1038,3.1173,3.119,3.119,3.119,3.119,3.119,3.119,3.119,3.119,3.119,3.119,3.119,3.119,3.119,3.119,3.119,3.119,3.119,3.119,3.119,3.119,3.119,3.119,3.119,3.119,3.119,3.119,3.119,3.119,3.1171,3.119,3.1171,3.1151,3.1151,3.1131,3.1145,3.1173,3.1116,3.0992,3.0851,3.0764,3.0848,3.0932,3.0593,3.2123,3.1585,3.1496,3.1496,3.1496,3.1496,3.1496,3.1496,3.1496,3.1496,3.1481,3.1451,3.1391,3.1316,3.0748,3.0477,3.0148,2.9175,2.8349,2.775,2.763,2.7585,2.7585,2.7585,2.7585,2.7585,2.7585,2.7585,2.757,2.751,2.7225,2.6722,2.6671,2.6273,2.5615,2.5083,2.4769,2.4672,2.4234,2.4016,2.4166,2.4286,2.4405,2.4625,2.4886,2.5185,2.5478,2.5703,2.5839,2.6035,2.6108,2.6366,2.6387,2.6556,2.6674,2.6674,2.6708,2.6708,2.6708,2.6708,2.6708,2.6725,2.6725,2.708,2.7655,2.8484,2.9281,2.9922,3.0632,3.1173,3.1157,3.119,3.119,3.119,3.119,3.119,3.119,3.119,3.119,3.119,3.119,3.119,3.119,3.119,3.119,3.119,3.119,3.119,3.119,3.119,3.119,3.119,3.119,3.119,3.119,3.119,3.119,3.119,3.119,3.119,3.1151,3.1151,3.1092,3.1072,3.1038,3.1018,3.1026,3.1036,3.0996,3.0888,3.073,3.0566,3.0625,3.0708,3.0708,3.2378,3.2138,3.169,3.1496,3.1496,3.1496,3.1496,3.1496,3.1496,3.1496,3.1496,3.1496,3.1496,3.1466,3.1256,3.0928,3.0492,3.0043,2.9325,2.8368,2.7839,2.76,2.7585,2.7585,2.7585,2.7585,2.7585,2.7585,2.7585,2.7585,2.7465,2.7315,2.727,2.6941,2.6318,2.6063,2.5818,2.5317,2.4792,2.4571,2.4685,2.4411,2.4333,2.4523,2.4746,2.5001,2.5243,2.5527,2.5768,2.5989,2.6133,2.6346,2.6555,2.6674,2.6708,2.6708,2.6708,2.6708,2.6708,2.6708,2.6708,2.6793,2.7148,2.7503,2.7908,2.9007,2.9803,3.0156,3.0751,3.119,3.119,3.119,3.119,3.119,3.119,3.119,3.119,3.119,3.119,3.119,3.119,3.119,3.119,3.119,3.119,3.119,3.119,3.119,3.119,3.119,3.119,3.119,3.119,3.119,3.119,3.119,3.119,3.1171,3.1151,3.1151,3.1112,3.1072,3.1012,3.0955,3.0922,3.0898,3.0885,3.0857,3.0833,3.0684,3.0464,3.0402,3.0426,3.0422,3.0443,3.2736,3.2452,3.178,3.1496,3.1496,3.1496,3.1496,3.1496,3.1496,3.1496,3.1496,3.1496,3.1496,3.1496,3.1496,3.1271,3.0853,3.0642,3.0073,2.925,2.8364,2.7869,2.7645,2.7585,2.7585,2.7585,2.7585,2.7585,2.7585,2.7585,2.7585,2.7585,2.7585,2.7405,2.6971,2.6716,2.6348,2.5952,2.54,2.5161,2.516,2.4776,2.4597,2.4755,2.4745,2.4846,2.5048,2.5336,2.5635,2.5879,2.6115,2.6329,2.6537,2.664,2.6674,2.6708,2.6708,2.6708,2.6708,2.6708,2.6843,2.7131,2.7536,2.8111,2.8618,2.9683,3.0142,3.0565,3.092,3.119,3.119,3.119,3.119,3.119,3.119,3.119,3.119,3.119,3.119,3.119,3.119,3.119,3.119,3.119,3.119,3.119,3.119,3.119,3.119,3.119,3.119,3.119,3.119,3.119,3.119,3.119,3.1154,3.1151,3.1112,3.1075,3.1035,3.0992,3.0952,3.0814,3.074,3.0651,3.0638,3.068,3.0654,3.0434,3.0234,3.0213,3.0225,3.0189,3.0189,3.3125,3.2512,3.1795,3.1496,3.1496,3.1496,3.1496,3.1496,3.1496,3.1496,3.1496,3.1496,3.1496,3.1496,3.1496,3.1451,3.1376,3.0913,3.0552,3.0103,2.928,2.8412,2.769,2.7585,2.7585,2.7585,2.7585,2.7585,2.7585,2.7585,2.7585,2.7585,2.7585,2.7585,2.7405,2.6971,2.6692,2.6596,2.5989,2.5745,2.5831,2.5349,2.5162,2.5342,2.5061,2.4981,2.5124,2.5284,2.5543,2.5862,2.6136,2.6347,2.6485,2.6571,2.664,2.6708,2.6708,2.6708,2.6708,2.6843,2.7097,2.7638,2.801,2.8483,2.9683,3.0089,3.0514,3.1004,3.1157,3.119,3.119,3.119,3.119,3.119,3.119,3.119,3.119,3.119,3.119,3.119,3.119,3.119,3.119,3.119,3.119,3.119,3.119,3.119,3.119,3.119,3.119,3.119,3.119,3.119,3.119,3.119,3.1171,3.1075,3.1052,3.0975,3.0915,3.0855,3.0794,3.0671,3.0568,3.0459,3.0392,3.042,3.0373,3.0189,3.0081,3.0026,2.9978,2.9935,2.9886,3.3395,3.311,3.1989,3.1496,3.1496,3.1496,3.1496,3.1496,3.1496,3.1496,3.1496,3.1496,3.1496,3.1496,3.1496,3.1496,3.1436,3.1301,3.0928,3.0507,3.0208,2.9052,2.7869,2.7585,2.7585,2.7585,2.7585,2.7585,2.7585,2.7585,2.7585,2.7585,2.7585,2.7585,2.7525,2.739,2.7345,2.724,2.6686,2.6405,2.6449,2.6031,2.5818,2.5945,2.6032,2.591,2.5627,2.5534,2.5619,2.5881,2.6097,2.6293,2.6485,2.6571,2.664,2.6691,2.6725,2.6708,2.6826,2.7232,2.7604,2.7874,2.8804,2.9668,3.0021,3.0615,3.0954,3.119,3.119,3.119,3.119,3.119,3.119,3.119,3.119,3.119,3.119,3.119,3.119,3.119,3.119,3.119,3.119,3.119,3.119,3.119,3.119,3.119,3.119,3.119,3.119,3.119,3.119,3.119,3.119,3.119,3.1151,3.1015,3.0935,3.0855,3.0773,3.0671,3.0589,3.0485,3.0422,3.0333,3.0194,3.013,3.0011,2.9919,2.9783,2.9685,2.9639,2.9614,2.9592,3.3739,3.341,3.2348,3.175,3.1511,3.1496,3.1496,3.1496,3.1496,3.1496,3.1496,3.1496,3.1496,3.1496,3.1496,3.1496,3.1496,3.1496,3.1286,3.0943,3.0612,2.9535,2.8278,2.7794,2.7585,2.7585,2.7585,2.7585,2.7585,2.7585,2.7585,2.7585,2.7585,2.7585,2.7585,2.7585,2.7585,2.7525,2.721,2.7055,2.7099,2.6665,2.6495,2.652,2.6669,2.6563,2.6445,2.6419,2.6244,2.604,2.6043,2.6239,2.6468,2.6537,2.6606,2.6691,2.6962,2.7182,2.73,2.7874,2.8415,2.8804,2.97,3.0176,3.0548,3.0987,3.119,3.119,3.119,3.119,3.119,3.119,3.119,3.119,3.119,3.119,3.119,3.119,3.119,3.119,3.119,3.119,3.119,3.119,3.119,3.119,3.119,3.119,3.119,3.119,3.119,3.119,3.119,3.119,3.119,3.119,3.1112,3.1012,3.0834,3.0753,3.0671,3.0564,3.0464,3.0401,3.0295,3.0189,3.0027,2.9881,2.9766,2.9639,2.948,2.9406,2.9403,2.9337,2.9321,3.4114,3.344,3.2796,3.2108,3.154,3.1496,3.1496,3.1496,3.1496,3.1496,3.1496,3.1496,3.1496,3.1496,3.1496,3.1496,3.1496,3.1496,3.1496,3.1212,3.0763,2.9849,2.8951,2.8139,2.7764,2.763,2.7585,2.7585,2.7585,2.7585,2.7585,2.7585,2.7585,2.7585,2.7585,2.7585,2.7585,2.7585,2.754,2.7505,2.752,2.7261,2.7139,2.7152,2.6978,2.7142,2.7317,2.7352,2.7022,2.6192,2.6167,2.6516,2.675,2.677,2.6891,2.7147,2.7655,2.7908,2.8043,2.867,2.9347,2.9854,3.0074,3.0463,3.0987,3.1157,3.119,3.119,3.119,3.119,3.119,3.119,3.119,3.119,3.119,3.119,3.119,3.119,3.119,3.119,3.119,3.119,3.119,3.119,3.119,3.119,3.119,3.119,3.119,3.119,3.119,3.119,3.119,3.119,3.119,3.119,3.1072,3.0952,3.077,3.0651,3.0589,3.0485,3.0401,3.0316,3.0172,3.0022,2.987,2.9716,2.956,2.9425,2.928,2.925,2.9236,2.9137,2.9107,3.4114,3.344,3.2781,3.2108,3.1555,3.1496,3.1496,3.1496,3.1496,3.1496,3.1496,3.1496,3.1496,3.1496,3.1496,3.1496,3.1496,3.1496,3.1496,3.1406,3.0808,3.0432,2.9819,2.8936,2.8169,2.7794,2.76,2.7585,2.7585,2.7585,2.7585,2.7585,2.7585,2.7585,2.7585,2.7585,2.7585,2.76,2.76,2.765,2.7765,2.7794,2.778,2.7865,2.7659,2.7756,2.7976,2.7784,2.7555,2.7571,2.7607,2.7767,2.7985,2.8094,2.8169,2.8347,2.8553,2.8738,2.8891,2.9414,2.9922,3.0176,3.0615,3.1021,3.1123,3.119,3.119,3.119,3.119,3.119,3.119,3.119,3.119,3.119,3.119,3.119,3.119,3.119,3.119,3.119,3.119,3.119,3.119,3.119,3.119,3.119,3.119,3.119,3.119,3.119,3.119,3.119,3.119,3.119,3.119,3.1171,3.1052,3.0932,3.0753,3.0589,3.0526,3.0422,3.0354,3.0194,3.0006,2.9853,2.9732,2.9515,2.9335,2.9236,2.9121,2.9052,2.8998,2.892,2.8826,3.4461,3.3469,3.311,3.2407,3.1585,3.1496,3.1496,3.1496,3.1496,3.1496,3.1496,3.1496,3.1496,3.1496,3.1496,3.1496,3.1496,3.1496,3.1496,3.1436,3.1092,3.0808,3.0447,2.9819,2.9041,2.8188,2.7735,2.7615,2.7585,2.76,2.7585,2.7585,2.7585,2.7585,2.7585,2.7585,2.7585,2.761,2.7675,2.7725,2.7815,2.8005,2.825,2.8462,2.8405,2.8546,2.8834,2.8764,2.8804,2.8964,2.9054,2.8943,2.8722,2.8697,2.8807,2.899,2.9382,2.9501,2.9685,3.0159,3.0615,3.0615,3.0987,3.1106,3.119,3.119,3.119,3.119,3.119,3.119,3.119,3.119,3.119,3.119,3.119,3.119,3.119,3.119,3.119,3.119,3.119,3.119,3.119,3.119,3.119,3.119,3.119,3.119,3.119,3.119,3.119,3.119,3.119,3.119,3.119,3.1131,3.1015,3.0895,3.0773,3.063,3.0526,3.0401,3.029,3.0124,2.9957,2.9754,2.9592,2.9389,2.919,2.9059,2.8959,2.8834,2.8755,2.8732,2.8612,3.4916,3.365,3.3575,3.2796,3.175,3.154,3.1496,3.1496,3.1496,3.1496,3.1496,3.1496,3.1496,3.1496,3.1496,3.1496,3.1496,3.1496,3.1496,3.1466,3.1508,3.1237,3.0833,3.0486,3.0018,2.8955,2.8199,2.7869,2.7794,2.7645,2.76,2.7585,2.7585,2.7625,2.7625,2.7625,2.7675,2.7715,2.779,2.7865,2.7915,2.8103,2.8372,2.8692,2.8904,2.9095,2.9368,2.9548,2.9859,3.0189,3.0354,2.9904,2.9337,2.9034,2.9127,2.9397,2.9989,3.0226,3.0345,3.0768,3.1123,3.119,3.119,3.119,3.119,3.119,3.119,3.119,3.119,3.119,3.119,3.119,3.119,3.119,3.119,3.119,3.119,3.119,3.119,3.119,3.119,3.119,3.119,3.119,3.119,3.119,3.1207,3.1207,3.1224,3.1241,3.1275,3.1207,3.119,3.119,3.119,3.1272,3.1119,3.0982,3.0844,3.0688,3.0543,3.0359,3.0248,3.0119,2.9951,2.9726,2.948,2.9259,2.9059,2.892,2.8795,2.8716,2.8636,2.8565,2.8444,3.5235,3.4466,3.3785,3.3036,3.2288,3.175,3.1496,3.1496,3.1496,3.1496,3.1496,3.1496,3.1496,3.1496,3.1496,3.1496,3.1496,3.1539,3.1539,3.1568,3.167,3.159,3.1483,3.1117,3.0779,3.0283,2.9275,2.8554,2.8244,2.7929,2.7755,2.764,2.7625,2.7675,2.7725,2.7765,2.7815,2.788,2.7955,2.8014,2.8113,2.8235,2.8444,2.8818,2.9021,2.9275,2.9525,2.9814,3.0038,3.021,3.0485,3.0542,3.0399,3.0372,3.0491,3.0644,3.0784,3.0869,3.0937,3.1055,3.119,3.119,3.119,3.119,3.119,3.119,3.119,3.119,3.119,3.119,3.119,3.119,3.119,3.119,3.119,3.119,3.119,3.119,3.119,3.119,3.119,3.119,3.119,3.119,3.119,3.1275,3.1393,3.141,3.1427,3.1444,3.1461,3.1343,3.119,3.119,3.119,3.1306,3.1297,3.1157,3.1002,3.0833,3.0634,3.0354,3.0189,3.0119,2.9902,2.9608,2.9389,2.9167,2.8982,2.8858,2.8716,2.8589,2.8517,2.842,2.8323,3.5454,3.4633,3.3953,3.3216,3.2452,3.178,3.1496,3.1496,3.1496,3.1496,3.1496,3.1496,3.1496,3.1496,3.1496,3.1496,3.1539,3.1641,3.167,3.1698,3.1813,3.1898,3.1927,3.1617,3.1541,3.121,3.0374,2.9388,2.8845,2.8524,2.8122,2.7861,2.7815,2.784,2.7865,2.7905,2.793,2.8005,2.8079,2.8177,2.8323,2.8438,2.8724,2.8928,2.9199,2.9412,2.9665,2.993,3.0146,3.0316,3.0547,3.0733,3.0871,3.0935,3.1015,3.1151,3.119,3.119,3.119,3.119,3.119,3.119,3.119,3.119,3.119,3.119,3.119,3.119,3.119,3.119,3.119,3.119,3.119,3.119,3.119,3.119,3.119,3.119,3.119,3.119,3.1241,3.1241,3.119,3.119,3.119,3.1326,3.1562,3.1681,3.1769,3.1901,3.2036,3.207,3.2036,3.2036,3.2002,3.1968,3.1861,3.1618,3.1394,3.1208,3.0829,3.0587,3.0356,3.0205,2.9902,2.9563,2.936,2.9183,2.899,2.8794,2.8636,2.8493,2.8372,2.8235,2.8162,3.5718,3.4937,3.4136,3.3397,3.2706,3.1824,3.1496,3.1496,3.1496,3.1496,3.1496,3.1496,3.1496,3.1496,3.1539,3.1568,3.1568,3.1756,3.1841,3.187,3.1968,3.2038,3.2066,3.2109,3.2132,3.2063,3.1683,3.0677,2.9663,2.9072,2.8647,2.8303,2.8131,2.8005,2.8029,2.8079,2.8054,2.8152,2.825,2.8372,2.8541,2.8771,2.899,2.9121,2.9412,2.9621,2.9788,3.0103,3.0274,3.0422,3.0609,3.0794,3.0912,3.1012,3.1075,3.1154,3.119,3.119,3.119,3.119,3.119,3.119,3.119,3.119,3.119,3.119,3.119,3.119,3.119,3.119,3.119,3.119,3.119,3.119,3.119,3.119,3.119,3.119,3.119,3.1224,3.1292,3.1343,3.1343,3.1579,3.1684,3.1884,3.2121,3.2442,3.2544,3.2814,3.2949,3.3085,3.3119,3.3102,3.3051,3.2949,3.2735,3.2395,3.2173,3.1947,3.1403,3.087,3.0644,3.039,2.988,2.9563,2.9382,2.9192,2.8959,2.8747,2.8541,2.8396,2.8284,2.8162,2.8063,3.6118,3.5872,3.4424,3.3713,3.3412,3.2137,3.1511,3.1496,3.1496,3.1496,3.1496,3.1496,3.1496,3.1568,3.1698,3.1756,3.1813,3.1883,3.1996,3.2025,3.215,3.2262,3.2358,3.2511,3.2582,3.2621,3.2598,3.1948,3.083,2.9707,2.9077,2.8875,2.8454,2.8094,2.8373,2.8354,2.8436,2.8517,2.8636,2.8708,2.8779,2.8959,2.9098,2.9243,2.9477,2.9788,2.9897,3.021,3.0417,3.0489,3.0733,3.0912,3.0995,3.1112,3.1171,3.119,3.119,3.119,3.119,3.119,3.119,3.119,3.119,3.119,3.119,3.119,3.119,3.119,3.119,3.119,3.119,3.119,3.119,3.119,3.119,3.119,3.1207,3.1495,3.1461,3.163,3.1833,3.1681,3.1579,3.1921,3.2226,3.2462,3.2713,3.3051,3.3389,3.366,3.3846,3.3964,3.3994,3.3994,3.4049,3.3947,3.3617,3.3262,3.2983,3.2691,3.2079,3.1497,3.094,3.0609,3.0117,2.9656,2.945,2.9199,2.8912,2.8723,2.8556,2.8396,2.821,2.8113,2.7989,3.6367,3.6088,3.5018,3.4273,3.3698,3.2675,3.1927,3.154,3.1496,3.1496,3.1496,3.1496,3.1553,3.1683,3.1826,3.1927,3.194,3.2066,3.2178,3.2262,3.2358,3.2511,3.2648,3.273,3.2827,3.2897,3.287,3.268,3.1786,3.1169,3.049,2.9924,2.9354,2.9104,2.9036,2.8759,2.8683,2.8732,2.8873,2.8998,2.9107,2.9229,2.9389,2.9493,2.9705,2.9897,3.013,3.03,3.0506,3.0613,3.0834,3.0955,3.1032,3.1112,3.119,3.119,3.119,3.119,3.119,3.119,3.119,3.119,3.119,3.119,3.119,3.119,3.119,3.119,3.119,3.119,3.119,3.119,3.119,3.119,3.1258,3.1275,3.1376,3.1732,3.1935,3.2154,3.2391,3.2374,3.2408,3.2763,3.3034,3.3085,3.3457,3.3863,3.4235,3.4607,3.4742,3.4822,3.4839,3.4822,3.489,3.4873,3.4506,3.4148,3.3827,3.345,3.2811,3.2225,3.1715,3.1161,3.0715,3.0226,2.9717,2.9199,2.8842,2.8715,2.858,2.8372,2.8177,2.8063,2.7915,3.6646,3.6259,3.5508,3.4714,3.3864,3.3139,3.2372,3.1685,3.1655,3.1655,3.1611,3.164,3.1741,3.1855,3.1953,3.2066,3.2122,3.2247,3.2385,3.2523,3.2676,3.2812,3.2947,3.3016,3.3069,3.3096,3.3176,3.3076,3.295,3.2515,3.1877,3.1133,3.0429,3.0172,3.0024,2.9822,2.9619,2.9399,2.9248,2.9291,2.9389,2.9486,2.9665,2.9804,2.9941,3.0108,3.038,3.0506,3.0593,3.0773,3.0895,3.0995,3.1072,3.1151,3.119,3.119,3.119,3.119,3.119,3.119,3.119,3.119,3.119,3.119,3.119,3.119,3.119,3.119,3.119,3.119,3.119,3.119,3.119,3.1275,3.1393,3.141,3.1579,3.2171,3.2594,3.2797,3.3102,3.3525,3.3626,3.3846,3.3909,3.3846,3.415,3.4641,3.4962,3.525,3.5301,3.5261,3.5261,3.5261,3.5329,3.5346,3.5109,3.493,3.4606,3.4197,3.3539,3.3051,3.258,3.2009,3.1385,3.0988,3.0565,2.9659,2.881,2.8715,2.858,2.8339,2.8128,2.8005,2.7865,3.6983,3.66,3.5615,3.482,3.4088,3.333,3.2575,3.1927,3.194,3.194,3.1912,3.1953,3.1968,3.2025,3.2135,3.2274,3.237,3.2496,3.2676,3.2854,3.3005,3.3123,3.324,3.3372,3.3503,3.3581,3.3581,3.3607,3.3617,3.3495,3.2837,3.2075,3.146,3.1191,3.1067,3.095,3.0696,3.0401,3.0078,2.982,2.9923,2.9964,3.0064,3.0185,3.0292,3.0417,3.0506,3.0713,3.077,3.0969,3.0995,3.1072,3.1151,3.1171,3.119,3.119,3.119,3.119,3.119,3.119,3.119,3.119,3.119,3.119,3.119,3.119,3.119,3.119,3.119,3.119,3.119,3.1207,3.1376,3.1546,3.1833,3.2154,3.2425,3.2949,3.3322,3.3474,3.3812,3.4286,3.4489,3.4636,3.4619,3.4518,3.4704,3.5182,3.5267,3.5481,3.5515,3.5515,3.5532,3.5532,3.5549,3.5464,3.5346,3.5262,3.5065,3.4706,3.4276,3.3806,3.3406,3.2699,3.2069,3.1763,3.1278,3.0267,2.942,2.8918,2.858,2.8339,2.8054,2.7865,2.775,3.7224,3.6905,3.6024,3.509,3.4147,3.3432,3.269,3.2072,3.2012,3.2012,3.2025,3.2094,3.2178,3.2247,3.2385,3.2539,3.2718,3.2746,3.2951,3.3096,3.3229,3.3346,3.3503,3.3668,3.3755,3.3848,3.3899,3.3965,3.3949,3.4,3.3903,3.331,3.2501,3.2219,3.2084,3.1903,3.1621,3.1593,3.1316,3.1222,3.1329,3.1375,3.1448,3.1544,3.1699,3.1586,3.1428,3.1479,3.1318,3.1163,3.1156,3.1249,3.134,3.1326,3.1326,3.1326,3.1343,3.1343,3.1275,3.1241,3.119,3.119,3.119,3.119,3.119,3.1207,3.119,3.119,3.1275,3.1393,3.1258,3.1616,3.1955,3.207,3.2374,3.2831,3.3237,3.3711,3.4032,3.4184,3.4641,3.5148,3.5245,3.5346,3.5278,3.5228,3.5447,3.5616,3.5616,3.5616,3.5616,3.5616,3.5616,3.5616,3.5616,3.5616,3.5616,3.5526,3.5435,3.5115,3.4739,3.4665,3.4199,3.3454,3.2753,3.2401,3.1758,3.0763,3.0038,2.9574,2.8921,2.8339,2.8054,2.7851,2.772,3.7277,3.6877,3.6054,3.52,3.4368,3.3692,3.2975,3.2354,3.2293,3.2277,3.2277,3.2373,3.2456,3.2551,3.2648,3.2827,3.2962,3.3058,3.3203,3.3372,3.3529,3.3658,3.3822,3.3975,3.4084,3.4101,3.4151,3.4226,3.4226,3.4325,3.4251,3.403,3.3672,3.3347,3.3096,3.2652,3.2366,3.249,3.2324,3.2328,3.2348,3.2399,3.2451,3.2513,3.2613,3.2595,3.2348,3.2341,3.2223,3.2036,3.1925,3.1918,3.1884,3.185,3.185,3.1833,3.1833,3.1833,3.1782,3.1393,3.1241,3.119,3.119,3.119,3.1224,3.1379,3.1633,3.163,3.1715,3.1816,3.1816,3.2374,3.2632,3.2763,3.3305,3.3744,3.3981,3.4353,3.4641,3.4895,3.5278,3.5515,3.5515,3.5515,3.5481,3.543,3.5515,3.5616,3.5616,3.5616,3.5616,3.5616,3.5616,3.5616,3.5616,3.5616,3.5616,3.5571,3.5458,3.536,3.5144,3.5058,3.4794,3.4053,3.3453,3.304,3.2423,3.1681,3.092,3.0223,2.9577,2.892,2.848,2.8273,2.79,3.7168,3.6332,3.554,3.5068,3.4753,3.4148,3.3438,3.2835,3.2788,3.2816,3.2788,3.2843,3.287,3.2897,3.2951,3.3069,3.3256,3.3309,3.3424,3.3684,3.3848,3.4025,3.4176,3.43,3.4399,3.4489,3.4521,3.4521,3.4513,3.4586,3.457,3.457,3.4374,3.4268,3.4341,3.3719,3.3376,3.3301,3.2823,3.2784,3.2842,3.3005,3.3128,3.3234,3.3384,3.3443,3.324,3.3237,3.3115,3.2925,3.2929,3.2949,3.2983,3.3017,3.3034,3.3068,3.3136,3.3186,3.3186,3.1985,3.1546,3.1546,3.1715,3.1596,3.1512,3.1819,3.2276,3.2307,3.2679,3.3068,3.3254,3.3339,3.3355,3.3575,3.4117,3.4523,3.4721,3.4839,3.5109,3.5228,3.5414,3.56,3.56,3.56,3.56,3.5583,3.56,3.5616,3.5616,3.5616,3.5616,3.5616,3.5616,3.5616,3.5616,3.5616,3.5616,3.5532,3.5481,3.5383,3.5245,3.5065,3.4802,3.4431,3.4088,3.3616,3.3194,3.2738,3.1929,3.1088,3.0371,2.9737,2.9228,2.8766,2.8482,3.637,3.5944,3.5188,3.4832,3.4612,3.3658,3.31,3.2928,3.2912,3.2966,3.3032,3.3016,3.315,3.3256,3.3309,3.3398,3.3555,3.3581,3.3736,3.3949,3.4101,3.4226,3.4374,3.4521,3.4643,3.4707,3.478,3.4875,3.4899,3.4923,3.4994,3.5018,3.4923,3.4875,3.4666,3.4378,3.4424,3.4502,3.4379,3.4349,3.4345,3.4334,3.4363,3.4392,3.4505,3.4376,3.4033,3.4042,3.3938,3.366,3.3609,3.3575,3.3558,3.3541,3.3508,3.3474,3.344,3.3389,3.3372,3.2848,3.2713,3.2662,3.2544,3.251,3.2696,3.2831,3.3,3.3068,3.3372,3.3558,3.3372,3.3897,3.41,3.4286,3.4709,3.5092,3.5329,3.5397,3.5515,3.5498,3.56,3.5616,3.5616,3.5616,3.5616,3.5616,3.5616,3.5616,3.5616,3.5616,3.5616,3.5616,3.5616,3.5616,3.5616,3.5616,3.56,3.5577,3.5503,3.5429,3.5268,3.5111,3.4835,3.4521,3.435,3.4152,3.3595,3.3061,3.2671,3.1997,3.1183,3.0426,2.9851,2.95,2.9263,3.5894,3.5524,3.4942,3.4579,3.4271,3.3482,3.3176,3.3176,3.3176,3.3229,3.3309,3.3293,3.3424,3.3607,3.3658,3.3761,3.3899,3.3924,3.4016,3.4226,3.43,3.4423,3.457,3.4739,3.4835,3.4899,3.5018,3.5175,3.5152,3.5245,3.5268,3.5245,3.5308,3.5128,3.4977,3.4984,3.5015,3.5052,3.4998,3.5094,3.5157,3.5214,3.527,3.5283,3.5301,3.524,3.4925,3.4727,3.4658,3.4269,3.4134,3.4112,3.4134,3.415,3.4167,3.4184,3.4184,3.4201,3.4235,3.4213,3.4146,3.4184,3.3778,3.3423,3.3491,3.3592,3.3728,3.3829,3.3981,3.41,3.4218,3.4776,3.4827,3.4996,3.5131,3.5515,3.5566,3.56,3.5616,3.5616,3.5616,3.5616,3.5616,3.5616,3.5616,3.5616,3.5616,3.5616,3.5616,3.5616,3.5616,3.5616,3.5616,3.5616,3.5616,3.5616,3.56,3.5583,3.5526,3.5452,3.5314,3.5152,3.4875,3.4618,3.444,3.4193,3.3761,3.3288,3.2879,3.2431,3.1823,3.1114,3.0466,3.0156,2.9928,3.5768,3.5185,3.4808,3.4344,3.38,3.3736,3.372,3.3694,3.3694,3.3694,3.3736,3.372,3.3797,3.3915,3.3924,3.405,3.4226,3.4259,3.4349,3.4472,3.457,3.4667,3.4804,3.497,3.5041,3.5111,3.5222,3.5291,3.5314,3.5344,3.536,3.5337,3.5344,3.5314,3.5291,3.5291,3.5291,3.5314,3.5337,3.5383,3.5406,3.5429,3.5452,3.5498,3.5498,3.5526,3.5391,3.5397,3.543,3.538,3.543,3.5481,3.5532,3.5583,3.5583,3.5554,3.547,3.5363,3.5312,3.5245,3.5295,3.5042,3.4303,3.3744,3.3778,3.4269,3.4472,3.4675,3.4839,3.5177,3.5498,3.5464,3.543,3.5481,3.5481,3.56,3.56,3.5616,3.5616,3.5616,3.5616,3.5616,3.5616,3.5616,3.5616,3.5616,3.5616,3.5616,3.5616,3.5616,3.5616,3.5616,3.5616,3.5616,3.5616,3.5616,3.56,3.56,3.5549,3.5475,3.5337,3.5175,3.4963,3.4739,3.4545,3.4218,3.3748,3.3419,3.3114,3.2617,3.217,3.1751,3.1124,3.0767,3.0492,3.4864,3.4684,3.4593,3.4446,3.4291,3.4259,3.4192,3.4,3.4,3.4009,3.4126,3.4126,3.4176,3.4325,3.4308,3.4358,3.4423,3.4489,3.4521,3.4643,3.4828,3.4899,3.5034,3.5152,3.5222,3.5291,3.536,3.5429,3.5452,3.5458,3.5503,3.5526,3.5481,3.5503,3.5503,3.5487,3.5458,3.5452,3.5458,3.5481,3.5503,3.5549,3.5549,3.5571,3.5577,3.5616,3.5616,3.5616,3.5616,3.5616,3.5616,3.5616,3.5616,3.5616,3.56,3.56,3.5583,3.5583,3.5616,3.5616,3.5616,3.5616,3.5076,3.5092,3.5042,3.5025,3.5216,3.5318,3.5363,3.5532,3.5616,3.5616,3.5616,3.5616,3.5616,3.5616,3.5616,3.5616,3.5616,3.5616,3.5616,3.5616,3.5616,3.5616,3.5616,3.5616,3.5616,3.5616,3.5616,3.5616,3.5616,3.5616,3.5616,3.5616,3.5616,3.5616,3.5616,3.5616,3.5571,3.5498,3.5337,3.5198,3.5034,3.4763,3.4464,3.4124,3.3756,3.3445,3.3161,3.2882,3.2449,3.2155,3.1784,3.1364,3.1091,3.457,3.4586,3.4521,3.4521,3.4594,3.4643,3.4594,3.4472,3.4325,3.4325,3.439,3.4374,3.4448,3.4586,3.4618,3.4691,3.4739,3.4851,3.4899,3.497,3.5018,3.5105,3.5222,3.5308,3.536,3.5423,3.5475,3.5526,3.5549,3.5571,3.5616,3.5594,3.5616,3.5616,3.56,3.5577,3.5571,3.5571,3.5571,3.5616,3.5616,3.5616,3.5616,3.5616,3.5616,3.5616,3.5616,3.5616,3.5616,3.5616,3.5616,3.5616,3.5616,3.5616,3.5616,3.5616,3.5616,3.5616,3.5616,3.5616,3.5616,3.5616,3.5616,3.5549,3.5515,3.5464,3.5515,3.5549,3.5583,3.5616,3.5616,3.5616,3.5616,3.5616,3.5616,3.5616,3.5616,3.5616,3.5616,3.5616,3.5616,3.5616,3.5616,3.5616,3.5616,3.5616,3.5616,3.5616,3.5616,3.5616,3.5616,3.5616,3.5616,3.5616,3.5616,3.5616,3.5616,3.5616,3.5616,3.5503,3.536,3.5222,3.5041,3.4691,3.4284,3.4004,3.374,3.3456,3.3199,3.2921,3.264,3.2274,3.1964,3.1721,3.1519,3.4739,3.4756,3.4594,3.4667,3.478,3.4899,3.5011,3.5081,3.4732,3.4586,3.4594,3.4594,3.4667,3.4811,3.4883,3.4994,3.5041,3.5152,3.5175,3.5291,3.5268,3.5314,3.5337,3.5446,3.5475,3.552,3.5566,3.5594,3.5616,3.5616,3.5616,3.5616,3.5616,3.5616,3.5616,3.5616,3.5616,3.5616,3.5616,3.5616,3.5616,3.5616,3.5616,3.5616,3.5616,3.5616,3.5616,3.5616,3.5616,3.5616,3.5616,3.5616,3.5616,3.5616,3.5616,3.5616,3.5616,3.5616,3.5616,3.5616,3.5616,3.5616,3.5616,3.5616,3.5616,3.5616,3.5616,3.5616,3.5616,3.5616,3.5616,3.5616,3.5616,3.5616,3.5616,3.5616,3.5616,3.5616,3.5616,3.5616,3.5616,3.5616,3.5616,3.5616,3.5616,3.5616,3.5616,3.5616,3.5616,3.5616,3.5616,3.5616,3.5616,3.5616,3.5616,3.5616,3.5616,3.5616,3.5616,3.5549,3.5423,3.5268,3.5071,3.4699,3.4292,3.4032,3.3764,3.3483,3.3206,3.2944,3.2667,3.2336,3.2083,3.1898,3.1712,3.5158,3.5175,3.5128,3.5111,3.5152,3.5198,3.5222,3.5245,3.5175,3.5071,3.5088,3.5088,3.5088,3.5111,3.5175,3.5222,3.5268,3.5314,3.5308,3.5354,3.54,3.5429,3.5452,3.552,3.5571,3.5577,3.56,3.5616,3.5616,3.5616,3.5616,3.5616,3.5616,3.5616,3.5616,3.5616,3.5616,3.5616,3.5616,3.5616,3.5616,3.5616,3.5616,3.5616,3.5616,3.5616,3.5616,3.5616,3.5616,3.5616,3.5616,3.5616,3.5616,3.5616,3.5616,3.5616,3.5616,3.5616,3.5616,3.5616,3.5616,3.5616,3.5616,3.5616,3.5616,3.5616,3.5616,3.5616,3.5616,3.5616,3.5616,3.5616,3.5616,3.5616,3.5616,3.5616,3.5616,3.5616,3.5616,3.5616,3.5616,3.5616,3.5616,3.5616,3.5616,3.5616,3.5616,3.5616,3.5616,3.5616,3.5616,3.5616,3.5616,3.5616,3.5616,3.5616,3.5616,3.5616,3.5616,3.5543,3.5469,3.5268,3.5048,3.4682,3.4341,3.4092,3.3793,3.3498,3.3234,3.2951,3.2648,3.233,3.2153,3.1955,3.1769,3.5308,3.5308,3.5308,3.5308,3.5291,3.536,3.5383,3.54,3.5412,3.5435,3.5412,3.536,3.5308,3.5331,3.5354,3.54,3.54,3.5412,3.5435,3.5475,3.5498,3.5526,3.5571,3.5594,3.5594,3.56,3.56,3.5616,3.5616,3.5616,3.5616,3.5616,3.5616,3.5616,3.5616,3.5616,3.5616,3.5616,3.5616,3.5616,3.5616,3.5616,3.5616,3.5616,3.5616,3.5616,3.5616,3.5616,3.5616,3.5616,3.5616,3.5616,3.5616,3.5616,3.5616,3.5616,3.5616,3.5616,3.5616,3.5616,3.5616,3.5616,3.5616,3.5616,3.5616,3.5616,3.5616,3.5616,3.5616,3.5616,3.5616,3.5616,3.5616,3.5616,3.5616,3.5616,3.5616,3.5616,3.5616,3.5616,3.5616,3.5616,3.5616,3.5616,3.5616,3.5616,3.5616,3.5616,3.5616,3.5616,3.5616,3.5616,3.5616,3.5616,3.5616,3.5616,3.5616,3.5616,3.5616,3.552,3.5423,3.5222,3.4994,3.465,3.4366,3.4151,3.3864,3.3571,3.3245,3.2951,3.2645,3.2308,3.2176,3.2012,3.1798,3.5337,3.5337,3.5337,3.5337,3.536,3.5452,3.5498,3.5537,3.5554,3.56,3.5538,3.5412,3.5337,3.5383,3.5446,3.5492,3.5537,3.5526,3.5554,3.5577,3.5594,3.5594,3.5594,3.5616,3.5616,3.5616,3.5616,3.5616,3.5616,3.5616,3.5616,3.5616,3.5616,3.5616,3.5616,3.5616,3.5616,3.5616,3.5616,3.5616,3.5616,3.5616,3.5616,3.5616,3.5616,3.5616,3.5616,3.5616,3.5616,3.5616,3.5616,3.5616,3.5616,3.5616,3.5616,3.5616,3.5616,3.5616,3.5616,3.5616,3.5616,3.5616,3.5616,3.5616,3.5616,3.5616,3.5616,3.5616,3.5616,3.5616,3.5616,3.5616,3.5616,3.5616,3.5616,3.5616,3.5616,3.5616,3.5616,3.5616,3.5616,3.5616,3.5616,3.5616,3.5616,3.5616,3.5616,3.5616,3.5616,3.5616,3.5616,3.5616,3.5616,3.5616,3.5616,3.5616,3.5616,3.5616,3.5594,3.5498,3.536,3.5245,3.5018,3.4643,3.4374,3.4201,3.394,3.3648,3.3351,3.2978,3.2637,3.2329,3.212,3.1983,3.1826,3.5549,3.5532,3.5532,3.5532,3.5549,3.5554,3.5594,3.5577,3.56,3.5616,3.56,3.5577,3.5532,3.5532,3.5554,3.5571,3.5588,3.56,3.56,3.5616,3.5616,3.5616,3.5616,3.5616,3.5616,3.5616,3.5616,3.5616,3.5616,3.5616,3.5616,3.5616,3.5616,3.5616,3.5616,3.5616,3.5616,3.5616,3.5616,3.5616,3.5616,3.5616,3.5616,3.5616,3.5616,3.5616,3.5616,3.5616,3.5616,3.5616,3.5616,3.5616,3.5616,3.5616,3.5616,3.5616,3.5616,3.5616,3.5616,3.5616,3.5616,3.5616,3.5616,3.5616,3.5616,3.5616,3.5616,3.5616,3.5616,3.5616,3.5616,3.5616,3.5616,3.5616,3.5616,3.5616,3.5616,3.5616,3.5616,3.5616,3.5616,3.5616,3.5616,3.5616,3.5616,3.5616,3.5616,3.5616,3.5616,3.5616,3.5616,3.5616,3.5616,3.5616,3.5616,3.5616,3.5616,3.5616,3.5594,3.5481,3.5406,3.5314,3.5041,3.4667,3.4448,3.4275,3.4016,3.3726,3.3361,3.3027,3.2656,3.2338,3.2117,3.1968,3.1826]}]]